[[{"header":{"parameterUnit":"m.s-1","parameterCategory":1,"la1":30.6,"la2":29.2853,"lo1":-89.7004,"lo2":-87.6739,"dy":0.0162,"dx":0.0183,"nx":112,"ny":82,"refTime":"2026-03-20T00:00:00:Z","depth":0,"parameterNumber":2,"parameterNumberName":"U-component_of_WINDS"},"data":[0.0,0.0,0.0,0.0,0.0,0.0,0.0,0.0,0.0,0.0,0.0,0.0,0.0,0.0,0.0,0.0,0.0,0.0,0.0,0.0,0.0,0.0,0.0,0.0,0.0,0.0,0.0,0.0,0.0,0.0,0.0,0.0,0.0,0.0,0.0,0.0,0.0,0.0,0.0,0.0,0.0,0.0,0.0,0.0,0.0,0.0,0.0,0.0,0.0,0.0,0.0,0.0,0.0,0.0,0.0,0.0,0.0,0.0,0.0,0.0,0.0,0.0,0.0,0.0,0.0,0.0,0.0,0.0,0.0,0.0,0.0,0.0,0.0,0.0,0.0,0.0,0.0,0.0,0.0,0.0,0.0,0.0,0.0,0.0,0.0,0.0,0.0,0.0,0.0,0.0,0.0,-3.2105,-3.6182,-3.8385,-3.7692,-3.6496,-3.3949,-2.9584,0.0,0.0,0.0,0.0,0.0,0.0,0.0,0.0,0.0,0.0,0.0,0.0,0.0,0.0,0.0,0.0,0.0,0.0,0.0,0.0,0.0,0.0,0.0,0.0,0.0,0.0,0.0,0.0,0.0,0.0,0.0,0.0,0.0,0.0,0.0,0.0,0.0,0.0,0.0,0.0,0.0,0.0,0.0,0.0,0.0,0.0,0.0,0.0,0.0,0.0,0.0,0.0,0.0,0.0,0.0,0.0,0.0,0.0,0.0,0.0,0.0,0.0,0.0,0.0,0.0,0.0,0.0,0.0,0.0,0.0,0.0,0.0,0.0,0.0,0.0,0.0,0.0,0.0,0.0,0.0,0.0,0.0,0.0,0.0,0.0,0.0,0.0,0.0,0.0,0.0,0.0,0.0,0.0,0.0,0.0,0.0,0.0,0.0,0.0,0.0,0.0,0.0,0.0,0.0,-2.8385,-3.4255,-3.6476,-3.7265,-3.6593,-3.4923,-3.2453,-2.9025,0.0,0.0,0.0,0.0,0.0,0.0,0.0,0.0,0.0,0.0,0.0,0.0,0.0,0.0,0.0,0.0,0.0,0.0,0.0,0.0,0.0,0.0,0.0,0.0,0.0,0.0,0.0,0.0,0.0,0.0,0.0,0.0,0.0,0.0,0.0,0.0,0.0,0.0,0.0,0.0,0.0,0.0,0.0,0.0,0.0,0.0,0.0,0.0,0.0,0.0,0.0,0.0,0.0,0.0,0.0,0.0,0.0,0.0,0.0,0.0,0.0,0.0,0.0,0.0,0.0,0.0,0.0,0.0,0.0,0.0,0.0,0.0,0.0,0.0,0.0,0.0,0.0,0.0,0.0,0.0,0.0,0.0,0.0,0.0,0.0,0.0,0.0,0.0,0.0,0.0,0.0,0.0,0.0,0.0,0.0,0.0,0.0,0.0,0.0,0.0,0.0,0.0,0.0,-2.7255,-3.0336,-3.5328,-3.6736,-3.7041,-3.6359,-3.4593,-3.2138,-2.8912,-2.6573,0.0,0.0,0.0,0.0,0.0,0.0,0.0,0.0,0.0,0.0,0.0,0.0,0.0,0.0,0.0,0.0,0.0,0.0,0.0,0.0,0.0,0.0,0.0,0.0,0.0,0.0,0.0,0.0,0.0,0.0,0.0,0.0,0.0,0.0,0.0,0.0,0.0,0.0,0.0,0.0,0.0,0.0,0.0,0.0,0.0,0.0,0.0,0.0,0.0,0.0,0.0,0.0,0.0,0.0,0.0,0.0,0.0,0.0,0.0,0.0,0.0,0.0,0.0,0.0,0.0,0.0,0.0,0.0,0.0,0.0,0.0,0.0,0.0,0.0,0.0,0.0,0.0,0.0,0.0,0.0,0.0,0.0,0.0,0.0,0.0,0.0,0.0,0.0,0.0,0.0,0.0,0.0,0.0,0.0,0.0,0.0,0.0,0.0,0.0,0.0,0.0,0.0,-3.0306,-3.2588,-3.5938,-3.691,-3.7041,-3.6359,-3.4283,-3.1803,-2.8898,-2.601,0.0,0.0,0.0,0.0,0.0,0.0,0.0,0.0,0.0,0.0,0.0,0.0,0.0,0.0,0.0,0.0,0.0,0.0,0.0,0.0,0.0,0.0,0.0,0.0,0.0,0.0,0.0,0.0,0.0,0.0,0.0,0.0,0.0,0.0,0.0,0.0,0.0,0.0,0.0,0.0,0.0,0.0,0.0,0.0,0.0,0.0,0.0,0.0,0.0,0.0,0.0,0.0,0.0,0.0,0.0,0.0,0.0,0.0,0.0,0.0,0.0,0.0,0.0,0.0,0.0,0.0,0.0,0.0,0.0,0.0,0.0,0.0,0.0,0.0,0.0,0.0,0.0,0.0,0.0,0.0,0.0,0.0,0.0,0.0,0.0,0.0,0.0,0.0,0.0,0.0,0.0,0.0,0.0,0.0,0.0,0.0,0.0,0.0,0.0,0.0,0.0,0.0,-3.0685,-3.4084,-3.6083,-3.691,-3.7041,-3.6359,-3.3456,-3.08,-2.884,-2.5129,0.0,0.0,0.0,0.0,0.0,0.0,0.0,0.0,0.0,0.0,0.0,0.0,0.0,0.0,0.0,0.0,0.0,0.0,0.0,0.0,0.0,0.0,0.0,0.0,0.0,0.0,0.0,0.0,0.0,0.0,0.0,0.0,0.0,0.0,0.0,0.0,0.0,0.0,0.0,0.0,0.0,0.0,0.0,0.0,0.0,0.0,0.0,0.0,0.0,0.0,0.0,0.0,0.0,0.0,0.0,0.0,0.0,0.0,0.0,0.0,0.0,0.0,0.0,0.0,0.0,0.0,0.0,0.0,0.0,0.0,0.0,0.0,0.0,0.0,0.0,0.0,0.0,0.0,0.0,0.0,0.0,0.0,0.0,0.0,0.0,0.0,0.0,0.0,0.0,0.0,0.0,0.0,0.0,0.0,0.0,0.0,0.0,0.0,0.0,0.0,0.0,0.0,-2.9987,-3.3151,0.0,-3.6301,-3.6417,-3.5813,-3.3529,-3.1148,-2.8854,0.0,0.0,0.0,0.0,0.0,0.0,0.0,0.0,0.0,0.0,0.0,0.0,0.0,0.0,0.0,0.0,0.0,0.0,0.0,0.0,0.0,0.0,0.0,0.0,0.0,0.0,0.0,0.0,0.0,0.0,0.0,0.0,0.0,0.0,0.0,0.0,0.0,0.0,0.0,0.0,0.0,0.0,0.0,0.0,0.0,0.0,0.0,0.0,0.0,0.0,0.0,0.0,0.0,0.0,0.0,0.0,0.0,0.0,0.0,0.0,0.0,0.0,0.0,0.0,0.0,0.0,0.0,0.0,0.0,0.0,0.0,0.0,0.0,0.0,0.0,0.0,0.0,0.0,0.0,0.0,0.0,0.0,0.0,0.0,0.0,0.0,0.0,0.0,0.0,0.0,0.0,0.0,0.0,0.0,0.0,0.0,0.0,0.0,0.0,0.0,0.0,0.0,-2.6312,-2.9914,-3.2962,0.0,-3.5784,-3.5836,-3.5436,-3.305,-3.0654,-2.8521,0.0,0.0,0.0,0.0,0.0,0.0,0.0,0.0,0.0,0.0,0.0,0.0,0.0,0.0,0.0,0.0,0.0,0.0,0.0,0.0,0.0,0.0,0.0,0.0,0.0,0.0,0.0,0.0,0.0,0.0,0.0,0.0,0.0,0.0,0.0,0.0,0.0,0.0,0.0,0.0,0.0,0.0,0.0,0.0,0.0,0.0,0.0,0.0,0.0,0.0,0.0,0.0,0.0,0.0,0.0,0.0,0.0,0.0,0.0,0.0,0.0,0.0,0.0,0.0,0.0,0.0,0.0,0.0,0.0,0.0,0.0,0.0,0.0,0.0,0.0,0.0,0.0,0.0,0.0,0.0,0.0,0.0,0.0,0.0,0.0,0.0,0.0,0.0,0.0,0.0,0.0,0.0,0.0,0.0,0.0,0.0,0.0,0.0,0.0,0.0,0.0,0.0,-2.646,-3.0728,-3.3983,-3.5247,-3.5392,-3.5392,-3.5392,-3.1845,-2.9073,0.0,0.0,0.0,0.0,0.0,0.0,0.0,0.0,0.0,0.0,0.0,0.0,0.0,0.0,0.0,0.0,0.0,0.0,0.0,0.0,0.0,0.0,0.0,0.0,0.0,0.0,0.0,0.0,0.0,0.0,0.0,0.0,0.0,0.0,0.0,0.0,0.0,0.0,0.0,0.0,0.0,0.0,0.0,0.0,0.0,0.0,0.0,0.0,0.0,0.0,0.0,0.0,0.0,0.0,0.0,0.0,0.0,0.0,0.0,0.0,0.0,0.0,0.0,0.0,0.0,0.0,0.0,0.0,0.0,0.0,0.0,0.0,0.0,0.0,0.0,0.0,0.0,0.0,0.0,0.0,0.0,0.0,0.0,0.0,0.0,0.0,0.0,0.0,0.0,0.0,0.0,0.0,0.0,0.0,0.0,0.0,0.0,0.0,0.0,0.0,0.0,0.0,0.0,-2.7028,-3.0974,-3.3823,-3.4603,-3.5131,-3.5218,-3.4733,-3.2396,-3.0001,-2.784,0.0,0.0,0.0,0.0,0.0,0.0,0.0,0.0,0.0,0.0,0.0,0.0,0.0,0.0,0.0,0.0,0.0,0.0,0.0,0.0,0.0,0.0,0.0,0.0,0.0,0.0,0.0,0.0,0.0,0.0,0.0,0.0,0.0,0.0,0.0,0.0,0.0,0.0,0.0,0.0,0.0,0.0,0.0,0.0,0.0,0.0,0.0,0.0,0.0,0.0,0.0,0.0,0.0,0.0,0.0,0.0,0.0,0.0,0.0,0.0,0.0,0.0,0.0,0.0,0.0,0.0,0.0,0.0,0.0,0.0,0.0,0.0,0.0,0.0,0.0,0.0,0.0,0.0,0.0,0.0,0.0,0.0,0.0,0.0,0.0,0.0,0.0,0.0,0.0,0.0,0.0,0.0,0.0,0.0,0.0,0.0,0.0,0.0,0.0,0.0,0.0,0.0,-2.7289,-3.0872,-3.3427,-3.4312,-3.4762,-3.4835,-3.4443,-3.2629,-3.0407,-2.7855,0.0,0.0,0.0,0.0,0.0,0.0,0.0,0.0,0.0,0.0,0.0,0.0,0.0,0.0,0.0,0.0,0.0,0.0,0.0,0.0,0.0,0.0,0.0,0.0,0.0,0.0,0.0,0.0,0.0,0.0,0.0,0.0,0.0,0.0,0.0,0.0,0.0,0.0,0.0,0.0,0.0,0.0,0.0,0.0,0.0,0.0,0.0,0.0,0.0,0.0,0.0,0.0,0.0,0.0,0.0,0.0,0.0,0.0,0.0,0.0,0.0,0.0,0.0,0.0,0.0,0.0,0.0,0.0,0.0,0.0,0.0,0.0,0.0,0.0,0.0,0.0,0.0,0.0,0.0,0.0,0.0,0.0,0.0,0.0,0.0,0.0,0.0,0.0,0.0,0.0,0.0,0.0,0.0,0.0,0.0,0.0,0.0,0.0,0.0,0.0,0.0,0.0,-2.7376,-3.0538,-3.2974,-3.4269,-3.4414,-3.4414,-3.4414,-3.2629,-3.0451,-2.8029,0.0,0.0,0.0,0.0,0.0,0.0,0.0,0.0,0.0,0.0,0.0,0.0,0.0,0.0,0.0,0.0,0.0,0.0,0.0,0.0,0.0,0.0,0.0,0.0,0.0,0.0,0.0,0.0,0.0,0.0,0.0,0.0,0.0,0.0,0.0,0.0,0.0,0.0,0.0,0.0,0.0,0.0,0.0,0.0,0.0,0.0,0.0,0.0,0.0,0.0,0.0,0.0,0.0,0.0,0.0,0.0,0.0,0.0,0.0,0.0,-2.8986,0.0,0.0,0.0,0.0,0.0,0.0,0.0,0.0,0.0,0.0,0.0,0.0,0.0,0.0,0.0,0.0,0.0,0.0,0.0,0.0,0.0,0.0,0.0,0.0,0.0,0.0,0.0,0.0,0.0,0.0,0.0,0.0,0.0,0.0,0.0,0.0,0.0,0.0,0.0,0.0,0.0,-2.8057,-3.0843,-3.2974,-3.4269,-3.4414,-3.4414,-3.4414,-3.2629,-3.0828,-2.9291,0.0,0.0,0.0,0.0,0.0,0.0,0.0,0.0,0.0,0.0,0.0,0.0,0.0,0.0,0.0,0.0,0.0,0.0,0.0,0.0,0.0,0.0,0.0,0.0,0.0,0.0,0.0,0.0,0.0,0.0,0.0,0.0,0.0,0.0,0.0,0.0,0.0,0.0,0.0,0.0,0.0,0.0,0.0,0.0,0.0,0.0,0.0,0.0,0.0,0.0,0.0,0.0,0.0,0.0,0.0,0.0,0.0,0.0,0.0,0.0,0.0,-3.0612,0.0,0.0,0.0,0.0,0.0,0.0,0.0,0.0,0.0,0.0,0.0,0.0,0.0,0.0,0.0,0.0,0.0,0.0,0.0,0.0,0.0,0.0,0.0,0.0,0.0,0.0,0.0,0.0,0.0,0.0,0.0,0.0,0.0,0.0,0.0,0.0,0.0,0.0,0.0,0.0,-2.8626,-3.1257,-3.3209,-3.4163,-3.4346,-3.4414,-3.4414,-3.3209,-3.1741,-3.0057,-2.7238,0.0,0.0,0.0,0.0,0.0,0.0,0.0,0.0,0.0,0.0,0.0,0.0,0.0,0.0,0.0,0.0,0.0,0.0,0.0,0.0,0.0,0.0,0.0,0.0,0.0,0.0,0.0,0.0,0.0,0.0,0.0,0.0,0.0,0.0,0.0,0.0,0.0,0.0,0.0,0.0,0.0,0.0,0.0,0.0,0.0,0.0,0.0,0.0,0.0,0.0,0.0,0.0,0.0,0.0,0.0,-3.6678,-3.8079,-3.8432,-3.7931,-3.5899,-3.492,-3.4533,0.0,0.0,0.0,0.0,0.0,0.0,0.0,0.0,0.0,0.0,0.0,0.0,0.0,0.0,0.0,0.0,0.0,0.0,0.0,0.0,0.0,0.0,0.0,0.0,0.0,-3.0379,-2.9877,0.0,0.0,0.0,0.0,0.0,0.0,0.0,0.0,0.0,0.0,0.0,0.0,-2.9186,-3.1703,-3.3398,-3.4111,-3.4283,-3.4312,-3.4312,-3.3767,-3.2645,-3.0917,-2.89,-2.672,0.0,0.0,0.0,0.0,0.0,0.0,0.0,0.0,0.0,0.0,0.0,0.0,0.0,0.0,0.0,0.0,0.0,0.0,0.0,0.0,0.0,0.0,0.0,0.0,0.0,0.0,0.0,0.0,0.0,0.0,0.0,0.0,-2.3862,-2.5164,0.0,0.0,0.0,0.0,0.0,0.0,0.0,0.0,0.0,0.0,0.0,0.0,0.0,0.0,-3.5532,-3.7117,-3.8169,-3.8688,-4.1667,-4.2548,-4.1601,-4.2823,-4.3262,-4.3027,-4.2755,0.0,-3.675,-3.5868,0.0,0.0,0.0,0.0,0.0,0.0,0.0,0.0,0.0,0.0,0.0,0.0,0.0,0.0,0.0,0.0,0.0,0.0,0.0,0.0,0.0,0.0,-3.3406,-3.2578,-3.2158,-3.1577,0.0,-2.761,-2.5003,-2.3459,0.0,0.0,0.0,0.0,0.0,0.0,0.0,0.0,-3.0134,-3.1942,-3.3334,-3.4342,-3.4176,-3.3965,-3.3965,-3.3364,-3.2944,-3.2817,-3.0332,-2.8497,-2.7583,-2.4161,0.0,0.0,0.0,0.0,0.0,0.0,0.0,0.0,0.0,0.0,0.0,0.0,0.0,0.0,0.0,0.0,0.0,0.0,0.0,0.0,0.0,0.0,0.0,0.0,0.0,0.0,0.0,0.0,0.0,-2.3905,-2.5614,-2.5789,-2.6158,-2.6013,0.0,0.0,0.0,0.0,0.0,0.0,0.0,0.0,0.0,-3.514,-3.5909,-3.7432,-3.9823,-4.0775,-4.1739,-4.2723,-4.4153,-4.4565,-4.4163,-4.4691,-4.481,-4.4621,-4.4829,-4.3612,-4.1246,-3.9325,-3.7084,-3.4765,0.0,0.0,0.0,0.0,0.0,-3.2032,-3.388,0.0,0.0,0.0,0.0,0.0,0.0,0.0,0.0,0.0,0.0,0.0,0.0,0.0,0.0,-3.3313,-3.328,-3.3048,-3.2085,-3.0312,-2.8237,0.0,-2.5362,-2.4322,-2.1145,0.0,0.0,0.0,0.0,0.0,-3.0565,-3.1806,-3.2883,-3.4032,-3.3818,-3.3577,-3.3577,-3.3273,-3.301,-3.2752,-3.0956,-2.9588,-2.8907,-2.5688,-2.3072,0.0,0.0,0.0,0.0,0.0,0.0,0.0,0.0,0.0,0.0,0.0,0.0,0.0,0.0,0.0,0.0,0.0,0.0,0.0,0.0,0.0,0.0,0.0,0.0,0.0,0.0,0.0,0.0,-2.5894,-2.7331,-2.6823,-2.8057,-2.8159,0.0,0.0,0.0,0.0,0.0,0.0,-3.3862,-3.5038,-3.6642,-3.8827,-3.9851,-4.1324,-4.3443,-4.3663,-4.4309,-4.5419,-4.5538,-4.5636,-4.5784,-4.5935,-4.5999,-4.6038,-4.6179,-4.6021,-4.537,-4.2358,-4.0146,-3.842,-3.632,-3.5061,0.0,-3.5737,-3.5628,-3.5203,-3.7857,-3.7958,-3.6773,-3.5634,0.0,-3.2904,-3.0485,0.0,0.0,0.0,0.0,-3.0556,-3.1991,0.0,-3.3872,-3.3802,-3.3998,-3.4007,-3.3138,-3.2401,-3.1108,0.0,-2.8001,-2.7157,-2.3599,0.0,0.0,0.0,0.0,-2.8438,-3.0868,-3.1779,-3.2548,-3.341,-3.3247,-3.3125,-3.3125,-3.2982,-3.2733,-3.234,-3.1114,-3.0064,-2.9361,-2.6772,-2.4439,-2.2498,0.0,0.0,0.0,0.0,0.0,0.0,0.0,0.0,0.0,0.0,0.0,0.0,0.0,0.0,0.0,0.0,0.0,0.0,0.0,0.0,0.0,0.0,0.0,0.0,0.0,0.0,0.0,0.0,0.0,-2.9407,-3.1089,0.0,0.0,0.0,0.0,-3.2147,-3.3456,-3.527,-3.7781,-3.858,-4.0275,-4.3185,-4.3358,-4.4175,-4.5806,-4.5392,-4.5377,-4.5755,-4.6167,-4.6523,-4.687,-4.7432,-4.8008,-4.8489,-4.8205,-4.8042,-4.7771,-4.4827,-4.2873,-4.1652,-4.0377,-3.9001,-3.7943,-3.9415,-3.8859,-3.7705,-3.9834,-3.9759,-3.8922,-3.9681,-3.7734,-3.4875,-3.3637,-3.2008,0.0,0.0,-3.2826,-3.3398,-3.3923,-3.4553,-3.4984,-3.4776,-3.4342,-3.3982,-3.3933,-3.3195,-3.2029,0.0,-2.9542,-2.8568,-2.6751,0.0,-2.679,-2.7472,-2.818,-2.9282,-3.1151,-3.2101,-3.2517,-3.2384,-3.2521,-3.263,-3.263,-3.2125,-3.1874,-3.211,-3.0804,-2.9764,-2.9223,-2.7374,-2.5418,-2.3471,-2.102,0.0,0.0,0.0,0.0,0.0,0.0,0.0,0.0,0.0,0.0,0.0,0.0,0.0,0.0,0.0,0.0,0.0,0.0,0.0,0.0,0.0,0.0,0.0,0.0,0.0,0.0,0.0,0.0,-3.2106,-3.4167,0.0,0.0,-3.3314,-3.439,-3.6054,-3.736,-3.8938,-4.092,-4.2198,-4.3487,-4.4784,-4.5185,-4.592,-4.6977,-4.6651,-4.6662,-4.7064,-4.7246,-4.7448,-4.7729,-4.7933,-4.8151,-4.8355,-4.8246,-4.7836,-4.7247,-4.6141,-4.5405,-4.4719,-4.3118,-4.2214,-4.1716,-4.1674,-4.1314,-4.0761,-4.0759,-4.0501,-3.998,-3.9182,-3.7465,-3.568,-3.5676,-3.4918,-3.4212,-3.4982,-3.5006,-3.4889,-3.5053,-3.5248,-3.5308,-3.4908,-3.4631,-3.4402,-3.4066,-3.3725,-3.3135,-3.194,-3.0964,-2.981,-2.8026,-2.8362,-2.8724,-2.8188,-2.865,-2.9591,-3.1029,-3.0838,-3.0919,-3.2,-3.1837,-3.1616,-3.1616,-3.1809,-3.1517,-3.0668,-3.0134,-2.946,-2.8521,-2.7151,-2.5548,-2.3721,-2.2152,-1.9992,0.0,0.0,0.0,0.0,0.0,0.0,0.0,0.0,0.0,0.0,0.0,0.0,0.0,0.0,0.0,0.0,0.0,0.0,0.0,0.0,0.0,0.0,0.0,0.0,0.0,0.0,-3.4428,-3.4428,-3.6881,-3.7825,-3.588,-3.6867,-3.8283,-3.9712,-4.08,-4.2067,-4.3647,-4.4675,-4.5586,-4.6272,-4.6717,-4.7099,-4.7573,-4.7287,-4.7285,-4.7476,-4.7628,-4.7824,-4.8205,-4.8395,-4.8419,-4.8304,-4.8158,-4.7676,-4.709,-4.6892,-4.6929,-4.6877,-4.4871,-4.4285,-4.4477,-4.3659,-4.3218,-4.2814,-4.1815,-4.1134,-4.0439,-3.8988,-3.7639,-3.6604,-3.6708,-3.6416,-3.6113,-3.6456,-3.6207,-3.5881,-3.5881,-3.5749,-3.5533,-3.5172,-3.4907,-3.4679,-3.433,-3.4114,-3.3742,-3.2935,-3.2098,-3.1013,-2.9434,-2.9829,-3.0102,-2.93,-2.9389,-2.9837,-3.0671,-3.0292,-3.0318,-3.1245,-3.136,-3.1251,-3.1073,-3.1081,-3.0599,-2.9474,-2.9019,-2.8328,-2.7189,-2.6429,-2.5246,-2.3564,-2.2286,-2.043,-1.7941,0.0,0.0,0.0,0.0,0.0,0.0,0.0,0.0,0.0,0.0,0.0,0.0,0.0,0.0,0.0,0.0,0.0,0.0,0.0,0.0,0.0,0.0,0.0,-3.2396,-3.4777,-3.6417,-3.646,-3.9233,-4.0423,-3.8565,-4.067,-4.2411,-4.3007,-4.3674,-4.4603,-4.5851,-4.5953,-4.6579,-4.7866,-4.7938,-4.7858,-4.7712,-4.7456,-4.716,-4.6876,-4.7239,-4.7663,-4.8205,-4.8774,-4.8825,-4.8492,-4.7995,-4.7744,-4.7591,-4.7093,-4.7382,-4.7905,-4.5627,-4.5282,-4.5987,-4.5311,-4.4492,-4.3623,-4.3019,-4.1748,-4.025,-3.9512,-3.8708,-3.7817,-3.6795,-3.6471,-3.6459,-3.6459,-3.6459,-3.6459,-3.6435,-3.6038,-3.5641,-3.5617,-3.5208,-3.4775,-3.4775,-3.4378,-3.3862,-3.3392,-3.2875,-3.2178,-3.1127,-3.0946,-3.0946,-3.0946,-3.0446,0.0,-3.0086,-3.0604,-3.0716,-3.0145,-3.1057,-3.1534,-3.1013,-2.9951,-2.9116,-2.8597,-2.754,-2.643,-2.5348,-2.5288,-2.4566,-2.3039,-2.1452,-2.0105,-1.9011,0.0,0.0,0.0,0.0,0.0,0.0,0.0,0.0,0.0,0.0,0.0,0.0,0.0,0.0,0.0,0.0,0.0,0.0,0.0,0.0,0.0,0.0,-3.3485,-3.3848,-3.6504,-3.8754,-3.9668,-4.1381,-4.2455,-4.2397,-4.305,-4.3718,-4.4313,-4.498,-4.5645,-4.6319,-4.7355,-4.8046,-4.8244,-4.8704,-4.8723,-4.8294,-4.7801,-4.7235,-4.6518,-4.7095,-4.7325,-4.7258,-4.7431,-4.7466,-4.7374,-4.7215,-4.6743,-4.6163,-4.6642,-4.6576,-4.6325,-4.6975,-4.7107,-4.6827,-4.5375,-4.3556,-4.1866,-4.1732,-4.11,-4.0375,-4.0151,-3.9376,-3.8539,-3.8238,-3.7866,-3.7553,-3.7553,-3.7553,-3.7457,-3.7072,-3.6579,-3.6086,-3.5713,-3.5208,-3.4775,-3.4775,-3.4667,-3.4354,-3.3464,-3.3176,-3.2731,-3.1681,-3.1488,-3.1488,-3.1488,0.0,0.0,-3.0134,-3.0241,-3.0138,-2.9598,-3.0144,-3.0524,-3.0337,-3.0114,-2.9383,0.0,-2.7336,-2.6466,-2.5336,-2.4939,-2.4362,-2.3601,-2.1993,-2.0646,0.0,0.0,0.0,0.0,0.0,0.0,0.0,0.0,0.0,0.0,0.0,0.0,0.0,0.0,0.0,0.0,0.0,0.0,0.0,0.0,0.0,0.0,-3.4327,-3.6388,-3.7476,-3.9233,-4.0786,-4.1773,-4.3007,-4.3935,-4.4327,-4.4618,-4.5039,-4.5648,-4.6069,-4.6587,-4.7359,-4.8238,-4.8712,-4.8758,-4.8546,-4.8151,-4.7643,-4.7078,-4.6472,-4.5859,-4.6894,-4.7082,-4.65,-4.6806,-4.6464,0.0,-4.5528,-4.5086,-4.463,-4.5538,-4.5818,0.0,0.0,0.0,0.0,0.0,-4.3759,-4.2219,-4.1846,-4.1322,-4.0691,-4.0463,-3.9826,-3.9104,-3.8888,-3.8431,-3.7986,-3.7986,-3.7986,-3.7914,-3.7601,-3.7132,-3.6603,-3.6074,-3.5545,-3.5051,-3.4823,-3.4775,-3.4534,-3.3765,0.0,0.0,-3.2166,-3.1862,-3.1705,-3.1705,-3.1259,-3.0814,0.0,-3.0422,-3.0302,-2.9989,-3.0434,-3.0694,-3.0434,-3.0044,0.0,0.0,0.0,-2.6138,-2.5011,-2.4482,0.0,0.0,0.0,0.0,0.0,0.0,0.0,0.0,-2.0454,-2.0153,0.0,0.0,0.0,0.0,0.0,0.0,0.0,0.0,0.0,0.0,0.0,0.0,0.0,0.0,0.0,0.0,-3.6809,-3.9305,-4.1845,-4.2266,-4.2528,-4.3137,-4.411,-4.4775,-4.4848,-4.5456,-4.6032,-4.6596,-4.6862,-4.7488,-4.8619,0.0,0.0,0.0,0.0,-4.7205,-4.6635,-4.5992,-4.5422,-4.5033,-4.633,-4.653,-4.5645,-4.6156,-4.5593,-4.4103,-4.3559,-4.3291,-4.3405,-4.4329,-4.5165,-4.5632,-4.4149,-4.4444,-4.5658,-4.5027,-4.4261,0.0,0.0,0.0,0.0,-4.0631,-4.0126,-3.9597,-3.9068,-3.8515,-3.807,-3.7998,-3.7986,-3.7986,-3.7986,-3.7589,-3.7072,-3.6603,-3.6038,-3.5485,-3.4967,-3.4823,-3.4619,-3.409,-3.3633,-3.3128,-3.2599,-3.2034,-3.1705,-3.1705,-3.1308,0.0,-3.0922,-3.0927,-3.0946,-3.0766,0.0,0.0,-3.0874,-2.9929,-2.9184,-2.8715,-2.7176,-2.5805,-2.47,-2.4326,-2.4131,-2.4071,-2.447,-2.464,-2.4568,-2.5143,-2.5396,-2.5336,-2.2474,-2.1897,0.0,0.0,0.0,0.0,0.0,0.0,0.0,0.0,0.0,0.0,0.0,0.0,0.0,0.0,0.0,-3.6286,-3.842,-4.0452,-4.2528,-4.3282,-4.3848,-4.4443,-4.404,-4.387,-4.4365,-4.5001,-4.5487,-4.5553,-4.7281,-4.8416,-4.8663,-4.9204,0.0,-4.962,-4.9375,-4.8866,-4.8114,-4.705,-4.5834,-4.4398,0.0,0.0,-4.3168,-4.3281,-4.3543,-4.3853,-4.305,-4.3056,-4.3755,-4.4648,-4.4689,-4.429,-4.5142,-4.4823,-4.3815,-4.3218,-4.2457,-4.1675,-4.1516,-4.1357,-4.1172,-4.1064,-4.0667,-4.015,-3.9621,-3.908,0.0,-3.8106,-3.7986,-3.7986,-3.7986,-3.7589,-3.7168,-3.7072,-3.6314,-3.5581,-3.5485,-3.5136,-3.4619,-3.409,-3.3633,-3.3128,-3.2599,-3.2034,-3.1705,-3.1705,-3.1621,-3.1404,-3.097,-3.1296,-3.1067,-2.9737,-3.0458,-3.0862,-3.029,-3.005,-2.9893,-2.9785,-2.8282,-2.6923,-2.5829,-2.6129,-2.6105,-2.5648,-2.5745,-2.5588,-2.5155,-2.5685,-2.5949,-2.5913,-2.4879,-2.4566,0.0,0.0,0.0,0.0,0.0,0.0,0.0,0.0,0.0,0.0,0.0,-2.9639,0.0,0.0,-3.6112,-3.8333,-4.0046,-4.1657,-4.3268,-4.4037,-4.4545,-4.485,-4.4753,-4.4684,-4.4734,-4.5525,-4.6073,-4.6201,-4.776,-4.887,-4.919,-4.9494,-4.941,-4.8852,-4.8159,-4.7266,-4.6176,-4.5275,-4.4331,-4.3368,-4.3645,-4.3326,-4.2525,-4.2525,-4.2513,-4.25,-4.2017,-4.2118,-4.2557,-4.3449,-4.356,-4.324,-4.3977,-4.37,-4.2885,-4.2625,-4.2243,-4.1802,-4.1344,-4.1184,-4.1184,-4.1184,-4.0824,-4.0343,-4.0078,-3.9453,-3.8755,-3.8479,-3.8202,-3.7986,-3.7986,-3.7781,-3.7517,-3.7252,-3.6591,-3.5942,-3.5677,-3.5196,-3.4703,-3.4438,-3.397,-3.3501,-3.2984,-3.2442,-3.1985,-3.1753,-3.1705,-3.1609,-3.1344,-3.1745,-3.1673,-3.0603,-3.0995,-3.1103,-3.053,-3.0242,-2.9977,-2.9713,-2.8955,-2.815,-2.7332,-2.7572,-2.7546,-2.7308,-2.756,-2.7572,-2.7308,-2.7837,-2.8089,-2.8089,-2.7825,-2.7416,0.0,0.0,0.0,0.0,0.0,0.0,0.0,0.0,-2.7636,-2.961,-3.1395,-3.3151,-3.4835,-3.6635,-3.8391,-4.0031,-4.141,-4.2673,-4.3834,-4.4501,-4.4937,-4.5068,-4.5218,-4.5171,-4.4757,-4.5751,-4.6543,-4.6905,-4.7952,-4.889,-4.9654,-4.9262,-4.8738,-4.8021,-4.6919,-4.5582,-4.4142,-4.3674,-4.3146,-4.2569,-4.3103,-4.2992,-4.2243,-4.2243,-4.196,-4.1459,-4.1459,-4.1459,-4.1516,-4.2017,-4.2356,-4.2457,-4.23,-4.2243,-4.2243,-4.2243,-4.2243,-4.213,-4.1459,-4.1184,-4.1184,-4.1184,-4.0896,-4.0535,-4.0427,-3.9801,-3.908,-3.8876,-3.8491,-3.8118,-3.801,-3.7986,-3.7878,-3.7445,-3.6867,-3.629,-3.5857,-3.5231,-3.4775,-3.4775,-3.4354,-3.3862,-3.3501,-3.2911,-3.231,-3.1789,-3.1705,-3.1705,-3.1705,-3.2058,-3.213,-3.1609,-3.1645,-3.1488,-3.097,-3.0398,-2.9857,-2.9328,-2.9304,-2.9112,-2.8679,-2.8667,-2.8715,-2.8823,-2.9232,-2.9448,-2.946,-2.9881,-3.0086,-3.0086,-3.0194,-2.9737,-2.6704,-2.5604,0.0,-2.6883,-2.6924,-2.7752,0.0,0.0,-3.2309,-3.4259,-3.5706,-3.6881,-3.7651,-3.8884,-4.0046,-4.0858,-4.2049,-4.3152,-4.3892,-4.4501,-4.5111,-4.5706,-4.4238,-4.3108,-4.308,-4.4182,-4.5313,-4.6237,-4.739,-4.8567,-4.962,-4.7791,-4.706,-4.7971,-4.7869,-4.6971,-4.5342,-4.5489,-4.4643,-4.2824,-4.2162,-4.1663,-4.1357,-4.1357,-4.1732,-4.2356,-4.2356,-4.2356,-4.23,-4.1631,-4.1802,-4.2413,-4.1631,-4.1357,-4.1357,-4.1357,-4.1357,-4.1357,-4.1242,-4.1184,-4.1184,-4.1184,-4.1148,-4.1004,-4.0535,-4.0319,-4.0018,-3.908,-3.8779,-3.8611,-3.8106,-3.7986,-3.7962,-3.7914,-3.7132,-3.6386,-3.6326,-3.5533,-3.4775,-3.4775,-3.4354,-3.397,-3.3922,-3.3152,-3.231,-3.1789,-3.1705,-3.1705,-3.1705,-3.1765,-3.1597,-3.1067,-3.1428,-3.1488,-3.097,-3.0398,-2.9857,-2.9328,-2.9304,-2.9268,-2.9208,-2.9208,-2.9436,-2.9893,-2.9965,-3.0001,-3.0001,-3.0062,-3.0086,-3.0098,-3.0567,-3.047,-2.9682,0.0,0.0,0.0,-3.0582,-3.1874,-3.4399,-3.4835,-3.527,-3.7201,-3.8304,-3.9131,-3.977,-4.0641,-4.1352,0.0,-4.2745,-4.3674,-4.395,-4.4501,-4.4803,-4.4464,-4.3114,-4.2473,-4.3191,-4.4647,-4.5641,-4.5801,-4.7765,-4.8902,-4.8738,-4.7805,-4.7177,-4.7023,-4.6399,-4.5661,-4.4752,-4.4222,-4.33,-4.2162,-4.1765,-4.1447,-4.1184,-4.1184,-4.1402,-4.1745,-4.1745,-4.1745,-4.1745,-4.1344,-4.1402,-4.1688,-4.1357,-4.1184,-4.1184,-4.1184,-4.1184,-4.1184,-4.1184,-4.1184,-4.1184,-4.1184,-4.1184,-4.1148,-4.092,-4.0643,-4.0234,-3.9489,-3.9056,-3.8695,-3.813,-3.7986,-3.7986,-3.7986,-3.7409,-3.6783,-3.6471,-3.5809,-3.5147,-3.4847,-3.4595,-3.4354,-3.4042,-3.3634,-3.3116,-3.2274,-3.191,-3.1705,-3.1705,-3.1994,-3.1937,-3.144,-3.1296,-3.1043,-3.0458,-3.0218,-2.9989,-2.9773,-2.9761,-2.9761,-2.9761,-2.9761,-2.9857,-3.0086,-3.0086,-3.0242,-3.0585,-3.0585,-3.0742,-3.1043,-3.0958,-3.097,-3.0872,0.0,0.0,-3.2121,-3.3514,-3.4936,-3.5959,-3.6504,-3.7331,-3.9088,-3.9944,-4.0583,-4.125,-4.1773,0.0,-4.2092,-4.3166,-4.3921,-4.3747,-4.4385,-4.4556,-4.3686,-4.2385,-4.1985,-4.3028,-4.4308,-4.5087,-4.5023,-4.6891,-4.7855,-4.735,-4.7146,-4.6712,-4.586,-4.5395,-4.4711,-4.3852,-4.3381,-4.2669,-4.1732,-4.1732,-4.1573,-4.1184,-4.1184,-4.1184,-4.1184,-4.1184,-4.1184,-4.1184,-4.1184,-4.1184,-4.1184,-4.1184,-4.1184,-4.1184,-4.1184,-4.1184,-4.1184,-4.1184,-4.1184,-4.1184,-4.1184,-4.1184,-4.1184,-4.1184,-4.092,-4.0475,-3.9789,-3.9333,-3.8876,-3.8166,-3.7986,-3.7986,-3.7986,-3.7577,-3.7084,-3.6699,-3.6086,-3.5509,-3.5124,-3.4883,-3.4667,-3.4282,-3.409,-3.3694,-3.2851,-3.225,-3.1886,-3.1729,-3.2022,-3.2118,-3.1753,-3.1235,-3.0766,-3.0338,-3.017,-3.0086,-3.0086,-3.0086,-3.0158,-3.0302,-3.017,-3.0218,-3.0561,-3.0386,-3.0567,-3.1139,-3.1139,-3.1332,-3.1705,-3.1308,-3.1259,0.0,0.0,-3.2727,-3.4008,-3.4835,-3.5857,-3.7694,-3.813,-3.8507,-3.9813,-4.0597,-4.1265,-4.1947,-4.2092,-4.2092,-4.2092,-4.3166,-4.3761,-4.3108,-4.4095,-4.4676,-4.4037,-4.2244,-4.1226,0.0,-4.214,-4.2743,-4.3679,-4.388,-4.4427,-4.5516,-4.509,-4.4778,-4.4724,-4.5714,-4.5235,-4.3085,-4.4097,-4.3768,-4.2098,-4.2098,-4.1757,-4.1184,-4.1184,-4.1184,-4.1184,-4.1184,-4.1184,-4.1184,-4.1184,-4.1184,-4.1184,-4.1184,-4.1184,-4.1184,-4.1184,-4.1184,-4.1184,-4.1184,-4.1184,-4.1184,-4.1184,-4.1184,-4.1184,-4.1184,-4.1172,-4.0944,-3.9898,-3.9597,-3.9333,-3.8262,-3.7986,-3.7986,-3.7986,-3.7577,-3.7192,-3.7168,-3.635,-3.5617,-3.5593,-3.5172,-3.4775,-3.4763,-3.433,-3.3826,-3.3344,-3.2815,-3.2286,-3.1777,-3.1717,-3.1729,-3.1705,-3.1235,-3.091,-3.0898,-3.0386,-3.0086,-3.0086,-3.0086,-3.0314,-3.0874,-3.0362,-3.0567,-3.1633,-3.1151,-3.1151,-3.1681,-3.1681,-3.1693,-3.1705,-3.1693,-3.1416,0.0,0.0,-3.4603,-3.5459,-3.6794,-3.8086,-3.8725,-3.9175,-3.9581,-4.0002,-3.9958,-3.99,-4.0133,-4.0495,-4.0771,-4.0771,-4.2586,-4.3761,-4.3079,-4.4081,-4.4268,-4.2593,-4.156,0.0,0.0,0.0,0.0,-4.2626,-4.4073,-4.4766,-4.44,-4.4557,-4.4683,-4.4683,-4.4302,-4.4139,-4.4152,-4.378,-4.3073,-4.211,-4.17,-4.1414,-4.1184,-4.1184,-4.1184,-4.1184,-4.1184,-4.1184,-4.1184,-4.1184,-4.1184,-4.1184,-4.1184,-4.1184,-4.1184,-4.1184,-4.1184,-4.1184,-4.1184,-4.1184,-4.1184,-4.1184,-4.1184,-4.1184,-4.1184,-4.1184,-4.104,-4.0331,-3.9874,-3.9441,-3.8719,-3.8262,-3.7986,-3.7986,-3.7841,-3.7613,-3.7276,-3.6639,-3.6038,-3.5689,-3.5196,-3.4775,-3.4775,-3.4631,-3.427,-3.3416,-3.2527,-3.1922,-3.1729,-3.1705,-3.1705,-3.1705,-3.1548,-3.1296,-3.0946,-3.0711,-3.0458,-3.011,-3.041,-3.073,-3.091,-3.0742,-3.0983,-3.1693,-3.1187,-3.1324,-3.2214,-3.2214,-3.2214,-3.2214,-3.1886,-3.1609,0.0,-3.4095,-3.6002,-3.707,-3.8101,-3.8913,-3.9146,-3.9305,-3.9421,-3.9421,-3.8942,-3.8594,-3.8797,-3.8797,-3.9044,-3.9944,-4.17,-4.2836,-4.2496,-4.3386,-4.3277,-4.126,-4.049,0.0,0.0,0.0,0.0,-4.1273,-4.2957,-4.3691,-4.2977,-4.4037,-4.452,-4.4097,-4.378,-4.378,-4.4097,-4.3351,-4.2762,-4.2199,-4.1528,-4.1242,-4.1344,-4.1242,-4.1184,-4.1184,-4.1184,-4.1184,-4.1184,-4.1184,-4.1184,-4.1184,-4.1184,-4.1184,-4.1184,-4.1184,-4.1184,-4.1184,-4.1184,-4.1184,-4.1184,-4.1184,-4.1184,-4.1184,-4.1184,-4.1184,-4.1076,-4.0547,-4.0018,-3.9489,-3.896,-3.8395,-3.7986,-3.7986,-3.7986,-3.789,-3.7553,-3.6904,-3.6302,-3.5966,-3.5316,-3.4775,-3.4775,-3.4619,-3.427,-3.3657,-3.2647,-3.1934,-3.1729,-3.1705,-3.1705,-3.1705,-3.1705,-3.1573,-3.1235,-3.1199,-3.1055,-3.0675,-3.1019,-3.1199,-3.1199,-3.1199,-3.1452,-3.1994,-3.1625,-3.1889,-3.2791,-3.2599,-3.2503,-3.2491,-3.197,-3.1705,-3.3949,-3.5444,-3.6881,-3.8696,-3.8696,-3.8405,-3.9015,-3.8638,-3.8144,-3.8072,-3.7549,-3.7259,0.0,0.0,-3.7056,-3.9509,-4.0612,-4.1227,-4.1477,-4.2121,-4.1917,0.0,0.0,0.0,0.0,0.0,0.0,-3.9647,0.0,-4.1288,-4.1288,-4.3424,-4.4097,-4.303,-4.4042,-4.4097,-4.303,-4.2974,-4.2806,-4.2469,-4.1631,-4.1344,-4.1606,-4.1344,-4.1184,-4.1184,-4.1184,-4.1184,-4.1184,-4.1184,-4.1184,-4.1184,-4.1184,-4.1184,-4.1184,-4.1184,-4.1184,-4.1184,-4.1184,-4.1184,-4.1184,-4.1184,-4.1184,-4.1184,-4.1184,-4.1184,-4.1076,-4.0571,-4.0054,-3.9525,-3.8996,-3.8443,-3.8022,-3.7986,-3.7986,-3.7986,-3.7986,-3.7168,-3.6435,-3.6411,-3.5557,-3.4775,-3.4775,-3.4366,-3.4018,-3.3994,-3.3188,-3.2346,-3.1825,-3.1729,-3.1705,-3.1705,-3.1705,-3.1705,-3.1705,-3.1705,-3.1705,-3.1705,-3.1741,-3.1753,-3.1753,-3.1753,-3.1985,-3.2575,-3.2551,-3.2803,-3.332,-3.2815,-3.2551,-3.2491,-3.1994,-3.1741,-3.4753,-3.6751,-3.8463,-3.8463,-3.8696,-3.8855,-3.8536,-3.797,-3.7259,-3.6322,-3.5247,-3.4196,0.0,0.0,0.0,-3.7099,-3.9842,0.0,-4.1548,-4.2441,0.0,0.0,0.0,-3.9712,-3.9104,-3.8969,0.0,0.0,-4.0714,-4.1288,-4.1288,-4.2646,-4.3295,-4.303,-4.3295,-4.3295,-4.2974,-4.275,-4.2581,-4.2469,-4.1846,-4.1549,-4.1606,-4.1344,-4.1184,-4.1184,-4.1184,-4.1184,-4.1184,-4.1184,-4.1184,-4.1184,-4.1184,-4.1184,-4.1184,-4.1184,-4.1184,-4.1184,-4.1184,-4.1184,-4.1184,-4.1184,-4.1184,-4.1184,-4.1184,-4.1184,-4.1148,-4.1016,-4.0595,-4.0066,-3.9549,-3.9008,-3.8503,-3.8082,-3.7986,-3.7986,-3.7986,-3.7457,-3.6879,-3.6483,-3.5557,-3.4775,-3.4775,-3.4667,-3.445,-3.4054,-3.3489,-3.2899,-3.2358,-3.197,-3.1705,-3.1705,-3.1705,-3.1705,-3.1705,-3.1705,-3.1705,-3.1705,-3.2058,-3.2286,-3.2286,-3.2286,-3.2719,-3.3586,-3.3272,-3.3344,-3.3802,-3.3658,-3.3248,-3.2503,-3.2358,-3.207,-3.5901,-3.7462,-3.8667,-3.8289,-3.8478,-3.8449,-3.723,-3.6693,-3.5851,-3.3736,-3.2501,0.0,0.0,0.0,0.0,0.0,0.0,0.0,-4.0808,-4.1698,-4.1569,0.0,-3.9514,0.0,-3.8969,-3.9094,-3.9358,0.0,-4.0714,-4.1288,-4.1288,-4.2384,-4.2974,-4.2974,-4.2974,-4.2974,-4.2974,-4.2694,-4.2581,-4.2694,-4.213,-4.1789,-4.1789,-4.1504,-4.1287,-4.1184,0.0,-4.1184,-4.1184,-4.1184,-4.1184,-4.1184,-4.1184,-4.1184,-4.1184,-4.1184,-4.1184,-4.1184,-4.1184,-4.1184,-4.1184,-4.1184,-4.1184,-4.1184,-4.1184,-4.1184,-4.1184,-4.1184,-4.08,-4.0282,-3.9741,-3.9212,-3.8671,-3.8118,-3.7986,-3.7986,-3.7986,-3.7565,-3.6964,-3.6206,-3.5581,-3.51,-3.4823,-3.4775,-3.4679,-3.439,-3.3945,-3.3428,-3.2911,-3.2199,-3.1705,-3.1705,-3.1705,-3.1705,-3.1705,-3.1705,-3.1705,-3.1705,-3.1961,-3.213,-3.213,-3.237,-3.2767,-3.331,-3.3308,-3.3428,-3.3705,-3.3477,-3.3068,-3.2491,-3.225,-3.1973,-3.707,-3.781,-3.8202,-3.8202,-3.8144,-3.7607,-3.5813,-3.5203,-3.4128,-3.099,0.0,0.0,-2.9218,0.0,-3.1527,-3.4753,0.0,-3.9156,-3.972,-4.0421,-4.0366,-3.9032,-3.8931,-3.9032,-3.9032,-3.9421,-3.9697,-3.9697,-4.0651,-4.1213,-4.1288,-4.2384,-4.2974,-4.2974,-4.2974,-4.2974,-4.2974,-4.2694,-4.2694,-4.2974,-4.2425,-4.2155,-4.2155,-4.1789,-4.1447,-4.1242,0.0,0.0,-4.1184,-4.1184,-4.1184,-4.1184,-4.1184,-4.1184,-4.1184,-4.1184,-4.1184,-4.1184,-4.1184,-4.1184,-4.1184,-4.1184,-4.1184,-4.1184,-4.1184,-4.1184,-4.1184,-4.1184,-4.0848,-4.0367,-3.9765,-3.926,-3.8755,-3.813,-3.7986,-3.7986,-3.7986,-3.7565,-3.6904,-3.5918,-3.5665,-3.5449,-3.4871,-3.4775,-3.4775,-3.4775,-3.433,-3.3838,-3.3452,-3.2442,-3.1789,-3.1717,-3.1705,-3.1705,-3.1705,-3.1705,-3.1705,-3.1705,-3.1705,-3.1705,-3.1705,-3.213,-3.243,-3.2503,-3.2947,-3.3188,-3.3188,-3.2719,-3.2466,-3.2382,-3.1934,-3.1705,-3.7709,-3.813,-3.8202,-3.8202,-3.7839,-3.7099,-3.5712,-3.4153,0.0,0.0,0.0,-2.7273,-2.7273,-2.8652,0.0,-3.4051,0.0,0.0,0.0,0.0,-3.9794,0.0,0.0,0.0,0.0,0.0,0.0,0.0,0.0,0.0,-4.1263,-4.2384,-4.2974,-4.2974,-4.2974,-4.2974,-4.2974,-4.2918,-4.2918,-4.2974,-4.2581,-4.2413,-4.2413,-4.1834,-4.1549,-4.1492,0.0,0.0,-4.1184,-4.1184,-4.1184,-4.1184,-4.1184,-4.1184,-4.1184,-4.1184,-4.1184,-4.1184,-4.1184,-4.1184,-4.1184,-4.1184,-4.1184,-4.1184,-4.1184,-4.1184,-4.1184,-4.1184,-4.1124,-4.0824,-3.9862,-3.9537,-3.9212,-3.8214,-3.7986,-3.7986,-3.7986,-3.7565,-3.7012,-3.6386,-3.5918,-3.5449,-3.4871,-3.4775,-3.4775,-3.4775,-3.433,-3.3958,-3.3874,-3.3008,-3.2178,-3.1765,-3.1705,-3.1705,-3.1705,-3.1705,-3.1705,-3.1705,-3.1705,-3.1705,-3.1705,-3.1801,-3.2034,-3.2491,-3.2587,-3.2635,-3.2635,-3.2551,-3.2262,-3.1849,-3.1753,-3.1705,-3.7578,-3.797,-3.813,-3.781,-3.7259,-3.6098,-3.3503,0.0,0.0,0.0,0.0,-2.5284,-2.5284,0.0,0.0,0.0,0.0,0.0,0.0,0.0,0.0,0.0,0.0,0.0,0.0,0.0,0.0,0.0,0.0,0.0,0.0,-4.2384,-4.2974,-4.2974,-4.2974,-4.2974,-4.2974,-4.2974,-4.2974,-4.2974,-4.2862,-4.2694,-4.2469,-4.2174,-4.1891,-4.1606,0.0,0.0,-4.1184,-4.1184,-4.1184,-4.1184,-4.1184,-4.1184,-4.1184,-4.1184,-4.1184,-4.1184,-4.1184,-4.1184,-4.1184,-4.1184,-4.1184,-4.1184,-4.1184,-4.1184,-4.1184,-4.1184,-4.1184,-4.0944,-3.9886,-3.9609,-3.9333,-3.8238,-3.7986,-3.7986,-3.7986,-3.7781,-3.7445,-3.6916,-3.6386,-3.5857,-3.5328,-3.4955,-3.4775,-3.4775,-3.457,-3.4306,-3.403,-3.3562,-3.2996,-3.2178,-3.1886,-3.1705,-3.1705,-3.1705,-3.1705,-3.1705,-3.1705,-3.1705,-3.1705,-3.1705,-3.1837,-3.2058,-3.207,-3.207,-3.207,-3.207,-3.1925,-3.1705,-3.1705,-3.1705,-3.7259,-3.7738,-3.8057,-3.7462,-3.6707,-3.514,-3.1455,-2.9871,0.0,0.0,0.0,0.0,0.0,0.0,0.0,0.0,0.0,0.0,0.0,0.0,0.0,0.0,0.0,0.0,0.0,0.0,0.0,0.0,0.0,0.0,0.0,-4.2271,-4.2798,-4.2798,-4.2924,-4.2974,-4.2974,-4.2974,-4.2974,-4.2974,-4.2974,-4.2806,-4.2513,-4.2289,-4.1958,-4.1424,0.0,0.0,0.0,-4.0968,-4.1016,-4.1028,-4.1136,-4.1184,-4.1184,-4.1184,-4.1184,-4.1184,-4.1184,-4.1184,-4.1184,-4.1184,-4.1184,-4.1184,-4.1184,-4.1184,-4.1184,-4.1184,-4.1184,-4.0944,-3.9886,-3.9609,-3.9333,-3.8238,-3.7986,-3.7986,-3.7986,-3.7986,-3.7829,-3.7288,-3.6771,-3.6242,-3.5713,-3.5172,-3.4775,-3.4775,-3.4775,-3.4631,-3.421,-3.4066,-3.3682,-3.2923,-3.2238,-3.1886,-3.1886,-3.1777,-3.1705,-3.1705,-3.1705,-3.1705,-3.1705,-3.1705,-3.1705,-3.1705,-3.1705,-3.1705,-3.1705,-3.1705,-3.1705,-3.1705,-3.1705,-3.1705,-3.7179,-3.7738,-3.8057,-3.7462,-3.6373,-3.4622,-3.1353,0.0,0.0,0.0,-2.3426,-2.336,-2.4505,0.0,0.0,0.0,0.0,0.0,0.0,0.0,0.0,0.0,0.0,0.0,0.0,0.0,0.0,0.0,0.0,0.0,0.0,-4.1907,-4.2288,-4.2288,-4.2778,-4.2974,-4.2974,-4.2974,-4.2974,-4.2974,-4.2974,-4.2806,-4.2457,-4.175,-4.1181,-4.0852,0.0,0.0,0.0,-4.027,-4.0463,-4.0511,-4.0992,-4.1184,-4.1184,-4.1184,-4.1184,-4.1184,-4.1184,-4.1184,-4.1184,-4.1184,-4.1184,-4.1184,-4.1184,-4.1184,-4.1184,-4.1184,-4.1184,-4.0944,-3.9886,-3.9609,-3.9333,-3.8238,-3.7986,-3.7986,-3.7986,-3.7986,-3.7829,-3.7288,-3.6771,-3.6242,-3.5713,-3.5172,-3.4775,-3.4775,-3.4775,-3.4763,-3.4715,-3.4294,-3.3958,-3.3862,-3.302,-3.243,-3.243,-3.1961,-3.1705,-3.1705,-3.1705,-3.1705,-3.1705,-3.1705,-3.1705,-3.1705,-3.1705,-3.1705,-3.1705,-3.1705,-3.1705,-3.1705,-3.1705,-3.1705,-3.5936,-3.6591,-3.691,-3.6286,-3.5203,-3.3416,-3.0191,0.0,0.0,-2.3824,-2.3099,-2.3047,-2.3554,0.0,0.0,0.0,0.0,0.0,0.0,0.0,0.0,0.0,0.0,0.0,0.0,0.0,0.0,0.0,0.0,0.0,0.0,0.0,-4.1668,-4.1668,-4.1882,-4.1995,-4.1995,-4.1995,-4.1995,-4.1995,-4.1995,-4.194,-4.1763,-4.1278,-4.0905,0.0,0.0,0.0,0.0,-4.0174,-4.0391,-4.0451,-4.098,-4.1184,-4.1184,-4.1184,-4.1184,-4.1184,-4.1184,-4.1184,-4.1184,-4.1184,-4.1184,-4.1184,-4.1184,-4.1184,-4.1184,-4.1184,-4.0956,-4.0535,-3.9789,-3.9116,-3.8515,-3.8082,-3.7986,-3.7986,-3.7986,-3.7986,-3.7926,-3.7709,-3.6988,-3.6338,-3.6134,-3.5388,-3.4775,-3.4775,-3.4775,-3.4775,-3.4775,-3.4595,-3.4462,-3.4462,-3.3585,-3.2971,-3.2971,-3.2478,-3.2166,-3.2166,-3.1898,-3.1705,-3.1705,-3.1705,-3.1705,-3.1705,-3.1705,-3.1705,-3.1705,-3.1705,-3.1705,-3.1705,-3.1705,-3.1705,-3.5103,-3.5892,-3.627,-3.5799,-3.4448,-3.2428,0.0,0.0,-2.5821,-2.3403,-2.2888,-2.2888,-2.2888,-2.3287,0.0,0.0,0.0,0.0,0.0,0.0,0.0,0.0,0.0,0.0,0.0,0.0,0.0,0.0,0.0,0.0,0.0,0.0,-4.0874,-4.1037,-4.12,-4.1288,-4.1288,-4.1288,-4.1288,-4.1288,-4.1288,-4.1288,-4.1168,-4.0832,-4.05,0.0,0.0,0.0,0.0,-4.0002,-4.0258,-4.0451,-4.098,-4.1184,-4.1172,-4.1004,-4.1052,-4.116,-4.1004,-4.1052,-4.1184,-4.1184,-4.1184,-4.1184,-4.1184,-4.1184,-4.1184,-4.1184,-4.0691,-4.0042,-3.9513,-3.8683,-3.7986,-3.7986,-3.7986,-3.7986,-3.7986,-3.7986,-3.7986,-3.7986,-3.7132,-3.6411,-3.6411,-3.5533,-3.4775,-3.4775,-3.4775,-3.4775,-3.4775,-3.4775,-3.4775,-3.4775,-3.4186,-3.3681,-3.3525,-3.2887,-3.2503,-3.2503,-3.2018,-3.1705,-3.1705,-3.1705,-3.1705,-3.1705,-3.1705,-3.1705,-3.1705,-3.1705,-3.1705,-3.1705,-3.1705,-3.1705,-3.5156,-3.6082,-3.6529,-3.6336,-3.4399,-3.1845,0.0,-2.7212,-2.5255,-2.3293,-2.2888,-2.2888,-2.2888,-2.2902,-2.2769,0.0,0.0,0.0,0.0,0.0,0.0,0.0,0.0,0.0,0.0,0.0,0.0,0.0,0.0,0.0,0.0,0.0,-3.9961,-4.0513,-4.1,-4.1288,-4.1288,-4.1288,-4.1288,-4.1288,-4.1288,-4.1168,-4.0873,-4.0326,0.0,0.0,0.0,0.0,0.0,-3.949,-3.9922,-4.0451,-4.098,-4.1184,-4.1124,-4.0595,-4.0727,-4.1112,-4.0583,-4.0739,-4.1184,-4.1184,-4.1184,-4.1184,-4.1184,-4.1184,-4.1184,-4.1184,-4.0427,-3.9489,-3.896,-3.8407,-3.7986,-3.7986,-3.7986,-3.7986,-3.7986,-3.7986,-3.7986,-3.7986,-3.7132,-3.6411,-3.6411,-3.5533,-3.4775,-3.4775,-3.4775,-3.4775,-3.4775,-3.4775,-3.4775,-3.4775,-3.4775,-3.4546,-3.403,-3.3092,-3.2503,-3.2503,-3.2018,-3.1705,-3.1705,-3.1705,-3.1705,-3.1705,-3.1705,-3.1705,-3.1705,-3.1705,-3.1705,-3.1705,-3.1705,-3.1705,-3.0939,-3.18,-3.2382,-3.1369,-3.0495,-2.9334,-2.7212,-2.6253,-2.5241,-2.3293,-2.2888,-2.2797,-2.2486,-2.2417,-2.2764,-2.3811,0.0,0.0,0.0,0.0,0.0,0.0,0.0,0.0,0.0,0.0,0.0,0.0,0.0,0.0,0.0,0.0,0.0,-3.9948,-4.0124,-4.0212,-4.0212,-4.0212,-4.0212,-4.0212,-4.0212,-4.0159,-4.0055,0.0,0.0,0.0,0.0,0.0,0.0,-3.9876,-4.0246,-4.0451,-4.098,-4.1184,-4.116,-4.0992,-4.104,-4.116,-4.0992,-4.104,-4.1184,-4.1184,-4.1184,-4.1112,-4.0751,-4.0896,-4.104,-4.0306,-3.9609,-3.8936,-3.8383,-3.8118,-3.7986,-3.7986,-3.7986,-3.7986,-3.7986,-3.7986,-3.7986,-3.7986,-3.7421,-3.6831,-3.6471,-3.5821,-3.5244,-3.4835,-3.4775,-3.4775,-3.4775,-3.4775,-3.4775,-3.4775,-3.4775,-3.4715,-3.4546,-3.3898,-3.3404,-3.3056,-3.2527,-3.207,-3.1729,-3.1705,-3.1705,-3.1705,-3.1705,-3.1705,-3.1705,-3.1705,-3.1705,-3.1705,-3.1705,-3.1705,0.0,-2.9604,-2.9987,-2.9289,-2.8548,-2.7605,-2.6137,-2.544,-2.4675,-2.3192,-2.2752,-2.2555,-2.2254,-2.203,-2.2204,-2.3085,0.0,0.0,0.0,0.0,0.0,0.0,0.0,0.0,0.0,0.0,0.0,0.0,0.0,0.0,0.0,0.0,0.0,-3.9057,-3.9471,-3.9697,-3.9697,-3.9697,-3.9697,-3.9697,-3.9594,-3.953,-3.9542,0.0,0.0,0.0,0.0,0.0,0.0,-4.0226,-4.0511,-4.0727,-4.1052,-4.1184,-4.116,-4.0956,-4.1016,-4.1148,-4.0956,-4.1016,-4.1148,-4.0944,-4.0751,-4.0523,-4.0198,-4.0331,-4.0415,-3.9549,-3.9068,-3.8695,-3.813,-3.7986,-3.7986,-3.7986,-3.7986,-3.7986,-3.7986,-3.7986,-3.7986,-3.7986,-3.7553,-3.7024,-3.6495,-3.5966,-3.5437,-3.4859,-3.4775,-3.4775,-3.4775,-3.4775,-3.4775,-3.4775,-3.4775,-3.4775,-3.4775,-3.4294,-3.3862,-3.3585,-3.2899,-3.2346,-3.2042,-3.1825,-3.1705,-3.1705,-3.1705,-3.1705,-3.1705,-3.1705,-3.1705,-3.1705,-3.1705,-3.1825,0.0,-2.8838,-2.8895,-2.9228,-2.795,-2.6428,-2.5734,-2.4728,0.0,-2.2995,-2.2486,-2.2198,-2.2147,-2.1712,-2.1204,0.0,0.0,0.0,0.0,0.0,0.0,0.0,0.0,0.0,0.0,0.0,0.0,0.0,0.0,0.0,0.0,0.0,0.0,0.0,-3.9032,-3.9572,-3.9572,-3.9572,-3.9572,-3.9572,-3.9314,-3.9223,-3.9272,0.0,0.0,0.0,0.0,0.0,0.0,-4.0407,-4.0631,-4.1076,-4.1076,-4.1076,-4.1016,-4.0523,-4.0643,-4.1004,-4.0511,-4.0667,-4.0992,-4.0499,-3.9982,-3.9549,-3.9549,-3.9549,-3.9453,-3.896,-3.8791,-3.8635,-3.8118,-3.7986,-3.7986,-3.7986,-3.7986,-3.7986,-3.7986,-3.7986,-3.7986,-3.7986,-3.7589,-3.7072,-3.6507,-3.6002,-3.5485,-3.4871,-3.4775,-3.4775,-3.4775,-3.4775,-3.4775,-3.4775,-3.4775,-3.4775,-3.4775,-3.433,-3.403,-3.3994,-3.3104,-3.2539,-3.2503,-3.1961,-3.1705,-3.1705,-3.1705,-3.1705,-3.1705,-3.1705,-3.1705,-3.1705,-3.1753,-3.201,-2.394,0.0,-2.5958,-2.4926,-2.4616,-2.4399,0.0,-2.376,-2.3609,-2.2568,0.0,0.0,-2.1668,0.0,0.0,0.0,0.0,0.0,0.0,0.0,0.0,0.0,0.0,0.0,0.0,0.0,0.0,0.0,0.0,0.0,0.0,0.0,0.0,0.0,-3.8266,-3.8404,-3.8404,-3.8404,-3.8404,-3.8404,-3.8354,-3.8529,0.0,0.0,0.0,0.0,0.0,0.0,0.0,-3.9551,-3.9862,-3.9982,-3.9982,-3.9982,-3.9958,-3.9838,-3.9874,-3.9958,-3.9838,-3.9874,-3.9958,-3.9838,-3.9441,-3.9008,-3.9008,-3.9008,-3.8972,-3.8852,-3.8503,-3.8154,-3.801,-3.7986,-3.7986,-3.7986,-3.7986,-3.7986,-3.7986,-3.7986,-3.7986,-3.7986,-3.7878,-3.7505,-3.6567,-3.6302,-3.5905,-3.4919,-3.4775,-3.4775,-3.4775,-3.4775,-3.4775,-3.4775,-3.4775,-3.4775,-3.4775,-3.4667,-3.4426,-3.4018,-3.3452,-3.2923,-3.2515,-3.1961,-3.1705,-3.1705,-3.1705,-3.1705,-3.1705,-3.1705,-3.1705,-3.1717,-3.2106,-3.237,-2.2149,-2.3273,-2.4263,-2.3722,-2.3745,-2.3789,-2.3432,0.0,0.0,0.0,0.0,0.0,0.0,0.0,0.0,0.0,0.0,0.0,0.0,0.0,0.0,0.0,0.0,0.0,0.0,0.0,0.0,0.0,0.0,0.0,0.0,0.0,0.0,0.0,0.0,-3.7751,-3.8002,-3.8266,-3.8404,-3.8404,-3.8554,-3.8792,0.0,0.0,0.0,0.0,0.0,0.0,-3.8633,-3.905,-3.9393,-3.9609,-3.9609,-3.9609,-3.9609,-3.9609,-3.9609,-3.9609,-3.9609,-3.9453,-3.9248,-3.9248,-3.8876,-3.8431,-3.8431,-3.8431,-3.8431,-3.8431,-3.8214,-3.7986,-3.7986,-3.7986,-3.7986,-3.7986,-3.7986,-3.7986,-3.7986,-3.7986,-3.7986,-3.7986,-3.7781,-3.736,-3.6543,-3.6206,-3.5761,-3.4907,-3.4775,-3.4775,-3.4775,-3.4775,-3.4775,-3.4775,-3.4775,-3.4775,-3.4775,-3.4775,-3.4667,-3.4366,-3.3921,-3.3513,-3.3212,-3.2454,-3.1925,-3.1717,-3.1705,-3.1705,-3.1705,-3.1705,-3.1837,-3.2058,-3.2358,-3.2755,-2.1749,-2.2475,-2.3274,-2.379,-2.3894,-2.3838,-2.3667,0.0,0.0,0.0,0.0,0.0,0.0,0.0,0.0,0.0,0.0,0.0,0.0,0.0,0.0,0.0,0.0,0.0,0.0,0.0,0.0,0.0,0.0,0.0,0.0,0.0,0.0,0.0,0.0,0.0,-3.7877,-3.8454,-3.8743,-3.8743,-3.9003,-3.9162,-3.921,-3.9079,0.0,0.0,0.0,0.0,-3.8575,-3.8659,-3.896,-3.9357,-3.9357,-3.9357,-3.9357,-3.9357,-3.9357,-3.9357,-3.9357,-3.9068,-3.8695,-3.8695,-3.8371,-3.7986,-3.7986,-3.7986,-3.7986,-3.7986,-3.7986,-3.7986,-3.7986,-3.7986,-3.7986,-3.7986,-3.7986,-3.7986,-3.7986,-3.7986,-3.7986,-3.7986,-3.7553,-3.7024,-3.6495,-3.5966,-3.5437,-3.4859,-3.4775,-3.4775,-3.4775,-3.4775,-3.4775,-3.4775,-3.4775,-3.4775,-3.4775,-3.4775,-3.4775,-3.4775,-3.4282,-3.3958,-3.3886,-3.3008,-3.2286,-3.1849,-3.1753,-3.1705,-3.1705,-3.1705,-3.1946,-3.2382,-3.2539,-3.3092,-2.1941,-2.2411,-2.248,-2.2585,-2.3259,-2.3652,-2.2686,0.0,0.0,0.0,0.0,0.0,0.0,0.0,0.0,0.0,0.0,0.0,0.0,0.0,0.0,0.0,0.0,0.0,0.0,0.0,0.0,0.0,0.0,0.0,0.0,0.0,0.0,0.0,0.0,0.0,0.0,-3.7864,-3.814,-3.814,-3.8178,-3.8467,-3.8943,-3.8405,-3.8148,0.0,0.0,0.0,-3.7481,-3.7926,-3.8154,-3.8226,-3.8226,-3.8226,-3.8226,-3.8226,-3.8226,-3.8226,-3.8226,-3.8178,-3.8106,-3.8106,-3.8046,-3.7986,-3.7986,-3.7986,-3.7986,-3.7986,-3.7986,-3.7986,-3.7986,-3.7986,-3.7986,-3.7986,-3.7986,-3.7986,-3.7986,-3.7986,-3.7986,-3.7986,-3.7553,-3.7024,-3.6495,-3.5966,-3.5437,-3.4859,-3.4775,-3.4775,-3.4775,-3.4775,-3.4775,-3.4775,-3.4775,-3.4775,-3.4775,-3.4775,-3.4775,-3.4775,-3.4282,-3.3802,-3.3416,-3.2815,-3.2466,-3.237,-3.1946,-3.1705,-3.1705,-3.1705,-3.1753,-3.1862,-3.2731,-3.326,-2.0708,-2.1597,-2.2191,-2.1808,-2.2828,-2.3749,-2.2937,0.0,0.0,0.0,0.0,0.0,0.0,0.0,0.0,0.0,0.0,0.0,0.0,0.0,0.0,0.0,0.0,0.0,0.0,0.0,0.0,0.0,0.0,0.0,0.0,0.0,0.0,0.0,0.0,0.0,0.0,-3.7575,-3.8165,-3.8479,-3.8781,-3.9057,-3.932,-3.8898,-3.8582,0.0,0.0,-3.7629,-3.7424,-3.7509,-3.7721,-3.7986,-3.7986,-3.7986,-3.7986,-3.7986,-3.7986,-3.7986,-3.7986,-3.7986,-3.7986,-3.7986,-3.7986,-3.7986,-3.7986,-3.7986,-3.7986,-3.7986,-3.7986,-3.7986,-3.7986,-3.7986,-3.7986,-3.7986,-3.7986,-3.7986,-3.7986,-3.7986,-3.789,-3.7613,-3.7132,-3.6603,-3.6074,-3.5533,-3.5063,-3.4823,-3.4775,-3.4775,-3.4775,-3.4775,-3.4775,-3.4775,-3.4775,-3.4775,-3.4775,-3.4775,-3.4775,-3.4775,-3.4546,-3.4186,-3.3717,-3.32,-3.2791,-3.2515,-3.1949,-3.1705,-3.1705,-3.1705,-3.2006,-3.2596,-3.3056,-3.3585,-2.006,-2.098,-2.1765,-2.1216,0.0,-2.3702,-2.342,0.0,0.0,0.0,0.0,0.0,0.0,0.0,0.0,0.0,0.0,0.0,0.0,0.0,0.0,0.0,0.0,0.0,0.0,0.0,0.0,0.0,0.0,0.0,0.0,0.0,0.0,0.0,0.0,0.0,0.0,-3.7387,-3.8027,-3.8529,-3.9032,-3.9244,-3.9193,-3.8937,-3.8547,-3.8049,-3.7526,-3.7321,-3.7333,-3.7248,-3.7433,-3.7805,-3.7938,-3.7986,-3.7986,-3.7986,-3.7986,-3.7986,-3.7986,-3.7986,-3.7986,-3.7986,-3.7986,-3.7986,-3.7986,-3.7986,-3.7986,-3.7986,-3.7986,-3.7986,-3.7986,-3.7986,-3.7986,-3.7986,-3.7986,-3.7986,-3.7986,-3.789,-3.7673,-3.7276,-3.6663,-3.6086,-3.5689,-3.5172,-3.4775,-3.4775,-3.4775,-3.4775,-3.4775,-3.4775,-3.4775,-3.4775,-3.4775,-3.4775,-3.4775,-3.4775,-3.4775,-3.4775,-3.4775,-3.4595,-3.4198,-3.3621,-3.3104,-3.2695,-3.2066,-3.1777,-3.191,-3.191,-3.2346,-3.3284,-3.3404,-3.3885,-2.1367,-2.1139,-2.0716,-2.072,0.0,0.0,-2.3749,-2.3454,0.0,0.0,0.0,0.0,0.0,0.0,0.0,0.0,0.0,0.0,0.0,0.0,0.0,0.0,0.0,0.0,0.0,0.0,0.0,0.0,0.0,0.0,0.0,0.0,0.0,0.0,0.0,0.0,0.0,0.0,-3.7262,-3.7312,-3.7864,-3.7966,-3.7767,-3.7492,-3.7166,-3.6927,-3.6611,-3.6509,-3.6495,-3.6988,-3.7216,-3.73,-3.7793,-3.7986,-3.7986,-3.7986,-3.7986,-3.7986,-3.7986,-3.7986,-3.7986,-3.7986,-3.7986,-3.7986,-3.7986,-3.7986,-3.7986,-3.7986,-3.7986,-3.7986,-3.7986,-3.7986,-3.7986,-3.7986,-3.7986,-3.7986,-3.7986,-3.7601,-3.724,-3.7204,-3.6374,-3.5665,-3.5629,-3.5172,-3.4775,-3.4775,-3.4775,-3.4775,-3.4775,-3.4775,-3.4775,-3.4775,-3.4775,-3.4775,-3.4775,-3.4775,-3.4775,-3.4775,-3.4775,-3.4763,-3.4727,-3.3813,-3.3272,-3.3236,-3.2247,-3.1925,-3.2442,-3.2442,-3.2731,-3.3296,-3.3765,-3.3982,-2.0433,-2.0595,-2.0615,-2.0191,0.0,0.0,0.0,0.0,0.0,0.0,0.0,0.0,0.0,0.0,0.0,0.0,0.0,0.0,0.0,0.0,0.0,0.0,0.0,0.0,0.0,0.0,0.0,0.0,0.0,0.0,0.0,0.0,0.0,0.0,0.0,0.0,0.0,0.0,-3.6496,-3.6182,-3.7412,-3.7854,-3.7593,-3.7506,-3.7318,-3.7068,-3.6765,-3.6664,-3.6626,-3.6678,-3.6699,-3.6723,-3.6928,-3.7204,-3.7493,-3.7493,-3.7697,-3.7986,-3.7986,-3.7986,-3.7986,-3.7986,-3.7986,-3.7986,-3.7986,-3.7986,-3.7986,-3.7986,-3.7986,-3.7986,-3.7986,-3.7986,-3.7986,-3.7986,-3.7986,-3.789,-3.7565,-3.7336,-3.7,-3.6338,-3.5893,-3.5509,-3.5184,-3.4907,-3.4775,-3.4775,-3.4775,-3.4775,-3.4775,-3.4775,-3.4775,-3.4775,-3.4775,-3.4775,-3.4775,-3.4775,-3.4775,-3.4775,-3.4775,-3.4775,-3.4775,-3.3837,-3.3284,-3.3284,-3.2271,-3.1813,-3.1985,-3.2334,-3.2767,-3.3308,-3.3754,-3.4162,-1.991,-2.0111,-2.0345,0.0,0.0,0.0,0.0,0.0,0.0,0.0,0.0,0.0,0.0,0.0,0.0,0.0,0.0,0.0,0.0,0.0,0.0,0.0,0.0,0.0,0.0,0.0,0.0,0.0,0.0,0.0,0.0,0.0,0.0,0.0,0.0,0.0,0.0,0.0,-3.6169,-3.5818,-3.6948,-3.7341,-3.7096,-3.6998,-3.685,-3.6615,-3.6317,-3.6156,-3.618,-3.6136,-3.6254,-3.6411,-3.6411,-3.6627,-3.694,-3.694,-3.7168,-3.7481,-3.7481,-3.7481,-3.7505,-3.7685,-3.7733,-3.7757,-3.7938,-3.7986,-3.7986,-3.7986,-3.7986,-3.7986,-3.7986,-3.7986,-3.7986,-3.7986,-3.7853,-3.7637,-3.7276,-3.6928,-3.6483,-3.5761,-3.5485,-3.5256,-3.4847,-3.4775,-3.4775,-3.4775,-3.4775,-3.4775,-3.4775,-3.4775,-3.4775,-3.4775,-3.4775,-3.4775,-3.4775,-3.4775,-3.4775,-3.4775,-3.4775,-3.4775,-3.4775,-3.3837,-3.3284,-3.3284,-3.2271,-3.1789,-3.1925,-3.231,-3.2851,-3.3537,-3.3838,-3.4282,-2.022,-1.9853,0.0,0.0,0.0,0.0,0.0,0.0,0.0,0.0,0.0,0.0,0.0,0.0,0.0,0.0,0.0,0.0,0.0,0.0,0.0,0.0,0.0,0.0,0.0,0.0,0.0,0.0,0.0,0.0,0.0,0.0,0.0,0.0,0.0,0.0,0.0,0.0,-3.6392,-3.6392,-3.6392,-3.6263,-3.5968,-3.5716,-3.5476,-3.5175,-3.4932,-3.4775,-3.4823,-3.5388,-3.5918,-3.6386,-3.6386,-3.6386,-3.6398,-3.6398,-3.6398,-3.6411,-3.6411,-3.6411,-3.6495,-3.7012,-3.718,-3.7276,-3.7805,-3.7962,-3.7962,-3.7962,-3.7962,-3.7962,-3.7962,-3.7962,-3.7974,-3.7974,-3.7565,-3.718,-3.718,-3.6362,-3.5617,-3.5605,-3.5184,-3.4775,-3.4775,-3.4775,-3.4775,-3.4775,-3.4775,-3.4775,-3.4775,-3.4775,-3.4775,-3.4775,-3.4775,-3.4775,-3.4775,-3.4775,-3.4775,-3.4775,-3.4775,-3.4775,-3.4775,-3.3837,-3.3284,-3.3284,-3.2259,-3.1982,-3.2491,-3.2503,-3.3032,-3.3982,-3.3994,-3.4282,-1.9488,0.0,0.0,0.0,0.0,0.0,0.0,0.0,0.0,0.0,0.0,0.0,0.0,0.0,0.0,0.0,0.0,0.0,0.0,0.0,0.0,0.0,0.0,0.0,0.0,0.0,0.0,0.0,0.0,0.0,0.0,0.0,0.0,0.0,0.0,0.0,0.0,0.0,-3.5203,-3.5203,-3.5203,-3.5478,-3.6015,-3.592,-3.562,-3.5223,-3.5126,-3.4981,-3.4799,-3.4943,-3.5148,-3.5292,-3.5292,-3.5521,-3.5857,-3.5857,-3.6086,-3.6411,-3.6411,-3.6411,-3.6435,-3.6591,-3.6639,-3.6663,-3.6819,-3.6867,-3.6867,-3.6867,-3.6867,-3.6867,-3.6867,-3.6867,-3.6964,-3.7336,-3.7024,-3.6531,-3.617,-3.5833,-3.5509,-3.5087,-3.4895,-3.4775,-3.4775,-3.4775,-3.4775,-3.4775,-3.4775,-3.4775,-3.4775,-3.4775,-3.4775,-3.4775,-3.4775,-3.4775,-3.4775,-3.4775,-3.4775,-3.4775,-3.4775,-3.4619,-3.4246,-3.3633,-3.3116,-3.2743,-3.2034,-3.1789,-3.1958,-3.231,-3.2851,-3.3525,-3.3826,-3.4282,-1.9494,0.0,0.0,0.0,0.0,0.0,0.0,0.0,0.0,0.0,0.0,0.0,0.0,0.0,0.0,0.0,0.0,0.0,0.0,0.0,0.0,0.0,0.0,0.0,0.0,0.0,0.0,0.0,0.0,0.0,0.0,0.0,0.0,0.0,0.0,0.0,0.0,0.0,0.0,-3.468,-3.468,-3.4986,-3.5497,-3.531,-3.5139,-3.5015,-3.5029,-3.4932,-3.4775,-3.4775,-3.4775,-3.4775,-3.4775,-3.4979,-3.5304,-3.5304,-3.5509,-3.5773,-3.5773,-3.5773,-3.5809,-3.6026,-3.6086,-3.6134,-3.6338,-3.6411,-3.6411,-3.6411,-3.6411,-3.6411,-3.6411,-3.6242,-3.623,-3.6747,-3.6471,-3.6002,-3.5689,-3.5449,-3.5208,-3.4847,-3.4775,-3.4775,-3.4775,-3.4775,-3.4775,-3.4775,-3.4775,-3.4775,-3.4775,-3.4775,-3.4775,-3.4775,-3.4775,-3.4775,-3.4775,-3.4775,-3.4775,-3.4775,-3.4775,-3.4499,-3.3765,-3.3452,-3.3044,-3.2515,-3.1949,-3.1705,-3.1705,-3.201,-3.2442,-3.2984,-3.3501,-3.4018,0.0,0.0,0.0,0.0,0.0,0.0,0.0,0.0,0.0,0.0,0.0,0.0,0.0,0.0,0.0,0.0,0.0,0.0,0.0,0.0,0.0,0.0,0.0,0.0,0.0,0.0,0.0,0.0,0.0,0.0,0.0,0.0,0.0,0.0,0.0,0.0,0.0,0.0,0.0,0.0,-3.4575,-3.4575,-3.453,-3.4222,-3.4327,-3.4713,-3.4715,-3.4691,-3.4643,-3.4643,-3.4715,-3.4715,-3.4715,-3.4739,-3.4775,-3.4775,-3.4775,-3.4775,-3.4775,-3.4775,-3.4859,-3.5388,-3.5545,-3.5629,-3.611,-3.6266,-3.6266,-3.6266,-3.6266,-3.6266,-3.6266,-3.5905,-3.5665,-3.6146,-3.5893,-3.5545,-3.5545,-3.5111,-3.4775,-3.4775,-3.4775,-3.4775,-3.4775,-3.4775,-3.4775,-3.4775,-3.4775,-3.4775,-3.4775,-3.4775,-3.4775,-3.4775,-3.4775,-3.4775,-3.4775,-3.4775,-3.4775,-3.4775,-3.4775,-3.4366,-3.3332,-3.3284,-3.3008,-3.243,-3.197,-3.1705,-3.1705,-3.1705,-3.1994,-3.2515,-3.2996,-3.3513,0.0,0.0,0.0,0.0,0.0,0.0,0.0,0.0,0.0,0.0,0.0,0.0,0.0,0.0,0.0,0.0,0.0,0.0,0.0,0.0,0.0,0.0,0.0,0.0,0.0,0.0,0.0,0.0,0.0,0.0,0.0,0.0,0.0,0.0,0.0,0.0,-3.3257,-3.337,-3.3432,0.0,-3.3432,-3.3432,-3.3458,-3.419,-3.4425,-3.4136,-3.3969,-3.3796,-3.3621,-3.3621,-3.3849,-3.4162,-3.4162,-3.4414,-3.4775,-3.4775,-3.4775,-3.4775,-3.4775,-3.4775,-3.4799,-3.4907,-3.4955,-3.4967,-3.5087,-3.5111,-3.5111,-3.5111,-3.5111,-3.5111,-3.5111,-3.5088,-3.4979,-3.5148,-3.5088,-3.4955,-3.4955,-3.4859,-3.4775,-3.4775,-3.4775,-3.4775,-3.4775,-3.4775,-3.4775,-3.4775,-3.4775,-3.4775,-3.4775,-3.4775,-3.4775,-3.4775,-3.4775,-3.4775,-3.4775,-3.4775,-3.4775,-3.4775,-3.4775,-3.4366,-3.3332,-3.3284,-3.2827,-3.191,-3.1765,-3.1705,-3.1705,-3.1705,-3.1994,-3.2503,-3.2623,-3.3164,0.0,0.0,0.0,0.0,0.0,0.0,0.0,0.0,0.0,0.0,0.0,0.0,0.0,0.0,0.0,0.0,0.0,0.0,0.0,0.0,0.0,0.0,0.0,0.0,0.0,0.0,0.0,0.0,0.0,0.0,0.0,0.0,0.0,0.0,0.0,0.0,-3.2265,-3.2265,-3.2265,-3.2277,-3.2469,-3.2603,-3.2804,-3.3714,-3.3876,-3.3448,-3.3567,-3.3504,-3.3284,-3.3284,-3.344,-3.3681,-3.3681,-3.3946,-3.4402,-3.4402,-3.4558,-3.4775,-3.4775,-3.4775,-3.4775,-3.4775,-3.4775,-3.4775,-3.4775,-3.4775,-3.4775,-3.4775,-3.4775,-3.4775,-3.4775,-3.4775,-3.4775,-3.4775,-3.4775,-3.4775,-3.4775,-3.4775,-3.4775,-3.4775,-3.4775,-3.4775,-3.4775,-3.4775,-3.4775,-3.4775,-3.4775,-3.4775,-3.4775,-3.4775,-3.4775,-3.4775,-3.4775,-3.4775,-3.4775,-3.4775,-3.4775,-3.4775,-3.4546,-3.4102,-3.332,-3.3044,-3.2515,-3.1729,-3.1705,-3.1705,-3.1705,-3.1705,-3.1862,-3.2106,-3.2382,-3.2791,0.0,0.0,0.0,0.0,0.0,0.0,0.0,0.0,0.0,0.0,0.0,0.0,0.0,0.0,0.0,0.0,0.0,0.0,0.0,0.0,0.0,0.0,0.0,0.0,0.0,0.0,0.0,0.0,0.0,0.0,0.0,0.0,0.0,0.0,0.0,-3.1386,-3.1386,-3.1386,-3.1386,-3.1399,-3.1697,-3.196,-3.2216,-3.2909,-3.3042,-3.2674,-3.3111,-3.3225,-3.3008,-3.3008,-3.3068,-3.3152,-3.3152,-3.3464,-3.3862,-3.3862,-3.4198,-3.4643,-3.4643,-3.4703,-3.4775,-3.4775,-3.4775,-3.4775,-3.4775,-3.4775,-3.4775,-3.4775,-3.4775,-3.4775,-3.4775,-3.4775,-3.4775,-3.4775,-3.4775,-3.4775,-3.4775,-3.4775,-3.4775,-3.4775,-3.4775,-3.4775,-3.4775,-3.4775,-3.4775,-3.4775,-3.4775,-3.4775,-3.4775,-3.4775,-3.4751,-3.4655,-3.4643,-3.4607,-3.4571,-3.4559,-3.4559,-3.4559,-3.4102,-3.3681,-3.3176,-3.2731,-3.2238,-3.1717,-3.1705,-3.1705,-3.1705,-3.1705,-3.1705,-3.1717,-3.2142,-3.2406,0.0,0.0,0.0,0.0,0.0,0.0,0.0,0.0,0.0,0.0,0.0,0.0,0.0,0.0,0.0,0.0,0.0,0.0,0.0,0.0,0.0,0.0,0.0,0.0,0.0,0.0,0.0,0.0,0.0,0.0,0.0,0.0,0.0,-3.1386,-3.1386,0.0,-3.1386,-3.1386,-3.1386,-3.1386,-3.1474,-3.1385,-3.1278,-3.1866,-3.2118,-3.2103,-3.2176,-3.2111,-3.1922,-3.1922,-3.2166,-3.2611,-3.2611,-3.2923,-3.3392,-3.3392,-3.3717,-3.4102,-3.4102,-3.439,-3.4775,-3.4775,-3.4775,-3.4775,-3.4775,-3.4775,-3.4775,-3.4775,-3.4775,-3.4775,-3.4775,-3.4775,-3.4775,-3.4775,-3.4775,-3.4775,-3.4775,-3.4775,-3.4775,-3.4775,-3.4775,-3.4775,-3.4775,-3.4775,-3.4775,-3.4775,-3.4775,-3.4775,-3.4775,-3.4775,-3.4607,-3.415,-3.4102,-3.3922,-3.3537,-3.3501,-3.3501,-3.3501,-3.3428,-3.3152,-3.2623,-3.2539,-3.2238,-3.1717,-3.1705,-3.1705,-3.1705,-3.1705,-3.1705,-3.1705,-3.1789,-3.2034,0.0,0.0,0.0,0.0,0.0,0.0,0.0,0.0,0.0,0.0,0.0,0.0,0.0,0.0,0.0,0.0,0.0,0.0,0.0,0.0,0.0,0.0,0.0,0.0,0.0,0.0,0.0,0.0,0.0,0.0,0.0,-3.0495,-3.0495,-3.0495,-3.0495,0.0,-3.0495,-3.0495,-3.0593,-3.072,-3.072,-3.076,-3.0877,-3.0999,-3.1235,-3.1576,-3.1848,-3.1893,-3.1705,-3.1705,-3.1849,-3.2034,-3.2034,-3.237,-3.2851,-3.2851,-3.3176,-3.3621,-3.3621,-3.391,-3.4342,-3.4342,-3.4534,-3.4775,-3.4775,-3.4775,-3.4775,-3.4775,-3.4775,-3.4775,-3.4775,-3.4775,-3.4775,-3.4775,-3.4775,-3.4775,-3.4775,-3.4775,-3.4775,-3.4775,-3.4775,-3.4775,-3.4775,-3.4775,-3.4775,-3.4775,-3.4775,-3.4775,-3.4775,-3.4775,-3.457,-3.4054,-3.3994,-3.379,-3.3332,-3.3284,-3.3284,-3.3284,-3.3008,-3.2743,-3.2515,-3.2202,-3.1958,-3.1717,-3.1705,-3.1705,-3.1705,-3.1705,-3.1705,-3.1705,-3.1705,-3.1837,0.0,0.0,0.0,0.0,0.0,0.0,0.0,0.0,0.0,0.0,0.0,0.0,0.0,0.0,0.0,0.0,0.0,0.0,0.0,0.0,0.0,0.0,0.0,0.0,0.0,0.0,0.0,0.0,0.0,0.0,0.0,-2.9365,-2.9365,-2.9365,-2.9503,-2.9578,-2.9578,-2.9716,-2.9902,-3.0079,-3.0079,-3.0183,-3.0294,-3.0289,-3.0433,-3.0737,-3.1295,-3.1523,-3.1512,-3.1512,-3.1585,-3.1705,-3.1705,-3.1925,-3.2286,-3.2286,-3.2635,-3.3092,-3.3092,-3.3416,-3.3826,-3.3946,-3.4258,-3.4607,-3.4739,-3.4775,-3.4775,-3.4775,-3.4775,-3.4775,-3.4775,-3.4775,-3.4775,-3.4775,-3.4775,-3.4775,-3.4775,-3.4775,-3.4775,-3.4775,-3.4775,-3.4775,-3.4775,-3.4775,-3.4775,-3.4775,-3.4775,-3.4775,-3.4775,-3.4667,-3.4378,-3.3862,-3.3682,-3.344,-3.2911,-3.2875,-3.2875,-3.2875,-3.2503,-3.2286,-3.2286,-3.1934,-3.1705,-3.1705,-3.1705,-3.1705,-3.1705,-3.1705,-3.1705,-3.1705,-3.1705,-3.1705,0.0,0.0,0.0,0.0,0.0,0.0,0.0,0.0,0.0,0.0,0.0,0.0,0.0,0.0,0.0,0.0,0.0,0.0,0.0,0.0,0.0,0.0,0.0,0.0,0.0,0.0,0.0,0.0,0.0,0.0,-2.8197,-2.8197,-2.8197,-2.8197,-2.8662,-2.8938,-2.8938,-2.9515,-2.9804,-2.9829,-2.9829,-2.9596,-2.919,-2.9705,-2.9719,-2.9412,-2.9983,-3.0501,-3.0958,-3.0958,-3.1259,-3.1705,-3.1705,-3.1729,-3.1753,-3.1753,-3.2058,-3.2539,-3.2539,-3.2887,-3.3404,-3.3838,-3.4006,-3.4126,-3.4631,-3.4775,-3.4775,-3.4775,-3.4775,-3.4775,-3.4775,-3.4775,-3.4775,-3.4775,-3.4775,-3.4775,-3.4775,-3.4775,-3.4775,-3.4775,-3.4775,-3.4775,-3.4775,-3.4775,-3.4775,-3.4775,-3.4775,-3.4775,-3.4775,-3.4342,-3.3838,-3.338,-3.2875,-3.2358,-3.1837,-3.1789,-3.1789,-3.1789,-3.1765,-3.1753,-3.1753,-3.1717,-3.1705,-3.1705,-3.1705,-3.1705,-3.1705,-3.1705,-3.1705,-3.1705,-3.1705,-3.1705,0.0,0.0,0.0,0.0,0.0,0.0,0.0,0.0,0.0,0.0,0.0,0.0,0.0,0.0,0.0,0.0,0.0,0.0,0.0,0.0,0.0,0.0,0.0,0.0,0.0,0.0,0.0,0.0,0.0,0.0,-2.8109,-2.8109,-2.8109,-2.8109,-2.8298,-2.8398,-2.8398,-2.8612,-2.8888,-2.9239,-2.9239,-2.9351,-2.9546,-2.9458,-2.9307,-2.9159,-2.9113,-2.9569,-3.0374,-3.0374,-3.0718,-3.1199,-3.1199,-3.1404,-3.1705,-3.1705,-3.1837,-3.2006,-3.2006,-3.2322,-3.2815,-3.2996,-3.3454,-3.403,-3.4222,-3.451,-3.4775,-3.4775,-3.4775,-3.4775,-3.4775,-3.4775,-3.4775,-3.4775,-3.4775,-3.4775,-3.4775,-3.4775,-3.4775,-3.4775,-3.4775,-3.4775,-3.4775,-3.4775,-3.4775,-3.4775,-3.4486,-3.4282,-3.4282,-3.3873,-3.3356,-3.2839,-3.2611,-3.2274,-3.1753,-3.1705,-3.1705,-3.1705,-3.1705,-3.1705,-3.1705,-3.1705,-3.1705,-3.1705,-3.1705,-3.1705,-3.1705,-3.1705,-3.1705,-3.1705,-3.1705,-3.1705,-1.4569,0.0,0.0,0.0,0.0,0.0,0.0,0.0,0.0,0.0,0.0,0.0,0.0,0.0,0.0,0.0,0.0,0.0,0.0,0.0,0.0,0.0,0.0,0.0,0.0,0.0,0.0,0.0,0.0,0.0,-2.7557,-2.7557,-2.7645,-2.7821,-2.7821,-2.7921,-2.8109,-2.8109,-2.8285,-2.8612,-2.88,-2.905,-2.9388,-2.924,-2.9118,-2.8961,-2.8736,-2.9084,-2.9821,-2.9821,-3.0134,-3.0627,-3.085,-3.1139,-3.1464,-3.1645,-3.1705,-3.1705,-3.1705,-3.1946,-3.225,-3.2442,-3.2959,-3.3538,-3.3886,-3.4234,-3.4546,-3.4727,-3.4775,-3.4775,-3.4775,-3.4775,-3.4775,-3.4775,-3.4775,-3.4775,-3.4775,-3.4775,-3.4775,-3.4775,-3.4775,-3.4775,-3.4775,-3.4775,-3.4775,-3.4775,-3.433,-3.3994,-3.3994,-3.344,-3.2887,-3.2539,-3.2334,-3.207,-3.1741,-3.1705,-3.1705,-3.1705,-3.1705,-3.1705,-3.1705,-3.1705,-3.1705,-3.1705,-3.1705,-3.1705,-3.1705,-3.1705,-3.1705,-3.1705,-3.1705,-3.1705,0.0,0.0,0.0,0.0,0.0,0.0,0.0,0.0,0.0,0.0,0.0,0.0,0.0,0.0,0.0,0.0,0.0,0.0,0.0,0.0,0.0,0.0,0.0,0.0,0.0,0.0,0.0,0.0,0.0,-2.6499,-2.6499,-2.6499,-2.6738,-2.7278,-2.7291,-2.7519,-2.8047,-2.8059,-2.8059,-2.8084,-2.8587,-2.8762,-2.8599,-2.9145,-2.916,-2.8779,-2.8791,-2.8987,-2.928,-2.928,-2.9593,-3.0122,-3.0627,-3.0855,-3.0983,-3.1488,-3.1693,-3.1705,-3.1705,-3.1705,-3.1801,-3.2298,-3.2491,-3.2683,-3.3646,-3.397,-3.4102,-3.4619,-3.4763,-3.4775,-3.4775,-3.4775,-3.4775,-3.4775,-3.4775,-3.4775,-3.4775,-3.4775,-3.4775,-3.4775,-3.4775,-3.4775,-3.4775,-3.4763,-3.4763,-3.4763,-3.4294,-3.3946,-3.3946,-3.3104,-3.2478,-3.2478,-3.1985,-3.1705,-3.1705,-3.1705,-3.1705,-3.1705,-3.1705,-3.1705,-3.1705,-3.1705,-3.1705,-3.1705,-3.1705,-3.1705,-3.1705,-3.1705,-3.1705,-3.1705,-3.1705,-3.1705,-1.3766,0.0,0.0,0.0,0.0,0.0,0.0,0.0,0.0,0.0,0.0,0.0,0.0,0.0,0.0,0.0,0.0,0.0,0.0,0.0,0.0,0.0,0.0,0.0,0.0,0.0,0.0,0.0,0.0,-2.6499,-2.6499,-2.6499,-2.6562,-2.6713,-2.6725,-2.6801,-2.6952,-2.6952,-2.7153,-2.7507,-2.7657,-2.7824,-2.8027,-2.8447,-2.8464,-2.8244,-2.8488,-2.8622,-2.8727,-2.8727,-2.9039,-2.9532,-2.9677,-3.0206,-3.0934,-3.1091,-3.138,-3.1705,-3.1705,-3.1705,-3.1729,-3.1886,-3.2166,-3.2551,-3.2839,-3.3394,-3.4018,-3.4162,-3.4486,-3.4775,-3.4775,-3.4775,-3.4775,-3.4775,-3.4775,-3.4775,-3.4775,-3.4775,-3.4775,-3.4775,-3.4775,-3.4775,-3.4775,-3.4462,-3.421,-3.421,-3.3501,-3.2923,-3.2923,-3.2322,-3.1934,-3.1934,-3.1801,-3.1705,-3.1705,-3.1705,-3.1705,-3.1705,-3.1705,-3.1705,-3.1705,-3.1705,-3.1705,-3.1705,-3.1705,-3.1705,-3.1705,-3.1705,-3.1705,-3.1705,-3.1705,-3.1705,-1.421,-1.4364,0.0,0.0,0.0,0.0,0.0,0.0,0.0,0.0,0.0,0.0,0.0,0.0,0.0,0.0,0.0,0.0,0.0,0.0,0.0,0.0,0.0,0.0,0.0,0.0,0.0,0.0,-2.5774,-2.5774,-2.5774,-2.5774,-2.5908,-2.6122,-2.6135,-2.6248,-2.6499,-2.6499,-2.6663,-2.6977,-2.7168,-2.7408,-2.7589,-2.7953,-2.7975,-2.7823,-2.8128,-2.8252,-2.8198,-2.8414,-2.8691,-2.8991,-2.9208,-2.9677,-3.0266,-3.0711,-3.1115,-3.1404,-3.1633,-3.1705,-3.1705,-3.1705,-3.1934,-3.2202,-3.243,-3.2923,-3.344,-3.3657,-3.3945,-3.4186,-3.4186,-3.4186,-3.4186,-3.4186,-3.4186,-3.4186,-3.4186,-3.4186,-3.4318,-3.4691,-3.4595,-3.445,-3.445,-3.4018,-3.3729,-3.3729,-3.3032,-3.2503,-3.2503,-3.201,-3.1705,-3.1705,-3.1705,-3.1705,-3.1705,-3.1705,-3.1705,-3.1705,-3.1705,-3.1705,-3.1705,-3.1705,-3.1705,-3.1705,-3.1705,-3.1705,-3.1705,-3.1705,-3.1705,-3.1705,-3.1705,-3.1705,-1.4948,-1.4828,-1.5223,0.0,0.0,0.0,0.0,-1.6254,0.0,0.0,0.0,0.0,0.0,0.0,0.0,0.0,0.0,0.0,0.0,0.0,0.0,0.0,0.0,0.0,0.0,0.0,0.0,-2.4788,-2.4788,-2.4788,-2.4788,-2.4788,-2.5034,-2.5498,-2.5511,-2.5787,-2.6386,-2.6399,-2.6436,-2.6499,-2.6954,-2.7157,-2.717,-2.7492,-2.752,-2.7348,-2.7723,-2.7811,-2.7726,-2.8222,-2.8462,-2.8558,-2.9027,-2.9244,-2.9412,-3.035,-3.0814,-3.0995,-3.1452,-3.1657,-3.1705,-3.1705,-3.1705,-3.1801,-3.2262,-3.2454,-3.2611,-3.314,-3.3284,-3.3284,-3.3284,-3.3284,-3.3284,-3.3284,-3.3284,-3.3284,-3.3284,-3.3284,-3.3561,-3.4487,-3.4234,-3.391,-3.391,-3.3537,-3.32,-3.32,-3.2743,-3.2406,-3.2406,-3.1973,-3.1705,-3.1705,-3.1705,-3.1705,-3.1705,-3.1705,-3.1705,-3.1705,-3.1705,-3.1705,-3.1705,-3.1705,-3.1705,-3.1705,-3.1705,-3.1705,-3.1705,-3.1705,-3.1705,-3.1705,-3.1705,-3.1705,-1.6002,-1.6279,-1.6505,-1.4828,0.0,0.0,0.0,-1.4563,0.0,0.0,0.0,0.0,0.0,0.0,0.0,0.0,0.0,0.0,0.0,0.0,0.0,0.0,0.0,0.0,0.0,0.0,0.0,-2.4788,-2.4788,-2.4788,-2.4788,-2.4788,-2.4838,-2.4938,-2.4938,-2.5222,-2.5762,-2.5774,-2.6034,-2.6499,-2.6439,-2.6315,-2.6188,-2.6539,-2.6554,-2.6396,-2.6914,-2.7332,-2.769,-2.7798,-2.8126,-2.8522,-2.8619,-2.8919,-2.9328,-2.9532,-3.0146,-3.0891,-3.1043,-3.1356,-3.1705,-3.1705,-3.1705,-3.1729,-3.1837,-3.2142,-3.2611,-3.314,-3.3284,-3.3284,-3.3284,-3.3284,-3.3284,-3.3284,-3.3284,-3.3284,-3.3284,-3.3284,-3.3356,-3.3549,-3.3501,-3.344,-3.344,-3.2996,-3.2659,-3.2659,-3.2178,-3.1874,-3.1874,-3.1777,-3.1705,-3.1705,-3.1705,-3.1705,-3.1705,-3.1705,-3.1705,-3.1705,-3.1705,-3.1705,-3.1705,-3.1705,-3.1705,-3.1705,-3.1705,-3.1705,-3.1705,-3.1705,-3.1705,-3.1705,-3.1705,-3.1705,-1.6726,-1.6887,-1.7134,-1.6015,0.0,0.0,0.0,0.0,0.0,0.0,0.0,0.0,0.0,0.0,0.0,0.0,0.0,0.0,0.0,0.0,0.0,0.0,0.0,0.0,0.0,0.0,-2.3647,-2.3935,-2.3948,-2.3948,-2.3948,-2.3948,-2.4086,-2.4406,-2.4406,-2.4669,-2.5209,-2.5209,-2.5485,-2.6059,-2.5936,-2.5949,-2.6027,-2.611,-2.6043,-2.5876,-2.6322,-2.6659,-2.6959,-2.75,-2.7846,-2.8138,-2.8414,-2.8679,-2.8931,-2.9208,-2.9797,-3.0518,-3.0826,-3.1259,-3.1705,-3.1705,-3.1705,-3.1705,-3.1705,-3.191,-3.2142,-3.2452,-3.2524,-3.2524,-3.2524,-3.2524,-3.2524,-3.2524,-3.2524,-3.2524,-3.2524,-3.2524,-3.2524,-3.2524,-3.2524,-3.2575,-3.2851,-3.2442,-3.2082,-3.2082,-3.1886,-3.1705,-3.1705,-3.1705,-3.1705,-3.1705,-3.1705,-3.1705,-3.1705,-3.1705,-3.1705,-3.1705,-3.1705,-3.1705,-3.1705,-3.1705,-3.1705,-3.1705,-3.1705,-3.1705,-3.1705,-3.1705,-3.1705,-3.1705,-3.1705,-3.1705,0.0,0.0,0.0,0.0,0.0,-1.6145,0.0,0.0,0.0,0.0,0.0,0.0,0.0,0.0,0.0,0.0,0.0,0.0,0.0,0.0,0.0,0.0,0.0,0.0,0.0,0.0,0.0,-2.2895,-2.2644,-2.2656,-2.3083,-2.3007,-2.3208,-2.3816,-2.3841,-2.4104,-2.4625,-2.4637,-2.4983,-2.5598,-2.5532,-2.5743,-2.6131,-2.5898,-2.5688,-2.556,-2.5841,-2.5997,-2.6166,-2.7043,-2.7498,-2.7738,-2.8306,-2.851,-2.8558,-2.8991,-2.9484,-2.9989,-3.0422,-3.1031,-3.156,-3.156,-3.1621,-3.1705,-3.1705,-3.1705,-3.1705,-3.1705,-3.1705,-3.1705,-3.1705,-3.1705,-3.1705,-3.1705,-3.1705,-3.1705,-3.1705,-3.1705,-3.1705,-3.1705,-3.1705,-3.1849,-3.2262,-3.2006,-3.1705,-3.1705,-3.1705,-3.1705,-3.1705,-3.1705,-3.1705,-3.1705,-3.1705,-3.1705,-3.1705,-3.1705,-3.1705,-3.1705,-3.1705,-3.1705,-3.1705,-3.1705,-3.1705,-3.1705,-3.1705,-3.1705,-3.1705,-3.1705,-3.1705,-3.1705,-3.1705,-3.1705,0.0,0.0,0.0,0.0,-1.7616,0.0,0.0,0.0,0.0,0.0,0.0,0.0,0.0,0.0,0.0,0.0,0.0,0.0,0.0,0.0,0.0,0.0,0.0,0.0,0.0,0.0,0.0,-2.2255,-2.1016,-2.1041,-2.2995,-2.2644,-2.2631,-2.3183,-2.3195,-2.3484,-2.4092,-2.4092,-2.4594,-2.5598,-2.5289,-2.5416,-2.591,-2.5535,-2.5347,-2.5347,-2.5372,-2.5661,-2.6105,-2.6226,-2.6851,-2.7738,-2.8306,-2.851,-2.8522,-2.8582,-2.8931,-2.94,-2.946,-3.0134,-3.1007,-3.1007,-3.1332,-3.1705,-3.1705,-3.1705,-3.1705,-3.1705,-3.1705,-3.1705,-3.1705,-3.1705,-3.1705,-3.1705,-3.1705,-3.1705,-3.1705,-3.1705,-3.1705,-3.1705,-3.1705,-3.1729,-3.1789,-3.1753,-3.1705,-3.1705,-3.1705,-3.1705,-3.1705,-3.1705,-3.1705,-3.1705,-3.1705,-3.1705,-3.1705,-3.1705,-3.1705,-3.1705,-3.1705,-3.1705,-3.1705,-3.1705,-3.1705,-3.1705,-3.1705,-3.1705,-3.1705,-3.1705,-3.1705,-3.1705,-3.1705,-3.1705,0.0,0.0,0.0,0.0,0.0,0.0,0.0,0.0,-1.4036,0.0,0.0,0.0,0.0,0.0,0.0,0.0,0.0,0.0,0.0,0.0,0.0,0.0,0.0,0.0,0.0,0.0,0.0,0.0,0.0,-2.0501,-2.2096,-2.2259,-2.2393,-2.2619,-2.2945,-2.3221,-2.3471,-2.3471,-2.3891,-2.4669,-2.4521,-2.4806,-2.5443,-2.5259,-2.5244,-2.5312,-2.5312,-2.5432,-2.5661,-2.5973,-2.637,-2.6863,-2.7717,-2.8246,-2.851,-2.851,-2.8847,-2.9304,-2.9304,-2.9785,-3.0513,-3.0814,-3.1271,-3.1705,-3.1705,-3.1705,-3.1705,-3.1705,-3.1705,-3.1705,-3.1705,-3.1705,-3.1705,-3.1705,-3.1705,-3.1705,-3.1705,-3.1705,-3.1705,-3.1705,-3.1705,-3.1705,-3.1705,-3.1705,-3.1705,-3.1705,-3.1705,-3.1705,-3.1705,-3.1705,-3.1705,-3.1705,-3.1705,-3.1705,-3.1705,-3.1705,-3.1705,-3.1705,-3.1705,-3.1705,-3.1705,-3.1705,-3.1705,-3.1705,-3.1705,-3.1705,-3.1705,-3.1705,-3.1705,-3.1705,-3.1705,-3.1705,-1.9886,0.0,0.0,0.0,0.0,0.0,0.0,0.0,0.0,0.0,0.0,0.0,0.0,0.0,0.0,0.0,0.0,0.0,0.0,0.0,0.0,0.0,0.0,0.0,0.0,0.0,0.0,0.0,0.0,0.0,-2.1207,-2.1493,-2.1832,-2.2297,-2.2669,-2.2945,-2.3108,-2.3047,-2.3366,-2.4004,-2.3898,-2.4313,-2.5099,-2.5031,-2.5107,-2.5312,-2.5312,-2.5312,-2.5336,-2.5721,-2.5852,-2.586,-2.6645,-2.737,-2.7977,-2.8371,-2.8751,-2.9088,-2.9088,-2.9424,-2.9977,-3.0694,-3.1175,-3.1524,-3.1669,-3.1705,-3.1705,-3.1705,-3.1705,-3.1705,-3.1705,-3.1705,-3.1705,-3.1705,-3.1705,-3.1705,-3.1705,-3.1705,-3.1705,-3.1705,-3.1705,-3.1705,-3.1705,-3.1705,-3.1705,-3.1705,-3.1705,-3.1705,-3.1705,-3.1705,-3.1705,-3.1705,-3.1705,-3.1705,-3.1705,-3.1705,-3.1705,-3.1705,-3.1705,-3.1705,-3.1705,-3.1705,-3.1705,-3.1705,-3.1705,-3.1705,-3.1705,-3.1705,-3.1705,-3.1705,-3.1705,-3.1705,0.0,0.0,0.0,-1.7285,0.0,0.0,0.0,0.0,-1.563,0.0,0.0,0.0,0.0,0.0,0.0,0.0,0.0,0.0,0.0,0.0,0.0,0.0,0.0,0.0,0.0,0.0,0.0,0.0,0.0,0.0,-2.0541,-2.0175,-2.0627,-2.2259,-2.2334,-2.2556,-2.3095,-2.2969,-2.3274,-2.4004,-2.3678,-2.4087,-2.5099,-2.4883,-2.4992,-2.5312,-2.5312,-2.5312,-2.5312,-2.5324,-2.5181,-2.4941,-2.4975,-2.562,-2.6706,-2.8028,-2.8522,-2.8534,-2.8534,-2.8883,-2.9496,-3.0585,-3.0922,-3.1043,-3.1548,-3.1705,-3.1705,-3.1705,-3.1705,-3.1705,-3.1705,-3.1705,-3.1705,-3.1705,-3.1705,-3.1705,-3.1705,-3.1705,-3.1705,-3.1705,-3.1705,-3.1705,-3.1705,-3.1705,-3.1705,-3.1705,-3.1705,-3.1705,-3.1705,-3.1705,-3.1705,-3.1705,-3.1705,-3.1705,-3.1705,-3.1705,-3.1705,-3.1705,-3.1705,-3.1705,-3.1705,-3.1705,-3.1705,-3.1705,-3.1705,-3.1705,-3.1705,-3.1705,-3.1705,-3.1705,-3.1705,-3.1705,0.0,0.0,-2.1131,-1.8441,0.0,0.0,0.0,0.0,0.0,0.0,0.0,0.0,0.0,0.0,0.0,0.0,0.0,0.0,0.0,0.0,0.0,0.0,0.0,0.0,0.0,0.0,0.0,0.0,0.0,0.0,0.0,-2.0087,-2.0666,-2.1232,-2.1933,-2.2397,-2.2556,-2.286,-2.3117,-2.3286,-2.3243,-2.3442,-2.3867,-2.4242,-2.4526,-2.4807,-2.5155,-2.5312,-2.5312,-2.5312,-2.5266,-2.5157,-2.4962,-2.5302,-2.5991,-2.6853,-2.7751,-2.851,-2.851,-2.8859,-2.9352,-2.9713,-3.0302,-3.0946,-3.1139,-3.1428,-3.156,-3.0869,-3.0722,-3.0543,-2.9886,-2.9704,-2.9886,-3.0543,-3.0722,-3.0722,-3.0722,-3.1238,-3.1516,-3.0824,-3.1238,-3.1705,-3.1705,-3.1705,-3.1705,-3.1705,-3.1705,-3.1705,-3.1705,-3.1705,-3.1705,-3.1705,-3.1705,-3.1705,-3.1705,-3.1705,-3.1705,-3.1705,-3.1705,-3.1705,-3.1705,-3.1705,-3.1705,-3.1705,-3.1705,-3.1705,-3.1705,-3.1705,-3.1705,-3.1705,-3.1705,-3.1705,-2.0797,-2.1173,0.0,0.0,-1.851,0.0,-1.5711,0.0,0.0,0.0,0.0,0.0,0.0,0.0,0.0,0.0,0.0,0.0,0.0,0.0,0.0,0.0,0.0,0.0,0.0,0.0,-1.5811,-1.6986,-1.6556,0.0,0.0,0.0,-2.0289,-2.0679,-2.1543,-2.2121,-2.2309,-2.2614,-2.28,-2.2909,-2.2939,-2.3071,-2.333,-2.366,-2.411,-2.4611,-2.4891,-2.5131,-2.5264,-2.4981,-2.4719,-2.4419,-2.3996,-2.4193,-2.487,-2.5706,-2.6697,-2.7539,-2.7539,-2.776,-2.8104,-2.8291,-2.8792,-2.9441,-2.9814,-3.0152,-3.031,-2.9795,-2.9658,-2.9521,-2.8866,-2.8958,-2.9383,-3.0022,-3.0453,-3.0722,-3.0722,-3.1238,-3.1528,-3.0869,-3.125,-3.1705,-3.1705,-3.1705,-3.1705,-3.1705,-3.1705,-3.1705,-3.1705,-3.1705,-3.1705,-3.1705,-3.1705,-3.1705,-3.1705,-3.1705,-3.1705,-3.1705,-3.1705,-3.1705,-3.1705,-3.1705,-3.1705,-3.1705,-3.1705,-3.1705,-3.1705,-3.1705,-3.1705,-3.1705,-3.1705,-3.1705]},{"header":{"parameterUnit":"m.s-1","parameterCategory":1,"la1":30.6,"la2":29.2853,"lo1":-89.7004,"lo2":-87.6739,"dy":0.0162,"dx":0.0183,"nx":112,"ny":82,"refTime":"2026-03-20T00:00:00:Z","depth":0,"parameterNumber":3,"parameterNumberName":"V-component_of_WINDS"},"data":[0.0,0.0,0.0,0.0,0.0,0.0,0.0,0.0,0.0,0.0,0.0,0.0,0.0,0.0,0.0,0.0,0.0,0.0,0.0,0.0,0.0,0.0,0.0,0.0,0.0,0.0,0.0,0.0,0.0,0.0,0.0,0.0,0.0,0.0,0.0,0.0,0.0,0.0,0.0,0.0,0.0,0.0,0.0,0.0,0.0,0.0,0.0,0.0,0.0,0.0,0.0,0.0,0.0,0.0,0.0,0.0,0.0,0.0,0.0,0.0,0.0,0.0,0.0,0.0,0.0,0.0,0.0,0.0,0.0,0.0,0.0,0.0,0.0,0.0,0.0,0.0,0.0,0.0,0.0,0.0,0.0,0.0,0.0,0.0,0.0,0.0,0.0,0.0,0.0,0.0,0.0,-2.6702,-2.9893,-3.1642,-3.1071,-3.0828,-2.9059,-2.5268,0.0,0.0,0.0,0.0,0.0,0.0,0.0,0.0,0.0,0.0,0.0,0.0,0.0,0.0,0.0,0.0,0.0,0.0,0.0,0.0,0.0,0.0,0.0,0.0,0.0,0.0,0.0,0.0,0.0,0.0,0.0,0.0,0.0,0.0,0.0,0.0,0.0,0.0,0.0,0.0,0.0,0.0,0.0,0.0,0.0,0.0,0.0,0.0,0.0,0.0,0.0,0.0,0.0,0.0,0.0,0.0,0.0,0.0,0.0,0.0,0.0,0.0,0.0,0.0,0.0,0.0,0.0,0.0,0.0,0.0,0.0,0.0,0.0,0.0,0.0,0.0,0.0,0.0,0.0,0.0,0.0,0.0,0.0,0.0,0.0,0.0,0.0,0.0,0.0,0.0,0.0,0.0,0.0,0.0,0.0,0.0,0.0,0.0,0.0,0.0,0.0,0.0,0.0,0.0,-2.5335,-3.0373,-3.2342,-3.3042,-3.2446,-3.1033,-2.8902,-2.5849,0.0,0.0,0.0,0.0,0.0,0.0,0.0,0.0,0.0,0.0,0.0,0.0,0.0,0.0,0.0,0.0,0.0,0.0,0.0,0.0,0.0,0.0,0.0,0.0,0.0,0.0,0.0,0.0,0.0,0.0,0.0,0.0,0.0,0.0,0.0,0.0,0.0,0.0,0.0,0.0,0.0,0.0,0.0,0.0,0.0,0.0,0.0,0.0,0.0,0.0,0.0,0.0,0.0,0.0,0.0,0.0,0.0,0.0,0.0,0.0,0.0,0.0,0.0,0.0,0.0,0.0,0.0,0.0,0.0,0.0,0.0,0.0,0.0,0.0,0.0,0.0,0.0,0.0,0.0,0.0,0.0,0.0,0.0,0.0,0.0,0.0,0.0,0.0,0.0,0.0,0.0,0.0,0.0,0.0,0.0,0.0,0.0,0.0,0.0,0.0,0.0,0.0,0.0,-2.4166,-2.7255,-3.181,-3.3077,-3.3352,-3.2738,-3.1079,-2.8873,-2.5976,-2.3874,0.0,0.0,0.0,0.0,0.0,0.0,0.0,0.0,0.0,0.0,0.0,0.0,0.0,0.0,0.0,0.0,0.0,0.0,0.0,0.0,0.0,0.0,0.0,0.0,0.0,0.0,0.0,0.0,0.0,0.0,0.0,0.0,0.0,0.0,0.0,0.0,0.0,0.0,0.0,0.0,0.0,0.0,0.0,0.0,0.0,0.0,0.0,0.0,0.0,0.0,0.0,0.0,0.0,0.0,0.0,0.0,0.0,0.0,0.0,0.0,0.0,0.0,0.0,0.0,0.0,0.0,0.0,0.0,0.0,0.0,0.0,0.0,0.0,0.0,0.0,0.0,0.0,0.0,0.0,0.0,0.0,0.0,0.0,0.0,0.0,0.0,0.0,0.0,0.0,0.0,0.0,0.0,0.0,0.0,0.0,0.0,0.0,0.0,0.0,0.0,0.0,0.0,-2.7288,-2.9278,-3.2359,-3.3234,-3.3352,-3.2738,-3.0869,-2.8573,-2.5963,-2.342,0.0,0.0,0.0,0.0,0.0,0.0,0.0,0.0,0.0,0.0,0.0,0.0,0.0,0.0,0.0,0.0,0.0,0.0,0.0,0.0,0.0,0.0,0.0,0.0,0.0,0.0,0.0,0.0,0.0,0.0,0.0,0.0,0.0,0.0,0.0,0.0,0.0,0.0,0.0,0.0,0.0,0.0,0.0,0.0,0.0,0.0,0.0,0.0,0.0,0.0,0.0,0.0,0.0,0.0,0.0,0.0,0.0,0.0,0.0,0.0,0.0,0.0,0.0,0.0,0.0,0.0,0.0,0.0,0.0,0.0,0.0,0.0,0.0,0.0,0.0,0.0,0.0,0.0,0.0,0.0,0.0,0.0,0.0,0.0,0.0,0.0,0.0,0.0,0.0,0.0,0.0,0.0,0.0,0.0,0.0,0.0,0.0,0.0,0.0,0.0,0.0,0.0,-2.7568,-3.0623,-3.2489,-3.3234,-3.3352,-3.2738,-3.0124,-2.7732,-2.591,-2.2676,0.0,0.0,0.0,0.0,0.0,0.0,0.0,0.0,0.0,0.0,0.0,0.0,0.0,0.0,0.0,0.0,0.0,0.0,0.0,0.0,0.0,0.0,0.0,0.0,0.0,0.0,0.0,0.0,0.0,0.0,0.0,0.0,0.0,0.0,0.0,0.0,0.0,0.0,0.0,0.0,0.0,0.0,0.0,0.0,0.0,0.0,0.0,0.0,0.0,0.0,0.0,0.0,0.0,0.0,0.0,0.0,0.0,0.0,0.0,0.0,0.0,0.0,0.0,0.0,0.0,0.0,0.0,0.0,0.0,0.0,0.0,0.0,0.0,0.0,0.0,0.0,0.0,0.0,0.0,0.0,0.0,0.0,0.0,0.0,0.0,0.0,0.0,0.0,0.0,0.0,0.0,0.0,0.0,0.0,0.0,0.0,0.0,0.0,0.0,0.0,0.0,0.0,-2.7,-2.9849,0.0,-3.2685,-3.279,-3.2176,-3.0189,-2.8046,-2.5923,0.0,0.0,0.0,0.0,0.0,0.0,0.0,0.0,0.0,0.0,0.0,0.0,0.0,0.0,0.0,0.0,0.0,0.0,0.0,0.0,0.0,0.0,0.0,0.0,0.0,0.0,0.0,0.0,0.0,0.0,0.0,0.0,0.0,0.0,0.0,0.0,0.0,0.0,0.0,0.0,0.0,0.0,0.0,0.0,0.0,0.0,0.0,0.0,0.0,0.0,0.0,0.0,0.0,0.0,0.0,0.0,0.0,0.0,0.0,0.0,0.0,0.0,0.0,0.0,0.0,0.0,0.0,0.0,0.0,0.0,0.0,0.0,0.0,0.0,0.0,0.0,0.0,0.0,0.0,0.0,0.0,0.0,0.0,0.0,0.0,0.0,0.0,0.0,0.0,0.0,0.0,0.0,0.0,0.0,0.0,0.0,0.0,0.0,0.0,0.0,0.0,0.0,-2.3639,-2.6935,-2.968,0.0,-3.215,-3.2267,-3.1836,-2.9758,-2.7661,-2.568,0.0,0.0,0.0,0.0,0.0,0.0,0.0,0.0,0.0,0.0,0.0,0.0,0.0,0.0,0.0,0.0,0.0,0.0,0.0,0.0,0.0,0.0,0.0,0.0,0.0,0.0,0.0,0.0,0.0,0.0,0.0,0.0,0.0,0.0,0.0,0.0,0.0,0.0,0.0,0.0,0.0,0.0,0.0,0.0,0.0,0.0,0.0,0.0,0.0,0.0,0.0,0.0,0.0,0.0,0.0,0.0,0.0,0.0,0.0,0.0,0.0,0.0,0.0,0.0,0.0,0.0,0.0,0.0,0.0,0.0,0.0,0.0,0.0,0.0,0.0,0.0,0.0,0.0,0.0,0.0,0.0,0.0,0.0,0.0,0.0,0.0,0.0,0.0,0.0,0.0,0.0,0.0,0.0,0.0,0.0,0.0,0.0,0.0,0.0,0.0,0.0,0.0,-2.3825,-2.7607,-3.0531,-3.1667,-3.1797,-3.1797,-3.1797,-2.8673,-2.6235,0.0,0.0,0.0,0.0,0.0,0.0,0.0,0.0,0.0,0.0,0.0,0.0,0.0,0.0,0.0,0.0,0.0,0.0,0.0,0.0,0.0,0.0,0.0,0.0,0.0,0.0,0.0,0.0,0.0,0.0,0.0,0.0,0.0,0.0,0.0,0.0,0.0,0.0,0.0,0.0,0.0,0.0,0.0,0.0,0.0,0.0,0.0,0.0,0.0,0.0,0.0,0.0,0.0,0.0,0.0,0.0,0.0,0.0,0.0,0.0,0.0,0.0,0.0,0.0,0.0,0.0,0.0,0.0,0.0,0.0,0.0,0.0,0.0,0.0,0.0,0.0,0.0,0.0,0.0,0.0,0.0,0.0,0.0,0.0,0.0,0.0,0.0,0.0,0.0,0.0,0.0,0.0,0.0,0.0,0.0,0.0,0.0,0.0,0.0,0.0,0.0,0.0,0.0,-2.439,-2.7889,-3.0388,-3.1156,-3.1562,-3.1641,-3.1274,-2.917,-2.7072,-2.5123,0.0,0.0,0.0,0.0,0.0,0.0,0.0,0.0,0.0,0.0,0.0,0.0,0.0,0.0,0.0,0.0,0.0,0.0,0.0,0.0,0.0,0.0,0.0,0.0,0.0,0.0,0.0,0.0,0.0,0.0,0.0,0.0,0.0,0.0,0.0,0.0,0.0,0.0,0.0,0.0,0.0,0.0,0.0,0.0,0.0,0.0,0.0,0.0,0.0,0.0,0.0,0.0,0.0,0.0,0.0,0.0,0.0,0.0,0.0,0.0,0.0,0.0,0.0,0.0,0.0,0.0,0.0,0.0,0.0,0.0,0.0,0.0,0.0,0.0,0.0,0.0,0.0,0.0,0.0,0.0,0.0,0.0,0.0,0.0,0.0,0.0,0.0,0.0,0.0,0.0,0.0,0.0,0.0,0.0,0.0,0.0,0.0,0.0,0.0,0.0,0.0,0.0,-2.4626,-2.7798,-3.0098,-3.0895,-3.13,-3.1365,-3.1013,-2.9379,-2.7439,-2.5136,0.0,0.0,0.0,0.0,0.0,0.0,0.0,0.0,0.0,0.0,0.0,0.0,0.0,0.0,0.0,0.0,0.0,0.0,0.0,0.0,0.0,0.0,0.0,0.0,0.0,0.0,0.0,0.0,0.0,0.0,0.0,0.0,0.0,0.0,0.0,0.0,0.0,0.0,0.0,0.0,0.0,0.0,0.0,0.0,0.0,0.0,0.0,0.0,0.0,0.0,0.0,0.0,0.0,0.0,0.0,0.0,0.0,0.0,0.0,0.0,0.0,0.0,0.0,0.0,0.0,0.0,0.0,0.0,0.0,0.0,0.0,0.0,0.0,0.0,0.0,0.0,0.0,0.0,0.0,0.0,0.0,0.0,0.0,0.0,0.0,0.0,0.0,0.0,0.0,0.0,0.0,0.0,0.0,0.0,0.0,0.0,0.0,0.0,0.0,0.0,0.0,0.0,-2.4704,-2.7556,-2.9755,-3.0856,-3.0986,-3.0986,-3.0986,-2.9379,-2.7478,-2.5293,0.0,0.0,0.0,0.0,0.0,0.0,0.0,0.0,0.0,0.0,0.0,0.0,0.0,0.0,0.0,0.0,0.0,0.0,0.0,0.0,0.0,0.0,0.0,0.0,0.0,0.0,0.0,0.0,0.0,0.0,0.0,0.0,0.0,0.0,0.0,0.0,0.0,0.0,0.0,0.0,0.0,0.0,0.0,0.0,0.0,0.0,0.0,0.0,0.0,0.0,0.0,0.0,0.0,0.0,0.0,0.0,0.0,0.0,0.0,0.0,-2.6736,0.0,0.0,0.0,0.0,0.0,0.0,0.0,0.0,0.0,0.0,0.0,0.0,0.0,0.0,0.0,0.0,0.0,0.0,0.0,0.0,0.0,0.0,0.0,0.0,0.0,0.0,0.0,0.0,0.0,0.0,0.0,0.0,0.0,0.0,0.0,0.0,0.0,0.0,0.0,0.0,0.0,-2.5262,-2.7771,-2.9755,-3.0856,-3.0986,-3.0986,-3.0986,-2.9379,-2.7818,-2.6431,0.0,0.0,0.0,0.0,0.0,0.0,0.0,0.0,0.0,0.0,0.0,0.0,0.0,0.0,0.0,0.0,0.0,0.0,0.0,0.0,0.0,0.0,0.0,0.0,0.0,0.0,0.0,0.0,0.0,0.0,0.0,0.0,0.0,0.0,0.0,0.0,0.0,0.0,0.0,0.0,0.0,0.0,0.0,0.0,0.0,0.0,0.0,0.0,0.0,0.0,0.0,0.0,0.0,0.0,0.0,0.0,0.0,0.0,0.0,0.0,0.0,-2.9114,0.0,0.0,0.0,0.0,0.0,0.0,0.0,0.0,0.0,0.0,0.0,0.0,0.0,0.0,0.0,0.0,0.0,0.0,0.0,0.0,0.0,0.0,0.0,0.0,0.0,0.0,0.0,0.0,0.0,0.0,0.0,0.0,0.0,0.0,0.0,0.0,0.0,0.0,0.0,0.0,-2.6002,-2.8392,-3.0165,-3.1031,-3.1061,-3.0986,-3.0986,-2.9902,-2.8643,-2.7302,-2.4741,0.0,0.0,0.0,0.0,0.0,0.0,0.0,0.0,0.0,0.0,0.0,0.0,0.0,0.0,0.0,0.0,0.0,0.0,0.0,0.0,0.0,0.0,0.0,0.0,0.0,0.0,0.0,0.0,0.0,0.0,0.0,0.0,0.0,0.0,0.0,0.0,0.0,0.0,0.0,0.0,0.0,0.0,0.0,0.0,0.0,0.0,0.0,0.0,0.0,0.0,0.0,0.0,0.0,0.0,0.0,-3.5035,-3.6057,-3.6791,-3.7112,-3.5278,-3.4241,-3.3714,0.0,0.0,0.0,0.0,0.0,0.0,0.0,0.0,0.0,0.0,0.0,0.0,0.0,0.0,0.0,0.0,0.0,0.0,0.0,0.0,0.0,0.0,0.0,0.0,0.0,-3.272,-3.204,0.0,0.0,0.0,0.0,0.0,0.0,0.0,0.0,0.0,0.0,0.0,0.0,-2.7038,-2.9178,-3.0738,-3.1463,-3.1277,-3.1099,-3.1099,-3.0537,-2.9652,-2.833,-2.654,-2.4699,0.0,0.0,0.0,0.0,0.0,0.0,0.0,0.0,0.0,0.0,0.0,0.0,0.0,0.0,0.0,0.0,0.0,0.0,0.0,0.0,0.0,0.0,0.0,0.0,0.0,0.0,0.0,0.0,0.0,0.0,0.0,0.0,-2.1485,-2.2608,0.0,0.0,0.0,0.0,0.0,0.0,0.0,0.0,0.0,0.0,0.0,0.0,0.0,0.0,-3.1993,-3.3937,-3.536,-3.6236,-3.8941,-4.02,-4.0173,-4.1354,-4.2052,-4.2375,-4.3036,0.0,-3.675,-3.5947,0.0,0.0,0.0,0.0,0.0,0.0,0.0,0.0,0.0,0.0,0.0,0.0,0.0,0.0,0.0,0.0,0.0,0.0,0.0,0.0,0.0,0.0,-3.5746,-3.6581,-3.6509,-3.5928,0.0,-3.0463,-2.6463,-2.4938,0.0,0.0,0.0,0.0,0.0,0.0,0.0,0.0,-2.8596,-2.9982,-3.1152,-3.2447,-3.1939,-3.1535,-3.1535,-3.0977,-3.0453,-3.0072,-2.81,-2.6574,-2.5778,-2.3537,0.0,0.0,0.0,0.0,0.0,0.0,0.0,0.0,0.0,0.0,0.0,0.0,0.0,0.0,0.0,0.0,0.0,0.0,0.0,0.0,0.0,0.0,0.0,0.0,0.0,0.0,0.0,0.0,0.0,-2.1525,-2.3013,-2.3169,-2.3605,-2.3474,0.0,0.0,0.0,0.0,0.0,0.0,0.0,0.0,0.0,-3.164,-3.2333,-3.3852,-3.6332,-3.7692,-3.9178,-4.0809,-4.2083,-4.3036,-4.3588,-4.411,-4.4517,-4.4816,-4.5818,-4.4769,-4.2248,-4.0192,-3.7985,-3.5609,0.0,0.0,0.0,0.0,0.0,-3.2954,-3.5702,0.0,0.0,0.0,0.0,0.0,0.0,0.0,0.0,0.0,0.0,0.0,0.0,0.0,0.0,-3.9177,-3.9486,-3.9298,-3.8322,-3.5806,-3.2698,0.0,-2.7437,-2.5574,-2.2824,0.0,0.0,0.0,0.0,0.0,-3.0699,-3.1668,-3.2384,-3.3081,-3.2374,-3.1863,-3.1863,-3.1644,-3.1325,-3.0945,-2.9376,-2.8263,-2.7733,-2.5632,-2.3632,0.0,0.0,0.0,0.0,0.0,0.0,0.0,0.0,0.0,0.0,0.0,0.0,0.0,0.0,0.0,0.0,0.0,0.0,0.0,0.0,0.0,0.0,0.0,0.0,0.0,0.0,0.0,0.0,-2.3315,-2.4609,-2.4151,-2.5262,-2.5411,0.0,0.0,0.0,0.0,0.0,0.0,-3.049,-3.1548,-3.3065,-3.5191,-3.604,-3.7701,-4.0158,-4.0895,-4.2231,-4.4148,-4.4361,-4.5043,-4.6084,-4.6237,-4.6503,-4.6849,-4.7612,-4.7656,-4.6982,-4.3863,-4.1573,-3.9872,-3.7692,-3.6545,0.0,-3.7169,-3.7462,-3.7916,-4.1313,-4.1697,-4.0662,-4.0812,0.0,-3.6866,-3.4155,0.0,0.0,0.0,0.0,-3.5856,-3.7789,0.0,-4.0188,-4.1464,-4.1984,-4.1901,-4.0921,-3.9834,-3.7737,0.0,-3.1789,-3.0029,-2.6557,0.0,0.0,0.0,0.0,-3.0764,-3.2958,-3.3415,-3.3705,-3.4147,-3.332,-3.2695,-3.2695,-3.2839,-3.2591,-3.185,-3.0979,-3.0261,-2.9748,-2.815,-2.6322,-2.4339,0.0,0.0,0.0,0.0,0.0,0.0,0.0,0.0,0.0,0.0,0.0,0.0,0.0,0.0,0.0,0.0,0.0,0.0,0.0,0.0,0.0,0.0,0.0,0.0,0.0,0.0,0.0,0.0,0.0,-2.6536,-2.8054,0.0,0.0,0.0,0.0,-2.9009,-3.0124,-3.1757,-3.4018,-3.4737,-3.6503,-3.9572,-3.973,-4.0746,-4.2808,-4.3359,-4.4107,-4.5061,-4.5866,-4.6726,-4.7592,-4.8162,-4.8747,-4.9342,-4.9701,-4.9858,-4.9577,-4.642,-4.4397,-4.3132,-4.1812,-4.1369,-4.1499,-4.1354,-4.2222,-4.3567,-4.424,-4.3676,-4.3038,-4.5447,-4.3696,-4.0385,-3.8951,-3.7312,0.0,0.0,-3.818,-3.9104,-4.1061,-4.201,-4.2818,-4.4113,-4.3956,-4.3494,-4.3433,-4.1452,-3.9028,0.0,-3.5051,-3.3597,-3.2596,0.0,-3.116,-3.1603,-3.2204,-3.3316,-3.5287,-3.4879,-3.4946,-3.6204,-3.5181,-3.4384,-3.4384,-3.4829,-3.4556,-3.3178,-3.3178,-3.2912,-3.2243,-3.156,-2.9892,-2.7059,-2.5727,0.0,0.0,0.0,0.0,0.0,0.0,0.0,0.0,0.0,0.0,0.0,0.0,0.0,0.0,0.0,0.0,0.0,0.0,0.0,0.0,0.0,0.0,0.0,0.0,0.0,0.0,0.0,0.0,-2.8908,-3.0764,0.0,0.0,-2.9931,-3.0897,-3.2463,-3.3639,-3.5214,-3.7332,-3.8162,-3.9328,-4.1037,-4.1495,-4.2541,-4.4385,-4.4756,-4.5755,-4.7373,-4.766,-4.8284,-4.921,-4.942,-4.9645,-4.9855,-4.996,-5.0299,-5.0666,-4.9588,-4.8056,-4.6307,-4.465,-4.4001,-4.4152,-4.4593,-4.5086,-4.577,-4.7303,-4.7525,-4.7122,-4.6798,-4.4847,-4.2521,-4.1679,-4.1247,-4.1227,-4.2061,-4.275,-4.3373,-4.4067,-4.4412,-4.4588,-4.458,-4.4425,-4.4132,-4.3701,-4.2876,-4.175,-4.0154,-3.7982,-3.5922,-3.4455,-3.4559,-3.4614,-3.3968,-3.4371,-3.5265,-3.6735,-3.5948,-3.5647,-3.657,-3.5906,-3.5423,-3.5423,-3.525,-3.4698,-3.3542,-3.2813,-3.2291,-3.1955,-3.1649,-3.0447,-2.8207,-2.7601,-2.5474,0.0,0.0,0.0,0.0,0.0,0.0,0.0,0.0,0.0,0.0,0.0,0.0,0.0,0.0,0.0,0.0,0.0,0.0,0.0,0.0,0.0,0.0,0.0,0.0,0.0,0.0,-3.0999,-3.0999,-3.3208,-3.4058,-3.2306,-3.3195,-3.4395,-3.5757,-3.6737,-3.8044,-3.9733,-4.0402,-4.1317,-4.2679,-4.309,-4.4113,-4.5741,-4.6065,-4.6875,-4.8311,-4.8572,-4.92,-5.0027,-5.0224,-5.0579,-5.1013,-5.0748,-5.1014,-5.1502,-5.1286,-5.0215,-4.8649,-4.77,-4.7179,-4.6971,-4.7334,-4.7579,-4.7969,-4.9176,-4.9899,-4.9938,-4.7719,-4.6273,-4.5202,-4.4334,-4.4373,-4.4795,-4.5221,-4.562,-4.5926,-4.5926,-4.5757,-4.548,-4.5018,-4.4779,-4.4486,-4.404,-4.3762,-4.3285,-4.2155,-4.0353,-3.847,-3.6757,-3.7166,-3.7423,-3.6589,-3.6618,-3.701,-3.7792,-3.6993,-3.6616,-3.7319,-3.7044,-3.6752,-3.6544,-3.6151,-3.5355,-3.4056,-3.3235,-3.2516,-3.1976,-3.1849,-3.09,-2.897,-2.8143,-2.6149,-2.2963,0.0,0.0,0.0,0.0,0.0,0.0,0.0,0.0,0.0,0.0,0.0,0.0,0.0,0.0,0.0,0.0,0.0,0.0,0.0,0.0,0.0,0.0,0.0,-2.917,-3.1313,-3.279,-3.2829,-3.5325,-3.6397,-3.4724,-3.6619,-3.8187,-3.8723,-3.9324,-4.0161,-4.1285,-4.1376,-4.2402,-4.4636,-4.4703,-4.5415,-4.6887,-4.7146,-4.747,-4.7805,-4.8598,-4.9356,-5.0027,-5.0618,-5.1676,-5.292,-5.2263,-5.1989,-5.205,-5.1393,-5.07,-5.0152,-5.1008,-5.0845,-5.0076,-4.9556,-4.9849,-5.0404,-4.9816,-5.0532,-5.1287,-4.8576,-4.8122,-4.8404,-4.7096,-4.668,-4.6665,-4.6665,-4.6665,-4.6665,-4.6634,-4.6126,-4.5618,-4.5588,-4.5064,-4.461,-4.461,-4.4101,-4.3439,-4.274,-4.2078,-4.1186,-3.9751,-3.9521,-3.9521,-3.9521,-3.897,0.0,-3.8508,-3.8047,-3.7931,-3.8411,-3.861,-3.8424,-3.779,-3.7569,-3.6686,-3.4846,-3.4545,-3.3829,-3.2444,-3.2367,-3.1443,-2.9489,-2.7457,-2.5733,-2.4333,0.0,0.0,0.0,0.0,0.0,0.0,0.0,0.0,0.0,0.0,0.0,0.0,0.0,0.0,0.0,0.0,0.0,0.0,0.0,0.0,0.0,0.0,-3.015,-3.0477,-3.2868,-3.4894,-3.5717,-3.726,-3.8227,-3.8174,-3.8762,-3.9364,-3.9899,-4.0501,-4.128,-4.2165,-4.2826,-4.3546,-4.4401,-4.4825,-4.5435,-4.6231,-4.6769,-4.7753,-4.9234,-4.9089,-4.9653,-5.0789,-5.0975,-5.1236,-5.1586,-5.1414,-5.1686,-5.2178,-5.1461,-5.1389,-5.1563,-5.0706,-4.9967,-4.9453,-5.0394,-5.1336,-5.2048,-5.1881,-5.1786,-5.1561,-5.0818,-5.0061,-4.9328,-4.8943,-4.8466,-4.8065,-4.8065,-4.8065,-4.7942,-4.745,-4.6819,-4.6188,-4.5711,-4.5064,-4.461,-4.461,-4.4471,-4.3972,-4.2833,-4.2463,-4.1894,-4.0459,-4.0213,-4.0213,-4.0213,0.0,0.0,-3.8569,-3.8361,-3.8144,-3.7798,-3.8238,-3.8461,-3.831,-3.7438,-3.6447,0.0,-3.3908,-3.2903,-3.2428,-3.1921,-3.1182,-3.014,-2.815,-2.6426,0.0,0.0,0.0,0.0,0.0,0.0,0.0,0.0,0.0,0.0,0.0,0.0,0.0,0.0,0.0,0.0,0.0,0.0,0.0,0.0,0.0,0.0,-3.0908,-3.2764,-3.3744,-3.5325,-3.6724,-3.7612,-3.8723,-3.956,-3.9913,-4.0174,-4.0553,-4.1102,-4.1481,-4.2131,-4.3112,-4.3625,-4.415,-4.4679,-4.5568,-4.6296,-4.6818,-4.7387,-4.8334,-4.961,-4.92,-4.9614,-5.0745,-5.0968,-5.149,0.0,-5.1801,-5.198,-5.2371,-5.1584,-5.1335,0.0,0.0,0.0,0.0,0.0,-5.1009,-5.1788,-5.2139,-5.2183,-5.2082,-5.179,-5.0974,-5.0051,-4.9774,-4.9189,-4.862,-4.862,-4.862,-4.8527,-4.8127,-4.7527,-4.685,-4.6172,-4.5495,-4.4964,-4.4671,-4.461,-4.4302,-4.3217,0.0,0.0,-4.117,-4.0689,-4.0489,-4.0489,-3.992,-3.9351,0.0,-3.8939,-3.8785,-3.8385,-3.8954,-3.9198,-3.8954,-3.777,0.0,0.0,0.0,-3.264,-3.2013,-3.1336,0.0,0.0,0.0,0.0,0.0,0.0,0.0,0.0,-2.618,-2.5795,0.0,0.0,0.0,0.0,0.0,0.0,0.0,0.0,0.0,0.0,0.0,0.0,0.0,0.0,0.0,0.0,-3.3143,-3.5391,-3.7678,-3.8057,-3.8292,-3.8841,-3.9891,-4.0582,-4.0648,-4.1198,-4.1813,-4.2325,-4.238,-4.2853,-4.3873,0.0,0.0,0.0,0.0,-4.7205,-4.7768,-4.836,-4.8923,-4.936,-4.925,-4.9571,-5.0361,-5.0926,-5.1874,-5.3146,-5.2608,-5.2399,-5.2304,-5.1446,-5.0714,-5.0347,-5.1806,-5.1579,-5.0376,-4.9788,-5.0028,0.0,0.0,0.0,0.0,-5.2006,-5.1359,-5.0682,-5.0005,-4.9297,-4.8727,-4.8635,-4.862,-4.862,-4.862,-4.8112,-4.745,-4.685,-4.6126,-4.5418,-4.4856,-4.4671,-4.4409,-4.3732,-4.3048,-4.2402,-4.1724,-4.1001,-4.0489,-4.0489,-3.9982,0.0,-3.949,-3.9585,-3.9521,-3.929,0.0,0.0,-3.9428,-3.8308,-3.7353,-3.6753,-3.4783,-3.3029,-3.1686,-3.1136,-3.0817,-3.074,-3.132,-3.1609,-3.1516,-3.2182,-3.2505,-3.2428,-2.8765,-2.8027,0.0,0.0,0.0,0.0,0.0,0.0,0.0,0.0,0.0,0.0,0.0,0.0,0.0,0.0,0.0,-3.2672,-3.4593,-3.6423,-3.8292,-3.8972,-3.9481,-4.0017,-4.0978,-4.1814,-4.2285,-4.2892,-4.326,-4.3417,-4.3515,-4.369,-4.3912,-4.4304,0.0,-4.4776,-4.5046,-4.5569,-4.6362,-4.7359,-4.851,-4.9854,0.0,0.0,-5.1332,-5.1466,-5.1322,-5.1006,-5.1533,-5.1426,-5.078,-5.0024,-4.996,-5.0392,-5.0577,-5.1224,-5.1986,-5.1391,-5.1618,-5.2276,-5.2427,-5.2578,-5.2698,-5.256,-5.2052,-5.139,-5.0713,-5.002,0.0,-4.8773,-4.862,-4.862,-4.862,-4.8112,-4.7573,-4.745,-4.648,-4.5541,-4.5418,-4.4972,-4.4409,-4.3732,-4.3048,-4.2402,-4.1724,-4.1001,-4.0489,-4.0489,-4.0382,-4.0105,-3.9551,-3.9967,-3.9674,-3.8061,-3.8985,-3.9413,-3.8769,-3.8462,-3.8262,-3.8123,-3.6199,-3.446,-3.3059,-3.3444,-3.3413,-3.2829,-3.2952,-3.2752,-3.2198,-3.2875,-3.3213,-3.3167,-3.1844,-3.1443,0.0,0.0,0.0,0.0,0.0,0.0,0.0,0.0,0.0,0.0,0.0,-2.6687,0.0,0.0,-3.2515,-3.4515,-3.6057,-3.7508,-3.8958,-3.9651,-4.0109,-4.0383,-4.1099,-4.2034,-4.3199,-4.3107,-4.3436,-4.4519,-4.4148,-4.4003,-4.4291,-4.4565,-4.4979,-4.5555,-4.6203,-4.706,-4.8131,-4.8979,-4.9887,-5.0778,-5.054,-5.084,-5.1587,-5.1587,-5.1572,-5.1557,-5.2002,-5.1895,-5.1511,-5.076,-5.0665,-5.0964,-5.0925,-5.1393,-5.2024,-5.1708,-5.1818,-5.22,-5.2563,-5.2713,-5.2713,-5.2713,-5.2252,-5.1636,-5.1298,-5.0497,-4.9605,-4.9251,-4.8897,-4.862,-4.862,-4.8358,-4.8019,-4.7681,-4.6834,-4.6003,-4.5664,-4.5049,-4.4517,-4.4178,-4.3578,-4.2879,-4.2217,-4.1524,-4.094,-4.0551,-4.0489,-4.0366,-4.0028,-4.0632,-4.0539,-3.917,-3.9582,-3.9721,-3.9077,-3.8708,-3.8369,-3.8031,-3.7061,-3.603,-3.4983,-3.5291,-3.5337,-3.4953,-3.5276,-3.5291,-3.4953,-3.563,-3.5953,-3.5953,-3.5614,-3.5091,0.0,0.0,0.0,0.0,0.0,0.0,0.0,0.0,-2.4883,-2.6602,-2.8268,-2.9849,-3.1365,-3.2986,-3.4567,-3.6044,-3.7286,-3.8423,-3.9468,-4.0069,-4.0461,-4.0579,-4.1344,-4.24,-4.3791,-4.3322,-4.3592,-4.5197,-4.4716,-4.4506,-4.4709,-4.514,-4.5648,-4.6374,-4.7434,-4.8667,-5.0003,-5.0463,-5.0967,-5.1526,-5.1028,-5.1122,-5.1818,-5.1818,-5.2048,-5.2473,-5.2473,-5.2473,-5.2427,-5.2002,-5.1726,-5.1618,-5.1772,-5.1818,-5.1818,-5.1818,-5.1818,-5.191,-5.2473,-5.2713,-5.2713,-5.2713,-5.2344,-5.1882,-5.1744,-5.0944,-5.002,-4.9758,-4.9266,-4.8789,-4.865,-4.862,-4.8481,-4.7927,-4.7188,-4.6449,-4.5895,-4.5195,-4.461,-4.461,-4.4071,-4.3439,-4.2879,-4.2125,-4.1355,-4.0597,-4.0489,-4.0489,-4.0489,-4.1032,-4.1124,-4.0366,-4.0413,-4.0213,-3.9551,-3.8908,-3.8215,-3.7538,-3.7507,-3.7261,-3.6707,-3.6692,-3.6753,-3.6892,-3.7415,-3.7692,-3.7707,-3.8246,-3.8508,-3.8508,-3.8646,-3.8061,-2.3992,-2.3054,0.0,-2.4259,-2.4243,-2.4988,0.0,0.0,-2.9091,-3.0779,-3.215,-3.3208,-3.3901,-3.5012,-3.6057,-3.6789,-3.7861,-3.8854,-3.952,-4.0069,-4.0618,-4.1154,-4.2813,-4.4059,-4.4223,-4.5058,-4.5313,-4.4651,-4.5565,-4.5688,-4.4776,-4.6556,-4.7266,-4.6426,-4.6531,-4.7383,-4.8944,-4.8781,-4.9582,-5.1263,-5.1834,-5.2261,-5.2578,-5.2578,-5.2231,-5.1726,-5.1726,-5.1726,-5.1772,-5.2337,-5.22,-5.168,-5.2337,-5.2578,-5.2578,-5.2578,-5.2578,-5.2578,-5.2669,-5.2713,-5.2713,-5.2713,-5.2667,-5.2483,-5.1882,-5.1605,-5.1221,-5.002,-4.9635,-4.942,-4.8773,-4.862,-4.8589,-4.8527,-4.7527,-4.6573,-4.6496,-4.548,-4.461,-4.461,-4.4071,-4.3578,-4.3516,-4.2432,-4.1355,-4.0597,-4.0489,-4.0489,-4.0489,-4.0566,-4.0351,-3.9674,-4.0136,-4.0213,-3.9551,-3.8908,-3.8215,-3.7538,-3.7507,-3.7461,-3.7384,-3.7384,-3.7677,-3.8262,-3.8354,-3.84,-3.84,-3.8477,-3.8508,-3.8523,-3.9123,-3.9,-2.6726,0.0,0.0,0.0,-2.7536,-2.8699,-3.0973,-3.1365,-3.1757,-3.3496,-3.4489,-3.5234,-3.5809,-3.6593,-3.7233,0.0,-3.8488,-3.9324,-3.9573,-4.0069,-4.0696,-4.1554,-4.2926,-4.4078,-4.4823,-4.5038,-4.5343,-4.5901,-4.5625,-4.5502,-4.5648,-4.6569,-4.7177,-4.7331,-4.7943,-4.8646,-4.9484,-4.9984,-5.081,-5.1834,-5.2155,-5.2457,-5.2713,-5.2713,-5.2518,-5.2246,-5.2246,-5.2246,-5.2246,-5.2563,-5.2518,-5.2291,-5.2578,-5.2713,-5.2713,-5.2713,-5.2713,-5.2713,-5.2713,-5.2713,-5.2713,-5.2713,-5.2713,-5.2667,-5.2375,-5.2021,-5.1498,-5.0543,-4.9989,-4.9528,-4.8804,-4.862,-4.862,-4.862,-4.7881,-4.708,-4.668,-4.5834,-4.5087,-4.4702,-4.4379,-4.4071,-4.367,-4.3146,-4.2386,-4.1309,-4.0751,-4.0489,-4.0489,-4.0858,-4.0878,-4.0151,-3.9967,-3.9644,-3.8985,-3.8677,-3.8385,-3.8108,-3.8092,-3.8092,-3.8092,-3.8092,-3.8215,-3.8508,-3.8508,-3.8708,-3.9059,-3.9059,-3.9259,-3.9644,-3.9536,-3.9551,-2.7798,0.0,0.0,-2.8922,-3.0176,-3.1457,-3.2306,-3.2868,-3.3613,-3.5195,-3.5966,-3.6541,-3.7142,-3.7612,0.0,-3.79,-3.8867,-3.9547,-3.939,-3.9965,-4.0649,-4.1185,-4.2385,-4.3571,-4.4654,-4.4989,-4.5482,-4.642,-4.6079,-4.6012,-4.6531,-4.7043,-4.7638,-4.8432,-4.8894,-4.9547,-5.0335,-5.0793,-5.1418,-5.2231,-5.2231,-5.2382,-5.2713,-5.2713,-5.2713,-5.2713,-5.2713,-5.2713,-5.2713,-5.2713,-5.2713,-5.2713,-5.2713,-5.2713,-5.2713,-5.2713,-5.2713,-5.2713,-5.2713,-5.2713,-5.2713,-5.2713,-5.2713,-5.2713,-5.2713,-5.2375,-5.1805,-5.0928,-5.0343,-4.9758,-4.885,-4.862,-4.862,-4.862,-4.8096,-4.7465,-4.6973,-4.6188,-4.5449,-4.4957,-4.4748,-4.4471,-4.3978,-4.3732,-4.3223,-4.2048,-4.1278,-4.072,-4.052,-4.0986,-4.1109,-4.0551,-3.989,-3.929,-3.8831,-3.8616,-3.8508,-3.8508,-3.8508,-3.86,-3.8785,-3.8616,-3.8677,-3.9029,-3.8893,-3.9123,-3.9767,-3.9767,-4.0013,-4.0489,-3.9982,-3.992,0.0,0.0,-2.9532,-3.062,-3.1365,-3.2215,-3.394,-3.4332,-3.4672,-3.5848,-3.6554,-3.7155,-3.7769,-3.79,-3.79,-3.79,-3.8867,-3.9403,-3.8815,-3.9703,-4.0226,-3.9738,-4.1333,-4.2784,0.0,-4.5387,-4.6239,-4.5329,-4.7262,-4.8061,-4.703,-4.8565,-4.9513,-4.9562,-4.8596,-4.9042,-5.112,-5.0172,-5.046,-5.1987,-5.1987,-5.2261,-5.2713,-5.2713,-5.2713,-5.2713,-5.2713,-5.2713,-5.2713,-5.2713,-5.2713,-5.2713,-5.2713,-5.2713,-5.2713,-5.2713,-5.2713,-5.2713,-5.2713,-5.2713,-5.2713,-5.2713,-5.2713,-5.2713,-5.2713,-5.2698,-5.2406,-5.1067,-5.0682,-5.0343,-4.8974,-4.862,-4.862,-4.862,-4.8096,-4.7604,-4.7573,-4.6526,-4.5588,-4.5557,-4.5018,-4.461,-4.4594,-4.404,-4.3393,-4.2679,-4.2001,-4.1324,-4.0582,-4.0505,-4.052,-4.0489,-3.989,-3.9474,-3.9459,-3.8893,-3.8508,-3.8508,-3.8508,-3.88,-3.9428,-3.8862,-3.9123,-4.0397,-3.9782,-3.9782,-4.0459,-4.0459,-4.0474,-4.0489,-4.0474,-4.012,0.0,0.0,-3.1156,-3.1927,-3.313,-3.4293,-3.4868,-3.5273,-3.5639,-3.6018,-3.5979,-3.5926,-3.6136,-3.6462,-3.6711,-3.6711,-3.8344,-3.9403,-3.8789,-3.969,-4.0298,-3.998,-4.1469,0.0,0.0,0.0,0.0,-4.6214,-4.7056,-4.7692,-4.8032,-4.9054,-4.9625,-4.9625,-4.9965,-5.011,-5.0124,-5.0475,-5.1105,-5.2002,-5.2307,-5.2533,-5.2713,-5.2713,-5.2713,-5.2713,-5.2713,-5.2713,-5.2713,-5.2713,-5.2713,-5.2713,-5.2713,-5.2713,-5.2713,-5.2713,-5.2713,-5.2713,-5.2713,-5.2713,-5.2713,-5.2713,-5.2713,-5.2713,-5.2713,-5.2713,-5.2529,-5.1621,-5.1036,-5.0482,-4.9558,-4.8974,-4.862,-4.862,-4.8435,-4.8142,-4.7711,-4.6896,-4.6126,-4.568,-4.5049,-4.461,-4.461,-4.4425,-4.3864,-4.2771,-4.1632,-4.0766,-4.052,-4.0489,-4.0489,-4.0489,-4.029,-3.9967,-3.9521,-3.9308,-3.8985,-3.8539,-3.8923,-3.9244,-3.9474,-3.9259,-3.9567,-4.0474,-3.9828,-4.0093,-4.1232,-4.1232,-4.1232,-4.1232,-4.072,-4.0366,0.0,-3.0699,-3.2346,-3.3378,-3.4306,-3.5038,-3.5247,-3.5391,-3.5495,-3.5495,-3.5064,-3.475,-3.4933,-3.4933,-3.5155,-3.5966,-3.7547,-3.8824,-3.9197,-4.0018,-4.0622,-4.0635,-4.1838,0.0,0.0,0.0,0.0,-4.6856,-4.7499,-4.81,-4.8791,-4.9339,-4.9771,-5.0172,-5.0475,-5.0475,-5.0172,-5.087,-5.1416,-5.188,-5.2443,-5.2669,-5.2563,-5.2669,-5.2713,-5.2713,-5.2713,-5.2713,-5.2713,-5.2713,-5.2713,-5.2713,-5.2713,-5.2713,-5.2713,-5.2713,-5.2713,-5.2713,-5.2713,-5.2713,-5.2713,-5.2713,-5.2713,-5.2713,-5.2713,-5.2713,-5.2575,-5.1898,-5.1221,-5.0543,-4.9866,-4.9143,-4.862,-4.862,-4.862,-4.8496,-4.8065,-4.7234,-4.6465,-4.6034,-4.5203,-4.461,-4.461,-4.4409,-4.3963,-4.3079,-4.1786,-4.0782,-4.052,-4.0489,-4.0489,-4.0489,-4.0489,-4.032,-3.989,-3.9844,-3.9659,-3.9262,-3.9613,-3.9844,-3.9844,-3.9844,-4.0166,-4.0858,-4.0478,-4.0816,-4.1971,-4.1724,-4.1601,-4.1586,-4.0828,-4.0489,-3.0568,-3.1914,-3.3208,-3.4842,-3.4842,-3.458,-3.5129,-3.4789,-3.4345,-3.428,-3.3809,-3.3548,0.0,0.0,-3.3365,-3.5574,-3.6567,-3.7778,-3.988,-4.0675,-4.1192,0.0,0.0,0.0,0.0,0.0,0.0,-4.7249,0.0,-4.9314,-4.9314,-4.9516,-5.0172,-5.1167,-5.022,-5.0172,-5.1167,-5.1214,-5.1354,-5.1634,-5.2337,-5.2563,-5.2306,-5.2563,-5.2713,-5.2713,-5.2713,-5.2713,-5.2713,-5.2713,-5.2713,-5.2713,-5.2713,-5.2713,-5.2713,-5.2713,-5.2713,-5.2713,-5.2713,-5.2713,-5.2713,-5.2713,-5.2713,-5.2713,-5.2713,-5.2713,-5.2575,-5.1929,-5.1267,-5.059,-4.9912,-4.9204,-4.8666,-4.862,-4.862,-4.862,-4.862,-4.7573,-4.6634,-4.6603,-4.5511,-4.461,-4.461,-4.4086,-4.3639,-4.3608,-4.2479,-4.1401,-4.0643,-4.052,-4.0489,-4.0489,-4.0489,-4.0489,-4.0489,-4.0489,-4.0489,-4.0489,-4.0536,-4.0551,-4.0551,-4.0551,-4.094,-4.1694,-4.1663,-4.1986,-4.2648,-4.2001,-4.1663,-4.1586,-4.0858,-4.0536,-3.1223,-3.3091,-3.4633,-3.4633,-3.4842,-3.4986,-3.4698,-3.4188,-3.3548,-3.2633,-3.1667,-3.079,0.0,0.0,0.0,-3.3404,-3.5874,0.0,-3.9947,-4.1074,0.0,0.0,0.0,-4.469,-4.5584,-4.6032,0.0,0.0,-4.8521,-4.9314,-4.9314,-5.0264,-5.0917,-5.1167,-5.0917,-5.0917,-5.1214,-5.1401,-5.1541,-5.1634,-5.2139,-5.2352,-5.2306,-5.2563,-5.2713,-5.2713,-5.2713,-5.2713,-5.2713,-5.2713,-5.2713,-5.2713,-5.2713,-5.2713,-5.2713,-5.2713,-5.2713,-5.2713,-5.2713,-5.2713,-5.2713,-5.2713,-5.2713,-5.2713,-5.2713,-5.2713,-5.2667,-5.2498,-5.1959,-5.1282,-5.062,-4.9928,-4.9281,-4.8743,-4.862,-4.862,-4.862,-4.7942,-4.7204,-4.6696,-4.5511,-4.461,-4.461,-4.4471,-4.4194,-4.3685,-4.2863,-4.2109,-4.1417,-4.0828,-4.0489,-4.0489,-4.0489,-4.0489,-4.0489,-4.0489,-4.0489,-4.0489,-4.1032,-4.1324,-4.1324,-4.1324,-4.1878,-4.3085,-4.2586,-4.2679,-4.3362,-4.3177,-4.2556,-4.1601,-4.1417,-4.1047,-3.2254,-3.3731,-3.4816,-3.4476,-3.4646,-3.462,-3.3522,-3.3038,-3.228,-3.0309,-2.92,0.0,0.0,0.0,0.0,0.0,0.0,0.0,-4.0453,-4.1607,-4.2859,0.0,-4.5255,0.0,-4.6237,-4.6591,-4.6905,0.0,-4.8521,-4.9314,-4.9314,-5.0511,-5.1214,-5.1214,-5.1214,-5.1214,-5.1214,-5.1448,-5.1541,-5.1448,-5.191,-5.2185,-5.2185,-5.2412,-5.2608,-5.2713,0.0,-5.2713,-5.2713,-5.2713,-5.2713,-5.2713,-5.2713,-5.2713,-5.2713,-5.2713,-5.2713,-5.2713,-5.2713,-5.2713,-5.2713,-5.2713,-5.2713,-5.2713,-5.2713,-5.2713,-5.2713,-5.2713,-5.2221,-5.1559,-5.0867,-5.0189,-4.9497,-4.8789,-4.862,-4.862,-4.862,-4.8081,-4.7311,-4.6342,-4.5541,-4.4926,-4.4671,-4.461,-4.4486,-4.4117,-4.3448,-4.2786,-4.2125,-4.112,-4.0489,-4.0489,-4.0489,-4.0489,-4.0489,-4.0489,-4.0489,-4.0489,-4.0909,-4.1124,-4.1124,-4.1432,-4.194,-4.273,-4.2633,-4.2786,-4.314,-4.2848,-4.2325,-4.1586,-4.1278,-4.0924,-3.3378,-3.4045,-3.4397,-3.4397,-3.4345,-3.3862,-3.2176,-3.1628,-3.0662,-2.7842,0.0,0.0,-2.6366,0.0,-2.8325,-3.1223,0.0,-3.6593,-4.0952,-4.204,-4.3382,-4.6005,-4.6396,-4.6414,-4.6414,-4.698,-4.7309,-4.7309,-4.8446,-4.9224,-4.9314,-5.0511,-5.1214,-5.1214,-5.1214,-5.1214,-5.1214,-5.1448,-5.1448,-5.1214,-5.1695,-5.1941,-5.1941,-5.2185,-5.2457,-5.2669,0.0,0.0,-5.2713,-5.2713,-5.2713,-5.2713,-5.2713,-5.2713,-5.2713,-5.2713,-5.2713,-5.2713,-5.2713,-5.2713,-5.2713,-5.2713,-5.2713,-5.2713,-5.2713,-5.2713,-5.2713,-5.2713,-5.2283,-5.1667,-5.0897,-5.0251,-4.9605,-4.8804,-4.862,-4.862,-4.862,-4.8081,-4.7234,-4.5972,-4.5649,-4.5372,-4.4733,-4.461,-4.461,-4.461,-4.404,-4.3408,-4.2817,-4.1524,-4.0597,-4.0505,-4.0489,-4.0489,-4.0489,-4.0489,-4.0489,-4.0489,-4.0489,-4.0489,-4.0489,-4.1124,-4.1509,-4.1601,-4.2171,-4.2479,-4.2479,-4.1878,-4.1555,-4.1447,-4.0782,-4.0489,-3.3953,-3.4332,-3.4397,-3.4397,-3.4071,-3.3404,-3.2084,-3.0751,0.0,0.0,0.0,-2.4557,-2.4557,-2.5798,0.0,-3.066,0.0,0.0,0.0,0.0,-4.2955,0.0,0.0,0.0,0.0,0.0,0.0,0.0,0.0,0.0,-4.9284,-5.0511,-5.1214,-5.1214,-5.1214,-5.1214,-5.1214,-5.1261,-5.1261,-5.1214,-5.1541,-5.168,-5.168,-5.2124,-5.2352,-5.2397,0.0,0.0,-5.2713,-5.2713,-5.2713,-5.2713,-5.2713,-5.2713,-5.2713,-5.2713,-5.2713,-5.2713,-5.2713,-5.2713,-5.2713,-5.2713,-5.2713,-5.2713,-5.2713,-5.2713,-5.2713,-5.2713,-5.2637,-5.2252,-5.1021,-5.0605,-5.0189,-4.8912,-4.862,-4.862,-4.862,-4.8081,-4.7373,-4.6573,-4.5972,-4.5372,-4.4733,-4.461,-4.461,-4.461,-4.404,-4.3562,-4.3454,-4.2248,-4.1186,-4.0566,-4.0489,-4.0489,-4.0489,-4.0489,-4.0489,-4.0489,-4.0489,-4.0489,-4.0489,-4.0612,-4.1001,-4.1586,-4.1709,-4.1771,-4.1771,-4.1663,-4.1294,-4.0674,-4.0551,-4.0489,-3.3835,-3.4188,-3.4332,-3.4045,-3.3548,-3.2502,-3.01,0.0,0.0,0.0,0.0,-2.2766,-2.2766,0.0,0.0,0.0,0.0,0.0,0.0,0.0,0.0,0.0,0.0,0.0,0.0,0.0,0.0,0.0,0.0,0.0,0.0,-5.0511,-5.1214,-5.1214,-5.1214,-5.1214,-5.1214,-5.1214,-5.1214,-5.1214,-5.1308,-5.1448,-5.1634,-5.1849,-5.2079,-5.2306,0.0,0.0,-5.2713,-5.2713,-5.2713,-5.2713,-5.2713,-5.2713,-5.2713,-5.2713,-5.2713,-5.2713,-5.2713,-5.2713,-5.2713,-5.2713,-5.2713,-5.2713,-5.2713,-5.2713,-5.2713,-5.2713,-5.2713,-5.2406,-5.1051,-5.0697,-5.0343,-4.8943,-4.862,-4.862,-4.862,-4.8358,-4.7927,-4.725,-4.6573,-4.5895,-4.5218,-4.4841,-4.461,-4.461,-4.4348,-4.4009,-4.3655,-4.3054,-4.2232,-4.1186,-4.072,-4.0489,-4.0489,-4.0489,-4.0489,-4.0489,-4.0489,-4.0489,-4.0489,-4.0489,-4.0659,-4.1032,-4.1047,-4.1047,-4.1047,-4.1047,-4.0863,-4.0489,-4.0489,-4.0489,-3.3548,-3.3979,-3.4267,-3.3731,-3.3051,-3.164,-2.826,-2.6896,0.0,0.0,0.0,0.0,0.0,0.0,0.0,0.0,0.0,0.0,0.0,0.0,0.0,0.0,0.0,0.0,0.0,0.0,0.0,0.0,0.0,0.0,0.0,-5.0376,-5.1005,-5.1005,-5.1154,-5.1214,-5.1214,-5.1214,-5.1214,-5.1214,-5.1214,-5.1354,-5.1572,-5.1529,-5.1698,-5.2077,0.0,0.0,0.0,-5.2436,-5.2498,-5.2513,-5.2652,-5.2713,-5.2713,-5.2713,-5.2713,-5.2713,-5.2713,-5.2713,-5.2713,-5.2713,-5.2713,-5.2713,-5.2713,-5.2713,-5.2713,-5.2713,-5.2713,-5.2406,-5.1051,-5.0697,-5.0343,-4.8943,-4.862,-4.862,-4.862,-4.862,-4.8419,-4.7727,-4.7065,-4.6388,-4.5711,-4.5018,-4.461,-4.461,-4.461,-4.4425,-4.3886,-4.3701,-4.3208,-4.214,-4.1263,-4.072,-4.072,-4.0582,-4.0489,-4.0489,-4.0489,-4.0489,-4.0489,-4.0489,-4.0489,-4.0489,-4.0489,-4.0489,-4.0489,-4.0489,-4.0489,-4.0489,-4.0489,-4.0489,-3.3403,-3.3979,-3.4267,-3.3731,-3.2751,-3.1106,-2.8169,0.0,0.0,0.0,-2.1093,-2.108,-2.2113,0.0,0.0,0.0,0.0,0.0,0.0,0.0,0.0,0.0,0.0,0.0,0.0,0.0,0.0,0.0,0.0,0.0,0.0,-4.9942,-5.0285,-5.0285,-5.0868,-5.1214,-5.1214,-5.1214,-5.1214,-5.1214,-5.1214,-5.1354,-5.1618,-5.1213,-5.1196,-5.1359,0.0,0.0,0.0,-5.1544,-5.179,-5.1852,-5.2467,-5.2713,-5.2713,-5.2713,-5.2713,-5.2713,-5.2713,-5.2713,-5.2713,-5.2713,-5.2713,-5.2713,-5.2713,-5.2713,-5.2713,-5.2713,-5.2713,-5.2406,-5.1051,-5.0697,-5.0343,-4.8943,-4.862,-4.862,-4.862,-4.862,-4.8419,-4.7727,-4.7065,-4.6388,-4.5711,-4.5018,-4.461,-4.461,-4.461,-4.4594,-4.4533,-4.3994,-4.3562,-4.3439,-4.2263,-4.1509,-4.1509,-4.0909,-4.0489,-4.0489,-4.0489,-4.0489,-4.0489,-4.0489,-4.0489,-4.0489,-4.0489,-4.0489,-4.0489,-4.0489,-4.0489,-4.0489,-4.0489,-4.0489,-3.2215,-3.2947,-3.3234,-3.2672,-3.1628,-3.0022,-2.7124,0.0,0.0,-2.1498,-2.0844,-2.0843,-2.1302,0.0,0.0,0.0,0.0,0.0,0.0,0.0,0.0,0.0,0.0,0.0,0.0,0.0,0.0,0.0,0.0,0.0,0.0,0.0,-4.9658,-4.9658,-4.9912,-5.0047,-5.0047,-5.0047,-5.0047,-5.0047,-5.0047,-5.0093,-5.0215,-5.0185,-5.0289,0.0,0.0,0.0,0.0,-5.1421,-5.1698,-5.1775,-5.2452,-5.2713,-5.2713,-5.2713,-5.2713,-5.2713,-5.2713,-5.2713,-5.2713,-5.2713,-5.2713,-5.2713,-5.2713,-5.2713,-5.2713,-5.2713,-5.2421,-5.1882,-5.0928,-5.0066,-4.9297,-4.8743,-4.862,-4.862,-4.862,-4.862,-4.8543,-4.8266,-4.7342,-4.6511,-4.6249,-4.5295,-4.461,-4.461,-4.461,-4.461,-4.461,-4.4379,-4.4209,-4.4209,-4.2987,-4.2202,-4.2202,-4.1571,-4.117,-4.117,-4.0735,-4.0489,-4.0489,-4.0489,-4.0489,-4.0489,-4.0489,-4.0489,-4.0489,-4.0489,-4.0489,-4.0489,-4.0489,-4.0489,-3.133,-3.2176,-3.2515,-3.2163,-3.0949,-2.9134,0.0,0.0,-2.325,-2.1119,-2.0699,-2.0699,-2.0699,-2.1014,0.0,0.0,0.0,0.0,0.0,0.0,0.0,0.0,0.0,0.0,0.0,0.0,0.0,0.0,0.0,0.0,0.0,0.0,-4.882,-4.9015,-4.9209,-4.9314,-4.9314,-4.9314,-4.9314,-4.9314,-4.9314,-4.9314,-4.9389,-4.9313,-4.9459,0.0,0.0,0.0,0.0,-5.1085,-5.1528,-5.1775,-5.2452,-5.2713,-5.2698,-5.2483,-5.2544,-5.2683,-5.2483,-5.2544,-5.2713,-5.2713,-5.2713,-5.2713,-5.2713,-5.2713,-5.2713,-5.2713,-5.2082,-5.1251,-5.0574,-4.9512,-4.862,-4.862,-4.862,-4.862,-4.862,-4.862,-4.862,-4.862,-4.7527,-4.6603,-4.6603,-4.548,-4.461,-4.461,-4.461,-4.461,-4.461,-4.461,-4.461,-4.461,-4.3756,-4.311,-4.291,-4.2094,-4.1601,-4.1601,-4.0889,-4.0489,-4.0489,-4.0489,-4.0489,-4.0489,-4.0489,-4.0489,-4.0489,-4.0489,-4.0489,-4.0489,-4.0489,-4.0489,-3.1035,-3.1993,-3.246,-3.2646,-3.0973,-2.8673,0.0,-2.4448,-2.274,-2.1066,-2.0699,-2.0699,-2.0699,-2.0712,-2.1232,0.0,0.0,0.0,0.0,0.0,0.0,0.0,0.0,0.0,0.0,0.0,0.0,0.0,0.0,0.0,0.0,0.0,-4.7623,-4.8282,-4.897,-4.9314,-4.9314,-4.9314,-4.9314,-4.9314,-4.9314,-4.9389,-4.9583,-4.892,0.0,0.0,0.0,0.0,0.0,-5.0319,-5.1097,-5.1775,-5.2452,-5.2713,-5.2637,-5.1959,-5.2129,-5.2621,-5.1944,-5.2144,-5.2713,-5.2713,-5.2713,-5.2713,-5.2713,-5.2713,-5.2713,-5.2713,-5.1744,-5.0543,-4.9866,-4.9158,-4.862,-4.862,-4.862,-4.862,-4.862,-4.862,-4.862,-4.862,-4.7527,-4.6603,-4.6603,-4.548,-4.461,-4.461,-4.461,-4.461,-4.461,-4.461,-4.461,-4.461,-4.461,-4.4317,-4.3655,-4.2355,-4.1601,-4.1601,-4.0889,-4.0489,-4.0489,-4.0489,-4.0489,-4.0489,-4.0489,-4.0489,-4.0489,-4.0489,-4.0489,-4.0489,-4.0489,-4.0489,-2.7253,-2.8196,-2.8776,-2.8121,-2.7458,-2.6412,-2.4448,-2.3587,-2.2727,-2.1066,-2.0699,-2.0799,-2.1106,-2.118,-2.2031,-2.4657,0.0,0.0,0.0,0.0,0.0,0.0,0.0,0.0,0.0,0.0,0.0,0.0,0.0,0.0,0.0,0.0,0.0,-4.7608,-4.7818,-4.7923,-4.7923,-4.7923,-4.7923,-4.7923,-4.7923,-4.7966,-4.8054,0.0,0.0,0.0,0.0,0.0,0.0,-5.081,-5.1513,-5.1775,-5.2452,-5.2713,-5.2683,-5.2467,-5.2529,-5.2683,-5.2467,-5.2529,-5.2713,-5.2713,-5.2713,-5.2621,-5.2159,-5.2344,-5.2529,-5.159,-5.0697,-4.9835,-4.9127,-4.8789,-4.862,-4.862,-4.862,-4.862,-4.862,-4.862,-4.862,-4.862,-4.7896,-4.7142,-4.668,-4.5849,-4.511,-4.4687,-4.461,-4.461,-4.461,-4.461,-4.461,-4.461,-4.461,-4.4533,-4.4317,-4.3485,-4.2756,-4.2309,-4.1632,-4.1047,-4.052,-4.0489,-4.0489,-4.0489,-4.0489,-4.0489,-4.0489,-4.0489,-4.0489,-4.0489,-4.0489,-4.0489,0.0,-2.5962,-2.6472,-2.6141,-2.5592,-2.4801,-2.3483,-2.2856,-2.2217,-2.0974,-2.0848,-2.1033,-2.135,-2.1554,-2.2349,-2.4486,0.0,0.0,0.0,0.0,0.0,0.0,0.0,0.0,0.0,0.0,0.0,0.0,0.0,0.0,0.0,0.0,0.0,-4.6546,-4.704,-4.7309,-4.7309,-4.7309,-4.7309,-4.7309,-4.7396,-4.7424,-4.7439,0.0,0.0,0.0,0.0,0.0,0.0,-5.1256,-5.1852,-5.2129,-5.2544,-5.2713,-5.2683,-5.2421,-5.2498,-5.2667,-5.2421,-5.2498,-5.2667,-5.2406,-5.2159,-5.1867,-5.1451,-5.1621,-5.1728,-5.062,-5.0005,-4.9528,-4.8804,-4.862,-4.862,-4.862,-4.862,-4.862,-4.862,-4.862,-4.862,-4.862,-4.8065,-4.7388,-4.6711,-4.6034,-4.5357,-4.4718,-4.461,-4.461,-4.461,-4.461,-4.461,-4.461,-4.461,-4.461,-4.461,-4.3994,-4.3439,-4.2987,-4.2109,-4.1401,-4.092,-4.0643,-4.0489,-4.0489,-4.0489,-4.0489,-4.0489,-4.0489,-4.0489,-4.0489,-4.0489,-4.0643,0.0,-2.4848,-2.5229,-2.5915,-2.5001,-2.3744,-2.3171,-2.2216,0.0,-2.0842,-2.1106,-2.1437,-2.1574,-2.1902,-2.2394,0.0,0.0,0.0,0.0,0.0,0.0,0.0,0.0,0.0,0.0,0.0,0.0,0.0,0.0,0.0,0.0,0.0,0.0,0.0,-4.6516,-4.716,-4.716,-4.716,-4.716,-4.716,-4.7375,-4.7475,-4.7536,0.0,0.0,0.0,0.0,0.0,0.0,-5.1487,-5.2006,-5.2575,-5.2575,-5.2575,-5.2498,-5.1867,-5.2021,-5.2483,-5.1852,-5.2052,-5.2467,-5.1836,-5.1174,-5.062,-5.062,-5.062,-5.0497,-4.9866,-4.9651,-4.9451,-4.8789,-4.862,-4.862,-4.862,-4.862,-4.862,-4.862,-4.862,-4.862,-4.862,-4.8112,-4.745,-4.6726,-4.608,-4.5418,-4.4733,-4.461,-4.461,-4.461,-4.461,-4.461,-4.461,-4.461,-4.461,-4.461,-4.404,-4.3655,-4.3608,-4.2371,-4.1648,-4.1601,-4.0909,-4.0489,-4.0489,-4.0489,-4.0489,-4.0489,-4.0489,-4.0489,-4.0489,-4.0551,-4.097,-2.0177,0.0,-2.2565,-2.2053,-2.2019,-2.1969,0.0,-2.1394,-2.1445,-2.1276,0.0,0.0,-2.3084,0.0,0.0,0.0,0.0,0.0,0.0,0.0,0.0,0.0,0.0,0.0,0.0,0.0,0.0,0.0,0.0,0.0,0.0,0.0,0.0,0.0,-4.5603,-4.5768,-4.5768,-4.5768,-4.5768,-4.5768,-4.581,-4.6122,0.0,0.0,0.0,0.0,0.0,0.0,0.0,-5.0396,-5.1021,-5.1174,-5.1174,-5.1174,-5.1144,-5.099,-5.1036,-5.1144,-5.099,-5.1036,-5.1144,-5.099,-5.0482,-4.9928,-4.9928,-4.9928,-4.9882,-4.9728,-4.9281,-4.8835,-4.865,-4.862,-4.862,-4.862,-4.862,-4.862,-4.862,-4.862,-4.862,-4.862,-4.8481,-4.8004,-4.6803,-4.6465,-4.5957,-4.4795,-4.461,-4.461,-4.461,-4.461,-4.461,-4.461,-4.461,-4.461,-4.461,-4.4471,-4.4163,-4.3639,-4.2817,-4.214,-4.1617,-4.0909,-4.0489,-4.0489,-4.0489,-4.0489,-4.0489,-4.0489,-4.0489,-4.0505,-4.1093,-4.1432,-1.8544,-1.9877,-2.1091,-2.0849,-2.1147,-2.142,-2.1145,0.0,0.0,0.0,0.0,0.0,0.0,0.0,0.0,0.0,0.0,0.0,0.0,0.0,0.0,0.0,0.0,0.0,0.0,0.0,0.0,0.0,0.0,0.0,0.0,0.0,0.0,0.0,0.0,-4.499,-4.5289,-4.5603,-4.5768,-4.5768,-4.6152,-4.6539,0.0,0.0,0.0,0.0,0.0,0.0,-4.9006,-4.987,-5.042,-5.0697,-5.0697,-5.0697,-5.0697,-5.0697,-5.0697,-5.0697,-5.0697,-5.0497,-5.0236,-5.0236,-4.9758,-4.9189,-4.9189,-4.9189,-4.9189,-4.9189,-4.8912,-4.862,-4.862,-4.862,-4.862,-4.862,-4.862,-4.862,-4.862,-4.862,-4.862,-4.862,-4.8358,-4.7819,-4.6773,-4.6342,-4.5772,-4.4779,-4.461,-4.461,-4.461,-4.461,-4.461,-4.461,-4.461,-4.461,-4.461,-4.461,-4.4471,-4.4086,-4.3417,-4.2894,-4.2509,-4.154,-4.0863,-4.0505,-4.0489,-4.0489,-4.0489,-4.0489,-4.0659,-4.1032,-4.1417,-4.1925,-1.829,-1.9366,-2.0501,-2.0772,-2.1186,-2.1511,-2.1497,0.0,0.0,0.0,0.0,0.0,0.0,0.0,0.0,0.0,0.0,0.0,0.0,0.0,0.0,0.0,0.0,0.0,0.0,0.0,0.0,0.0,0.0,0.0,0.0,0.0,0.0,0.0,0.0,0.0,-4.514,-4.5828,-4.6172,-4.6172,-4.6896,-4.7297,-4.746,-4.8475,0.0,0.0,0.0,0.0,-4.9374,-4.9481,-4.9866,-5.0374,-5.0374,-5.0374,-5.0374,-5.0374,-5.0374,-5.0374,-5.0374,-5.0005,-4.9528,-4.9528,-4.9112,-4.862,-4.862,-4.862,-4.862,-4.862,-4.862,-4.862,-4.862,-4.862,-4.862,-4.862,-4.862,-4.862,-4.862,-4.862,-4.862,-4.862,-4.8065,-4.7388,-4.6711,-4.6034,-4.5357,-4.4718,-4.461,-4.461,-4.461,-4.461,-4.461,-4.461,-4.461,-4.461,-4.461,-4.461,-4.461,-4.461,-4.3978,-4.3562,-4.347,-4.2248,-4.1324,-4.0674,-4.0551,-4.0489,-4.0489,-4.0489,-4.0797,-4.1447,-4.1648,-4.2355,-1.8698,-2.009,-2.0826,-1.9894,-2.0577,-2.1484,-2.1435,0.0,0.0,0.0,0.0,0.0,0.0,0.0,0.0,0.0,0.0,0.0,0.0,0.0,0.0,0.0,0.0,0.0,0.0,0.0,0.0,0.0,0.0,0.0,0.0,0.0,0.0,0.0,0.0,0.0,0.0,-4.5125,-4.5454,-4.5454,-4.56,-4.5945,-4.6514,-4.711,-4.7319,0.0,0.0,0.0,-4.7973,-4.8543,-4.8835,-4.8927,-4.8927,-4.8927,-4.8927,-4.8927,-4.8927,-4.8927,-4.8927,-4.8866,-4.8773,-4.8773,-4.8696,-4.862,-4.862,-4.862,-4.862,-4.862,-4.862,-4.862,-4.862,-4.862,-4.862,-4.862,-4.862,-4.862,-4.862,-4.862,-4.862,-4.862,-4.8065,-4.7388,-4.6711,-4.6034,-4.5357,-4.4718,-4.461,-4.461,-4.461,-4.461,-4.461,-4.461,-4.461,-4.461,-4.461,-4.461,-4.461,-4.461,-4.3978,-4.3362,-4.2771,-4.2001,-4.1555,-4.1432,-4.0797,-4.0489,-4.0489,-4.0489,-4.0551,-4.0689,-4.1894,-4.2571,-1.7647,-1.9066,-2.0246,-2.0028,-2.1711,-2.3288,-2.2887,0.0,0.0,0.0,0.0,0.0,0.0,0.0,0.0,0.0,0.0,0.0,0.0,0.0,0.0,0.0,0.0,0.0,0.0,0.0,0.0,0.0,0.0,0.0,0.0,0.0,0.0,0.0,0.0,0.0,0.0,-4.4781,-4.5484,-4.5858,-4.6217,-4.6546,-4.686,-4.7187,-4.7117,0.0,0.0,-4.7732,-4.7472,-4.7901,-4.8281,-4.862,-4.862,-4.862,-4.862,-4.862,-4.862,-4.862,-4.862,-4.862,-4.862,-4.862,-4.862,-4.862,-4.862,-4.862,-4.862,-4.862,-4.862,-4.862,-4.862,-4.862,-4.862,-4.862,-4.862,-4.862,-4.862,-4.862,-4.8496,-4.8142,-4.7527,-4.685,-4.6172,-4.548,-4.4979,-4.4671,-4.461,-4.461,-4.461,-4.461,-4.461,-4.461,-4.461,-4.461,-4.461,-4.461,-4.461,-4.461,-4.4317,-4.3855,-4.3156,-4.2494,-4.1971,-4.1617,-4.0893,-4.0489,-4.0489,-4.0489,-4.0874,-4.1627,-4.2309,-4.2987,-1.7323,-1.8643,-2.0075,-2.0849,0.0,-2.4437,-2.4626,0.0,0.0,0.0,0.0,0.0,0.0,0.0,0.0,0.0,0.0,0.0,0.0,0.0,0.0,0.0,0.0,0.0,0.0,0.0,0.0,0.0,0.0,0.0,0.0,0.0,0.0,0.0,0.0,0.0,0.0,-4.4556,-4.5319,-4.5816,-4.6516,-4.6873,-4.6916,-4.7129,-4.6969,-4.6569,-4.6966,-4.713,-4.7145,-4.7461,-4.7912,-4.8389,-4.8558,-4.862,-4.862,-4.862,-4.862,-4.862,-4.862,-4.862,-4.862,-4.862,-4.862,-4.862,-4.862,-4.862,-4.862,-4.862,-4.862,-4.862,-4.862,-4.862,-4.862,-4.862,-4.862,-4.862,-4.862,-4.8496,-4.8219,-4.7711,-4.6927,-4.6188,-4.568,-4.5018,-4.461,-4.461,-4.461,-4.461,-4.461,-4.461,-4.461,-4.461,-4.461,-4.461,-4.461,-4.461,-4.461,-4.461,-4.461,-4.4379,-4.387,-4.3033,-4.2371,-4.1848,-4.0951,-4.0582,-4.0751,-4.0751,-4.1401,-4.2602,-4.2756,-4.3371,-1.9323,-2.0369,-2.1265,-2.2366,0.0,0.0,-2.5975,-2.6163,0.0,0.0,0.0,0.0,0.0,0.0,0.0,0.0,0.0,0.0,0.0,0.0,0.0,0.0,0.0,0.0,0.0,0.0,0.0,0.0,0.0,0.0,0.0,0.0,0.0,0.0,0.0,0.0,0.0,0.0,-4.4407,-4.4466,-4.5125,-4.5548,-4.5714,-4.599,-4.6204,-4.632,-4.6545,-4.6625,-4.6711,-4.7342,-4.7635,-4.7742,-4.8373,-4.862,-4.862,-4.862,-4.862,-4.862,-4.862,-4.862,-4.862,-4.862,-4.862,-4.862,-4.862,-4.862,-4.862,-4.862,-4.862,-4.862,-4.862,-4.862,-4.862,-4.862,-4.862,-4.862,-4.862,-4.8127,-4.7665,-4.7619,-4.6557,-4.5649,-4.5603,-4.5018,-4.461,-4.461,-4.461,-4.461,-4.461,-4.461,-4.461,-4.461,-4.461,-4.461,-4.461,-4.461,-4.461,-4.461,-4.461,-4.4594,-4.4548,-4.3279,-4.2586,-4.254,-4.1181,-4.0863,-4.1524,-4.1524,-4.1894,-4.2617,-4.3217,-4.3593,-1.8724,-1.9976,-2.1254,-2.2083,0.0,0.0,0.0,0.0,0.0,0.0,0.0,0.0,0.0,0.0,0.0,0.0,0.0,0.0,0.0,0.0,0.0,0.0,0.0,0.0,0.0,0.0,0.0,0.0,0.0,0.0,0.0,0.0,0.0,0.0,0.0,0.0,0.0,0.0,-4.3494,-4.312,-4.4586,-4.5413,-4.5604,-4.5701,-4.5879,-4.6082,-4.6324,-4.6404,-4.6459,-4.684,-4.6973,-4.7004,-4.7265,-4.7619,-4.7989,-4.7989,-4.825,-4.862,-4.862,-4.862,-4.862,-4.862,-4.862,-4.862,-4.862,-4.862,-4.862,-4.862,-4.862,-4.862,-4.862,-4.862,-4.862,-4.862,-4.862,-4.8496,-4.8081,-4.7788,-4.7357,-4.6511,-4.5942,-4.5449,-4.5033,-4.4779,-4.461,-4.461,-4.461,-4.461,-4.461,-4.461,-4.461,-4.461,-4.461,-4.461,-4.461,-4.461,-4.461,-4.461,-4.461,-4.461,-4.461,-4.331,-4.2602,-4.2602,-4.1212,-4.0628,-4.094,-4.1386,-4.194,-4.2633,-4.33,-4.3824,-1.8771,-2.0023,-2.1486,0.0,0.0,0.0,0.0,0.0,0.0,0.0,0.0,0.0,0.0,0.0,0.0,0.0,0.0,0.0,0.0,0.0,0.0,0.0,0.0,0.0,0.0,0.0,0.0,0.0,0.0,0.0,0.0,0.0,0.0,0.0,0.0,0.0,0.0,0.0,-4.3105,-4.2686,-4.4032,-4.4798,-4.5001,-4.5082,-4.5203,-4.5418,-4.5657,-4.576,-4.5791,-4.6148,-4.6403,-4.6603,-4.6603,-4.688,-4.7281,-4.7281,-4.7573,-4.7973,-4.7973,-4.7973,-4.8004,-4.8235,-4.8296,-4.8327,-4.8558,-4.862,-4.862,-4.862,-4.862,-4.862,-4.862,-4.862,-4.862,-4.862,-4.845,-4.8173,-4.7711,-4.7265,-4.6696,-4.5772,-4.5418,-4.5126,-4.4702,-4.461,-4.461,-4.461,-4.461,-4.461,-4.461,-4.461,-4.461,-4.461,-4.461,-4.461,-4.461,-4.461,-4.461,-4.461,-4.461,-4.461,-4.461,-4.331,-4.2602,-4.2602,-4.1212,-4.0597,-4.0863,-4.1355,-4.2048,-4.2925,-4.3408,-4.3978,-1.9913,-2.0875,0.0,0.0,0.0,0.0,0.0,0.0,0.0,0.0,0.0,0.0,0.0,0.0,0.0,0.0,0.0,0.0,0.0,0.0,0.0,0.0,0.0,0.0,0.0,0.0,0.0,0.0,0.0,0.0,0.0,0.0,0.0,0.0,0.0,0.0,0.0,0.0,-4.3275,-4.3275,-4.3275,-4.3409,-4.3729,-4.391,-4.4104,-4.432,-4.4511,-4.461,-4.4671,-4.5295,-4.5972,-4.6573,-4.6573,-4.6573,-4.6588,-4.6588,-4.6588,-4.6603,-4.6603,-4.6603,-4.6711,-4.7373,-4.7588,-4.7711,-4.8389,-4.8589,-4.8589,-4.8589,-4.8589,-4.8589,-4.8589,-4.8589,-4.8604,-4.8604,-4.8081,-4.7588,-4.7588,-4.6542,-4.5588,-4.5572,-4.5033,-4.461,-4.461,-4.461,-4.461,-4.461,-4.461,-4.461,-4.461,-4.461,-4.461,-4.461,-4.461,-4.461,-4.461,-4.461,-4.461,-4.461,-4.461,-4.461,-4.461,-4.331,-4.2602,-4.2602,-4.1197,-4.0843,-4.1586,-4.1601,-4.2279,-4.3593,-4.3608,-4.3978,-1.9403,0.0,0.0,0.0,0.0,0.0,0.0,0.0,0.0,0.0,0.0,0.0,0.0,0.0,0.0,0.0,0.0,0.0,0.0,0.0,0.0,0.0,0.0,0.0,0.0,0.0,0.0,0.0,0.0,0.0,0.0,0.0,0.0,0.0,0.0,0.0,0.0,0.0,-4.1953,-4.1953,-4.1953,-4.2563,-4.369,-4.3769,-4.3988,-4.4281,-4.4358,-4.4473,-4.4641,-4.4825,-4.4987,-4.5172,-4.5172,-4.5464,-4.5895,-4.5895,-4.6188,-4.6603,-4.6603,-4.6603,-4.6634,-4.6834,-4.6896,-4.6927,-4.7127,-4.7188,-4.7188,-4.7188,-4.7188,-4.7188,-4.7188,-4.7188,-4.7311,-4.7788,-4.7388,-4.6757,-4.6296,-4.5865,-4.5449,-4.501,-4.4764,-4.461,-4.461,-4.461,-4.461,-4.461,-4.461,-4.461,-4.461,-4.461,-4.461,-4.461,-4.461,-4.461,-4.461,-4.461,-4.461,-4.461,-4.461,-4.4409,-4.3932,-4.3048,-4.2386,-4.1909,-4.1001,-4.0597,-4.0812,-4.1355,-4.2048,-4.291,-4.3393,-4.3978,-2.0055,0.0,0.0,0.0,0.0,0.0,0.0,0.0,0.0,0.0,0.0,0.0,0.0,0.0,0.0,0.0,0.0,0.0,0.0,0.0,0.0,0.0,0.0,0.0,0.0,0.0,0.0,0.0,0.0,0.0,0.0,0.0,0.0,0.0,0.0,0.0,0.0,0.0,0.0,-4.1422,-4.1422,-4.188,-4.2775,-4.293,-4.3297,-4.3823,-4.4236,-4.4511,-4.461,-4.461,-4.461,-4.461,-4.461,-4.4872,-4.5187,-4.5187,-4.5449,-4.5788,-4.5788,-4.5788,-4.5834,-4.6111,-4.6188,-4.6249,-4.6511,-4.6603,-4.6603,-4.6603,-4.6603,-4.6603,-4.6603,-4.6388,-4.6372,-4.7034,-4.668,-4.608,-4.568,-4.5372,-4.5064,-4.4702,-4.461,-4.461,-4.461,-4.461,-4.461,-4.461,-4.461,-4.461,-4.461,-4.461,-4.461,-4.461,-4.461,-4.461,-4.461,-4.461,-4.461,-4.461,-4.461,-4.4156,-4.3217,-4.2817,-4.2294,-4.1617,-4.0893,-4.0489,-4.0489,-4.097,-4.1524,-4.2217,-4.2879,-4.3541,0.0,0.0,0.0,0.0,0.0,0.0,0.0,0.0,0.0,0.0,0.0,0.0,0.0,0.0,0.0,0.0,0.0,0.0,0.0,0.0,0.0,0.0,0.0,0.0,0.0,0.0,0.0,0.0,0.0,0.0,0.0,0.0,0.0,0.0,0.0,0.0,0.0,0.0,0.0,0.0,-4.1205,-4.1205,-4.1242,-4.17,-4.2296,-4.2963,-4.3937,-4.4402,-4.444,-4.444,-4.4433,-4.4533,-4.4533,-4.4564,-4.461,-4.461,-4.461,-4.461,-4.461,-4.461,-4.4718,-4.5295,-4.5495,-4.5603,-4.6219,-4.6419,-4.6419,-4.6419,-4.6419,-4.6419,-4.6419,-4.5957,-4.5649,-4.6265,-4.5942,-4.5495,-4.5495,-4.5041,-4.461,-4.461,-4.461,-4.461,-4.461,-4.461,-4.461,-4.461,-4.461,-4.461,-4.461,-4.461,-4.461,-4.461,-4.461,-4.461,-4.461,-4.461,-4.461,-4.461,-4.461,-4.3987,-4.2663,-4.2602,-4.2248,-4.1509,-4.0828,-4.0489,-4.0489,-4.0489,-4.0858,-4.1617,-4.2232,-4.2894,0.0,0.0,0.0,0.0,0.0,0.0,0.0,0.0,0.0,0.0,0.0,0.0,0.0,0.0,0.0,0.0,0.0,0.0,0.0,0.0,0.0,0.0,0.0,0.0,0.0,0.0,0.0,0.0,0.0,0.0,0.0,0.0,0.0,0.0,0.0,0.0,-3.9634,-3.9768,-3.9843,0.0,-3.9843,-3.9843,-3.9873,-4.1018,-4.1761,-4.2249,-4.2609,-4.287,-4.3033,-4.3033,-4.3325,-4.3824,-4.3824,-4.4148,-4.461,-4.461,-4.461,-4.461,-4.461,-4.461,-4.4641,-4.4779,-4.4841,-4.4856,-4.501,-4.5041,-4.5041,-4.5041,-4.5041,-4.5041,-4.5041,-4.491,-4.4872,-4.4987,-4.491,-4.4841,-4.4841,-4.4718,-4.461,-4.461,-4.461,-4.461,-4.461,-4.461,-4.461,-4.461,-4.461,-4.461,-4.461,-4.461,-4.461,-4.461,-4.461,-4.461,-4.461,-4.461,-4.461,-4.461,-4.461,-4.3987,-4.2663,-4.2602,-4.2017,-4.0751,-4.0566,-4.0489,-4.0489,-4.0489,-4.0858,-4.1601,-4.1755,-4.2448,0.0,0.0,0.0,0.0,0.0,0.0,0.0,0.0,0.0,0.0,0.0,0.0,0.0,0.0,0.0,0.0,0.0,0.0,0.0,0.0,0.0,0.0,0.0,0.0,0.0,0.0,0.0,0.0,0.0,0.0,0.0,0.0,0.0,0.0,0.0,0.0,-3.8452,-3.8452,-3.8452,-3.8467,-3.8867,-3.9288,-3.9706,-4.0626,-4.1277,-4.1675,-4.2105,-4.2404,-4.2602,-4.2602,-4.2802,-4.311,-4.311,-4.3547,-4.4132,-4.4132,-4.4332,-4.461,-4.461,-4.461,-4.461,-4.461,-4.461,-4.461,-4.461,-4.461,-4.461,-4.461,-4.461,-4.461,-4.461,-4.461,-4.461,-4.461,-4.461,-4.461,-4.461,-4.461,-4.461,-4.461,-4.461,-4.461,-4.461,-4.461,-4.461,-4.461,-4.461,-4.461,-4.461,-4.461,-4.461,-4.461,-4.461,-4.461,-4.461,-4.461,-4.461,-4.461,-4.4317,-4.3648,-4.2648,-4.2294,-4.1617,-4.052,-4.0489,-4.0489,-4.0489,-4.0489,-4.0689,-4.1093,-4.1447,-4.1971,0.0,0.0,0.0,0.0,0.0,0.0,0.0,0.0,0.0,0.0,0.0,0.0,0.0,0.0,0.0,0.0,0.0,0.0,0.0,0.0,0.0,0.0,0.0,0.0,0.0,0.0,0.0,0.0,0.0,0.0,0.0,0.0,0.0,0.0,0.0,-3.7404,-3.7404,-3.7404,-3.7404,-3.7419,-3.8112,-3.8857,-3.9607,-4.01,-4.0622,-4.1168,-4.1719,-4.2052,-4.2248,-4.2248,-4.2325,-4.2432,-4.2432,-4.2833,-4.3439,-4.3439,-4.387,-4.444,-4.444,-4.4517,-4.461,-4.461,-4.461,-4.461,-4.461,-4.461,-4.461,-4.461,-4.461,-4.461,-4.461,-4.461,-4.461,-4.461,-4.461,-4.461,-4.461,-4.461,-4.461,-4.461,-4.461,-4.461,-4.461,-4.461,-4.461,-4.461,-4.461,-4.461,-4.461,-4.461,-4.4579,-4.4456,-4.444,-4.4394,-4.4249,-4.4233,-4.4233,-4.4233,-4.3747,-4.311,-4.2463,-4.1894,-4.1263,-4.0505,-4.0489,-4.0489,-4.0489,-4.0489,-4.0489,-4.0505,-4.114,-4.1478,0.0,0.0,0.0,0.0,0.0,0.0,0.0,0.0,0.0,0.0,0.0,0.0,0.0,0.0,0.0,0.0,0.0,0.0,0.0,0.0,0.0,0.0,0.0,0.0,0.0,0.0,0.0,0.0,0.0,0.0,0.0,0.0,0.0,-3.7404,-3.7404,0.0,-3.7404,-3.7404,-3.7404,-3.7404,-3.7509,-3.7736,-3.8028,-3.8656,-3.9485,-4.0449,-4.0541,-4.0642,-4.0766,-4.0766,-4.117,-4.174,-4.174,-4.214,-4.274,-4.274,-4.3156,-4.3747,-4.3747,-4.4117,-4.461,-4.461,-4.461,-4.461,-4.461,-4.461,-4.461,-4.461,-4.461,-4.461,-4.461,-4.461,-4.461,-4.461,-4.461,-4.461,-4.461,-4.461,-4.461,-4.461,-4.461,-4.461,-4.461,-4.461,-4.461,-4.461,-4.461,-4.461,-4.461,-4.461,-4.4394,-4.3809,-4.3747,-4.3516,-4.2925,-4.2879,-4.2879,-4.2879,-4.2786,-4.2432,-4.1755,-4.1648,-4.1263,-4.0505,-4.0489,-4.0489,-4.0489,-4.0489,-4.0489,-4.0489,-4.0597,-4.1001,0.0,0.0,0.0,0.0,0.0,0.0,0.0,0.0,0.0,0.0,0.0,0.0,0.0,0.0,0.0,0.0,0.0,0.0,0.0,0.0,0.0,0.0,0.0,0.0,0.0,0.0,0.0,0.0,0.0,0.0,0.0,-3.6342,-3.6342,-3.6342,-3.6342,0.0,-3.6342,-3.6342,-3.654,-3.7019,-3.7019,-3.7315,-3.7876,-3.828,-3.8918,-3.9696,-4.0128,-4.0366,-4.0489,-4.0489,-4.0674,-4.1001,-4.1001,-4.1432,-4.2048,-4.2048,-4.2463,-4.3033,-4.3033,-4.3501,-4.4055,-4.4055,-4.4302,-4.461,-4.461,-4.461,-4.461,-4.461,-4.461,-4.461,-4.461,-4.461,-4.461,-4.461,-4.461,-4.461,-4.461,-4.461,-4.461,-4.461,-4.461,-4.461,-4.461,-4.461,-4.461,-4.461,-4.461,-4.461,-4.461,-4.461,-4.4348,-4.3685,-4.3608,-4.3347,-4.2663,-4.2602,-4.2602,-4.2602,-4.2248,-4.1909,-4.1617,-4.1217,-4.0812,-4.0505,-4.0489,-4.0489,-4.0489,-4.0489,-4.0489,-4.0489,-4.0489,-4.0659,0.0,0.0,0.0,0.0,0.0,0.0,0.0,0.0,0.0,0.0,0.0,0.0,0.0,0.0,0.0,0.0,0.0,0.0,0.0,0.0,0.0,0.0,0.0,0.0,0.0,0.0,0.0,0.0,0.0,0.0,0.0,-3.4996,-3.4996,-3.4996,-3.516,-3.525,-3.525,-3.5415,-3.5794,-3.6408,-3.6408,-3.6778,-3.7494,-3.7824,-3.8259,-3.8815,-3.952,-3.9987,-4.0243,-4.0243,-4.0336,-4.0489,-4.0489,-4.0863,-4.1324,-4.1324,-4.1771,-4.2355,-4.2355,-4.2771,-4.3393,-4.3547,-4.3947,-4.4394,-4.4564,-4.461,-4.461,-4.461,-4.461,-4.461,-4.461,-4.461,-4.461,-4.461,-4.461,-4.461,-4.461,-4.461,-4.461,-4.461,-4.461,-4.461,-4.461,-4.461,-4.461,-4.461,-4.461,-4.461,-4.461,-4.4471,-4.4101,-4.3439,-4.3208,-4.2802,-4.2125,-4.2078,-4.2078,-4.2078,-4.1601,-4.1324,-4.1324,-4.0782,-4.0489,-4.0489,-4.0489,-4.0489,-4.0489,-4.0489,-4.0489,-4.0489,-4.0489,-4.0489,0.0,0.0,0.0,0.0,0.0,0.0,0.0,0.0,0.0,0.0,0.0,0.0,0.0,0.0,0.0,0.0,0.0,0.0,0.0,0.0,0.0,0.0,0.0,0.0,0.0,0.0,0.0,0.0,0.0,0.0,-3.3604,-3.3604,-3.3604,-3.3604,-3.4234,-3.4563,-3.4563,-3.5175,-3.5519,-3.5549,-3.5549,-3.5744,-3.6127,-3.6765,-3.7279,-3.7646,-3.829,-3.8952,-3.9536,-3.9536,-3.992,-4.0489,-4.0489,-4.052,-4.0551,-4.0551,-4.1032,-4.1648,-4.1648,-4.2094,-4.2756,-4.3408,-4.3624,-4.3778,-4.4425,-4.461,-4.461,-4.461,-4.461,-4.461,-4.461,-4.461,-4.461,-4.461,-4.461,-4.461,-4.461,-4.461,-4.461,-4.461,-4.461,-4.461,-4.461,-4.461,-4.461,-4.461,-4.461,-4.461,-4.461,-4.4055,-4.3408,-4.2725,-4.2078,-4.1417,-4.0659,-4.0597,-4.0597,-4.0597,-4.0566,-4.0551,-4.0551,-4.0505,-4.0489,-4.0489,-4.0489,-4.0489,-4.0489,-4.0489,-4.0489,-4.0489,-4.0489,-4.0489,0.0,0.0,0.0,0.0,0.0,0.0,0.0,0.0,0.0,0.0,0.0,0.0,0.0,0.0,0.0,0.0,0.0,0.0,0.0,0.0,0.0,0.0,0.0,0.0,0.0,0.0,0.0,0.0,0.0,0.0,-3.3499,-3.3499,-3.3499,-3.3499,-3.3724,-3.3844,-3.3844,-3.4098,-3.4427,-3.4846,-3.4846,-3.5135,-3.5683,-3.6135,-3.6434,-3.6576,-3.7012,-3.7846,-3.8877,-3.8877,-3.9228,-3.9844,-3.9844,-4.0105,-4.0489,-4.0489,-4.0659,-4.0874,-4.0874,-4.137,-4.2001,-4.2232,-4.2915,-4.3655,-4.3901,-4.4271,-4.461,-4.461,-4.461,-4.461,-4.461,-4.461,-4.461,-4.461,-4.461,-4.461,-4.461,-4.461,-4.461,-4.461,-4.461,-4.461,-4.461,-4.461,-4.461,-4.461,-4.424,-4.3978,-4.3978,-4.3356,-4.2694,-4.2032,-4.174,-4.1309,-4.0551,-4.0489,-4.0489,-4.0489,-4.0489,-4.0489,-4.0489,-4.0489,-4.0489,-4.0489,-4.0489,-4.0489,-4.0489,-4.0489,-4.0489,-4.0489,-4.0489,-4.0489,-1.676,0.0,0.0,0.0,0.0,0.0,0.0,0.0,0.0,0.0,0.0,0.0,0.0,0.0,0.0,0.0,0.0,0.0,0.0,0.0,0.0,0.0,0.0,0.0,0.0,0.0,0.0,0.0,0.0,0.0,-3.2841,-3.2841,-3.2946,-3.3155,-3.3155,-3.3275,-3.3499,-3.3499,-3.3709,-3.4174,-3.4399,-3.4775,-3.5257,-3.5708,-3.5958,-3.6085,-3.6289,-3.7059,-3.8169,-3.8169,-3.8569,-3.92,-3.9398,-3.9767,-4.0182,-4.0413,-4.0489,-4.0489,-4.0489,-4.0797,-4.1278,-4.1524,-4.2186,-4.3023,-4.347,-4.3917,-4.4317,-4.4548,-4.461,-4.461,-4.461,-4.461,-4.461,-4.461,-4.461,-4.461,-4.461,-4.461,-4.461,-4.461,-4.461,-4.461,-4.461,-4.461,-4.461,-4.461,-4.404,-4.3608,-4.3608,-4.2802,-4.2094,-4.1648,-4.1386,-4.1047,-4.0536,-4.0489,-4.0489,-4.0489,-4.0489,-4.0489,-4.0489,-4.0489,-4.0489,-4.0489,-4.0489,-4.0489,-4.0489,-4.0489,-4.0489,-4.0489,-4.0489,-4.0489,0.0,0.0,0.0,0.0,0.0,0.0,0.0,0.0,0.0,0.0,0.0,0.0,0.0,0.0,0.0,0.0,0.0,0.0,0.0,0.0,0.0,0.0,0.0,0.0,0.0,0.0,0.0,0.0,0.0,-3.1511,-3.1511,-3.1511,-3.1795,-3.2437,-3.2452,-3.2796,-3.3425,-3.344,-3.344,-3.3469,-3.4144,-3.4506,-3.4693,-3.5356,-3.5849,-3.618,-3.6196,-3.6688,-3.7477,-3.7477,-3.7877,-3.8554,-3.92,-3.9493,-3.9567,-4.0213,-4.0474,-4.0489,-4.0489,-4.0489,-4.0612,-4.134,-4.1586,-4.1832,-4.3162,-4.3578,-4.3747,-4.4409,-4.4594,-4.461,-4.461,-4.461,-4.461,-4.461,-4.461,-4.461,-4.461,-4.461,-4.461,-4.461,-4.461,-4.461,-4.461,-4.4594,-4.4594,-4.4594,-4.3994,-4.3547,-4.3547,-4.2371,-4.1571,-4.1571,-4.094,-4.0489,-4.0489,-4.0489,-4.0489,-4.0489,-4.0489,-4.0489,-4.0489,-4.0489,-4.0489,-4.0489,-4.0489,-4.0489,-4.0489,-4.0489,-4.0489,-4.0489,-4.0489,-4.0489,-1.5801,0.0,0.0,0.0,0.0,0.0,0.0,0.0,0.0,0.0,0.0,0.0,0.0,0.0,0.0,0.0,0.0,0.0,0.0,0.0,0.0,0.0,0.0,0.0,0.0,0.0,0.0,0.0,0.0,-3.1511,-3.1511,-3.1511,-3.1585,-3.1765,-3.178,-3.1869,-3.2049,-3.2049,-3.2288,-3.2781,-3.2961,-3.3381,-3.4,-3.4817,-3.5307,-3.5508,-3.6137,-3.6553,-3.6769,-3.6769,-3.7169,-3.78,-3.7984,-3.8662,-3.9505,-3.9705,-4.0074,-4.0489,-4.0489,-4.0489,-4.052,-4.072,-4.117,-4.1663,-4.2032,-4.2838,-4.3639,-4.3824,-4.424,-4.461,-4.461,-4.461,-4.461,-4.461,-4.461,-4.461,-4.461,-4.461,-4.461,-4.461,-4.461,-4.461,-4.461,-4.4209,-4.3886,-4.3886,-4.2879,-4.214,-4.214,-4.137,-4.0782,-4.0782,-4.0612,-4.0489,-4.0489,-4.0489,-4.0489,-4.0489,-4.0489,-4.0489,-4.0489,-4.0489,-4.0489,-4.0489,-4.0489,-4.0489,-4.0489,-4.0489,-4.0489,-4.0489,-4.0489,-4.0489,-1.6347,-1.6782,0.0,0.0,0.0,0.0,0.0,0.0,0.0,0.0,0.0,0.0,0.0,0.0,0.0,0.0,0.0,0.0,0.0,0.0,0.0,0.0,0.0,0.0,0.0,0.0,0.0,0.0,-3.0717,-3.0717,-3.0717,-3.0717,-3.0808,-3.1062,-3.1077,-3.1212,-3.1511,-3.1511,-3.1705,-3.2079,-3.2377,-3.2736,-3.3246,-3.4061,-3.4546,-3.4744,-3.56,-3.5999,-3.6091,-3.6368,-3.6722,-3.7107,-3.7384,-3.7984,-3.8739,-3.9308,-3.9736,-4.0105,-4.0397,-4.0489,-4.0489,-4.0489,-4.0782,-4.1217,-4.1509,-4.214,-4.2802,-4.3079,-4.3448,-4.3756,-4.3756,-4.3756,-4.3756,-4.3756,-4.3756,-4.3756,-4.3756,-4.3756,-4.3925,-4.4502,-4.4379,-4.4194,-4.4194,-4.3639,-4.3171,-4.3171,-4.2279,-4.1601,-4.1601,-4.097,-4.0489,-4.0489,-4.0489,-4.0489,-4.0489,-4.0489,-4.0489,-4.0489,-4.0489,-4.0489,-4.0489,-4.0489,-4.0489,-4.0489,-4.0489,-4.0489,-4.0489,-4.0489,-4.0489,-4.0489,-4.0489,-4.0489,-1.7233,-1.7362,-1.8102,0.0,0.0,0.0,0.0,-1.9328,0.0,0.0,0.0,0.0,0.0,0.0,0.0,0.0,0.0,0.0,0.0,0.0,0.0,0.0,0.0,0.0,0.0,0.0,0.0,-2.9606,-2.9606,-2.9606,-2.9606,-2.9606,-2.9834,-3.0387,-3.0402,-3.0731,-3.1376,-3.1391,-3.1436,-3.1511,-3.2123,-3.2437,-3.2452,-3.3276,-3.3758,-3.3999,-3.4774,-3.5278,-3.5568,-3.6122,-3.643,-3.6553,-3.7153,-3.743,-3.7646,-3.8846,-3.9351,-3.9582,-4.0166,-4.0428,-4.0489,-4.0489,-4.0489,-4.0612,-4.1294,-4.154,-4.174,-4.2417,-4.2602,-4.2602,-4.2602,-4.2602,-4.2602,-4.2602,-4.2602,-4.2602,-4.2602,-4.2602,-4.2956,-4.4141,-4.3917,-4.3501,-4.3501,-4.2925,-4.2494,-4.2494,-4.1909,-4.1478,-4.1478,-4.0924,-4.0489,-4.0489,-4.0489,-4.0489,-4.0489,-4.0489,-4.0489,-4.0489,-4.0489,-4.0489,-4.0489,-4.0489,-4.0489,-4.0489,-4.0489,-4.0489,-4.0489,-4.0489,-4.0489,-4.0489,-4.0489,-4.0489,-1.849,-1.9102,-1.9627,-1.7593,0.0,0.0,0.0,-1.7356,0.0,0.0,0.0,0.0,0.0,0.0,0.0,0.0,0.0,0.0,0.0,0.0,0.0,0.0,0.0,0.0,0.0,0.0,0.0,-2.9606,-2.9606,-2.9606,-2.9606,-2.9606,-2.9666,-2.9786,-2.9786,-3.0058,-3.0702,-3.0717,-3.0957,-3.1511,-3.179,-3.1994,-3.2123,-3.292,-3.3383,-3.3558,-3.4294,-3.4983,-3.5521,-3.566,-3.5999,-3.6507,-3.663,-3.7015,-3.7538,-3.78,-3.8585,-3.9539,-3.9644,-4.0043,-4.0489,-4.0489,-4.0489,-4.052,-4.0659,-4.114,-4.174,-4.2417,-4.2602,-4.2602,-4.2602,-4.2602,-4.2602,-4.2602,-4.2602,-4.2602,-4.2602,-4.2602,-4.2694,-4.294,-4.2879,-4.2802,-4.2802,-4.2232,-4.1801,-4.1801,-4.1186,-4.0705,-4.0705,-4.0582,-4.0489,-4.0489,-4.0489,-4.0489,-4.0489,-4.0489,-4.0489,-4.0489,-4.0489,-4.0489,-4.0489,-4.0489,-4.0489,-4.0489,-4.0489,-4.0489,-4.0489,-4.0489,-4.0489,-4.0489,-4.0489,-4.0489,-1.9284,-1.9816,-2.0374,-1.9044,0.0,0.0,0.0,0.0,0.0,0.0,0.0,0.0,0.0,0.0,0.0,0.0,0.0,0.0,0.0,0.0,0.0,0.0,0.0,0.0,0.0,0.0,-2.8244,-2.8588,-2.8603,-2.8603,-2.8603,-2.8603,-2.8768,-2.9086,-2.9086,-2.94,-3.0043,-3.0043,-3.0372,-3.0987,-3.1116,-3.1409,-3.1927,-3.2387,-3.2667,-3.2824,-3.3616,-3.4121,-3.4506,-3.5199,-3.5722,-3.6014,-3.6368,-3.6707,-3.703,-3.7384,-3.8138,-3.9062,-3.9367,-3.992,-4.0489,-4.0489,-4.0489,-4.0489,-4.0489,-4.0751,-4.114,-4.1443,-4.1535,-4.1535,-4.1535,-4.1535,-4.1535,-4.1535,-4.1535,-4.1535,-4.1535,-4.1535,-4.1535,-4.1535,-4.1535,-4.1694,-4.2048,-4.1524,-4.1063,-4.1063,-4.072,-4.0489,-4.0489,-4.0489,-4.0489,-4.0489,-4.0489,-4.0489,-4.0489,-4.0489,-4.0489,-4.0489,-4.0489,-4.0489,-4.0489,-4.0489,-4.0489,-4.0489,-4.0489,-4.0489,-4.0489,-4.0489,-4.0489,-4.0489,-4.0489,-4.0489,0.0,0.0,0.0,0.0,0.0,-1.9241,0.0,0.0,0.0,0.0,0.0,0.0,0.0,0.0,0.0,0.0,0.0,0.0,0.0,0.0,0.0,0.0,0.0,0.0,0.0,0.0,0.0,-2.7345,-2.7046,-2.7061,-2.757,-2.748,-2.772,-2.8382,-2.8412,-2.8727,-2.9412,-2.9427,-2.9774,-3.0507,-3.0563,-3.1022,-3.1841,-3.1981,-3.215,-3.2277,-3.2926,-3.3275,-3.349,-3.4614,-3.5275,-3.5583,-3.623,-3.6492,-3.6553,-3.7107,-3.7738,-3.8385,-3.8939,-3.9628,-4.0305,-4.0305,-4.0382,-4.0489,-4.0489,-4.0489,-4.0489,-4.0489,-4.0489,-4.0489,-4.0489,-4.0489,-4.0489,-4.0489,-4.0489,-4.0489,-4.0489,-4.0489,-4.0489,-4.0489,-4.0489,-4.0674,-4.1294,-4.0874,-4.0489,-4.0489,-4.0489,-4.0489,-4.0489,-4.0489,-4.0489,-4.0489,-4.0489,-4.0489,-4.0489,-4.0489,-4.0489,-4.0489,-4.0489,-4.0489,-4.0489,-4.0489,-4.0489,-4.0489,-4.0489,-4.0489,-4.0489,-4.0489,-4.0489,-4.0489,-4.0489,-4.0489,0.0,0.0,0.0,0.0,-2.1041,0.0,0.0,0.0,0.0,0.0,0.0,0.0,0.0,0.0,0.0,0.0,0.0,0.0,0.0,0.0,0.0,0.0,0.0,0.0,0.0,0.0,0.0,-2.6581,-2.5046,-2.5076,-2.7465,-2.7046,-2.7031,-2.769,-2.7705,-2.8049,-2.8712,-2.8712,-2.931,-3.0507,-3.0815,-3.1316,-3.1996,-3.2247,-3.237,-3.237,-3.2475,-3.2844,-3.3413,-3.3567,-3.4368,-3.5583,-3.623,-3.6492,-3.6507,-3.6584,-3.703,-3.7631,-3.7707,-3.8569,-3.9598,-3.9598,-4.0013,-4.0489,-4.0489,-4.0489,-4.0489,-4.0489,-4.0489,-4.0489,-4.0489,-4.0489,-4.0489,-4.0489,-4.0489,-4.0489,-4.0489,-4.0489,-4.0489,-4.0489,-4.0489,-4.052,-4.0597,-4.0551,-4.0489,-4.0489,-4.0489,-4.0489,-4.0489,-4.0489,-4.0489,-4.0489,-4.0489,-4.0489,-4.0489,-4.0489,-4.0489,-4.0489,-4.0489,-4.0489,-4.0489,-4.0489,-4.0489,-4.0489,-4.0489,-4.0489,-4.0489,-4.0489,-4.0489,-4.0489,-4.0489,-4.0489,0.0,0.0,0.0,0.0,0.0,0.0,0.0,0.0,-1.6727,0.0,0.0,0.0,0.0,0.0,0.0,0.0,0.0,0.0,0.0,0.0,0.0,0.0,0.0,0.0,0.0,0.0,0.0,0.0,0.0,-2.4433,-2.6333,-2.6527,-2.6746,-2.7016,-2.7405,-2.7735,-2.8034,-2.8034,-2.8472,-2.94,-2.9549,-3.0226,-3.142,-3.1543,-3.1879,-3.2398,-3.2398,-3.2552,-3.2844,-3.3244,-3.3752,-3.4383,-3.5476,-3.6153,-3.6492,-3.6492,-3.6923,-3.7507,-3.7507,-3.8123,-3.8967,-3.9351,-3.9936,-4.0489,-4.0489,-4.0489,-4.0489,-4.0489,-4.0489,-4.0489,-4.0489,-4.0489,-4.0489,-4.0489,-4.0489,-4.0489,-4.0489,-4.0489,-4.0489,-4.0489,-4.0489,-4.0489,-4.0489,-4.0489,-4.0489,-4.0489,-4.0489,-4.0489,-4.0489,-4.0489,-4.0489,-4.0489,-4.0489,-4.0489,-4.0489,-4.0489,-4.0489,-4.0489,-4.0489,-4.0489,-4.0489,-4.0489,-4.0489,-4.0489,-4.0489,-4.0489,-4.0489,-4.0489,-4.0489,-4.0489,-4.0489,-4.0489,-2.2826,0.0,0.0,0.0,0.0,0.0,0.0,0.0,0.0,0.0,0.0,0.0,0.0,0.0,0.0,0.0,0.0,0.0,0.0,0.0,0.0,0.0,0.0,0.0,0.0,0.0,0.0,0.0,0.0,0.0,-2.5217,-2.5615,-2.6019,-2.6572,-2.7076,-2.7405,-2.76,-2.765,-2.797,-2.8607,-2.867,-2.9493,-3.0995,-3.1049,-3.1564,-3.2398,-3.2398,-3.2398,-3.2428,-3.2921,-3.3314,-3.3702,-3.4725,-3.567,-3.646,-3.6477,-3.6799,-3.723,-3.723,-3.7661,-3.8369,-3.9198,-3.9813,-4.0259,-4.0443,-4.0489,-4.0489,-4.0489,-4.0489,-4.0489,-4.0489,-4.0489,-4.0489,-4.0489,-4.0489,-4.0489,-4.0489,-4.0489,-4.0489,-4.0489,-4.0489,-4.0489,-4.0489,-4.0489,-4.0489,-4.0489,-4.0489,-4.0489,-4.0489,-4.0489,-4.0489,-4.0489,-4.0489,-4.0489,-4.0489,-4.0489,-4.0489,-4.0489,-4.0489,-4.0489,-4.0489,-4.0489,-4.0489,-4.0489,-4.0489,-4.0489,-4.0489,-4.0489,-4.0489,-4.0489,-4.0489,-4.0489,0.0,0.0,0.0,-2.0554,0.0,0.0,0.0,0.0,-1.8627,0.0,0.0,0.0,0.0,0.0,0.0,0.0,0.0,0.0,0.0,0.0,0.0,0.0,0.0,0.0,0.0,0.0,0.0,0.0,0.0,0.0,-2.4425,-2.4044,-2.4582,-2.6527,-2.6617,-2.6941,-2.7585,-2.774,-2.8046,-2.8607,-2.8852,-2.9678,-3.0995,-3.1143,-3.1631,-3.2398,-3.2398,-3.2398,-3.2398,-3.2413,-3.3115,-3.4171,-3.4218,-3.5102,-3.634,-3.6445,-3.6507,-3.6522,-3.6522,-3.6969,-3.7754,-3.9059,-3.949,-3.9644,-4.029,-4.0489,-4.0489,-4.0489,-4.0489,-4.0489,-4.0489,-4.0489,-4.0489,-4.0489,-4.0489,-4.0489,-4.0489,-4.0489,-4.0489,-4.0489,-4.0489,-4.0489,-4.0489,-4.0489,-4.0489,-4.0489,-4.0489,-4.0489,-4.0489,-4.0489,-4.0489,-4.0489,-4.0489,-4.0489,-4.0489,-4.0489,-4.0489,-4.0489,-4.0489,-4.0489,-4.0489,-4.0489,-4.0489,-4.0489,-4.0489,-4.0489,-4.0489,-4.0489,-4.0489,-4.0489,-4.0489,-4.0489,0.0,0.0,-2.4202,-2.1544,0.0,0.0,0.0,0.0,0.0,0.0,0.0,0.0,0.0,0.0,0.0,0.0,0.0,0.0,0.0,0.0,0.0,0.0,0.0,0.0,0.0,0.0,0.0,0.0,0.0,0.0,0.0,-2.3939,-2.4575,-2.5247,-2.6138,-2.6692,-2.6941,-2.7425,-2.7795,-2.8061,-2.8071,-2.8692,-2.9805,-3.0205,-3.0903,-3.1751,-3.2198,-3.2398,-3.2398,-3.2398,-3.2631,-3.3084,-3.3889,-3.4826,-3.5774,-3.6207,-3.6412,-3.6492,-3.6492,-3.6938,-3.7569,-3.8031,-3.8785,-3.9521,-3.9767,-4.0136,-4.0578,-4.1057,-4.1142,-4.1276,-4.1706,-4.1836,-4.1706,-4.1276,-4.1142,-4.1142,-4.1142,-4.0802,-4.0612,-4.1091,-4.0802,-4.0489,-4.0489,-4.0489,-4.0489,-4.0489,-4.0489,-4.0489,-4.0489,-4.0489,-4.0489,-4.0489,-4.0489,-4.0489,-4.0489,-4.0489,-4.0489,-4.0489,-4.0489,-4.0489,-4.0489,-4.0489,-4.0489,-4.0489,-4.0489,-4.0489,-4.0489,-4.0489,-4.0489,-4.0489,-4.0489,-4.0489,-2.3455,-2.3879,0.0,0.0,-2.1434,0.0,-1.8559,0.0,0.0,0.0,0.0,0.0,0.0,0.0,0.0,0.0,0.0,0.0,0.0,0.0,0.0,0.0,0.0,0.0,0.0,0.0,-1.8884,-2.0243,-1.9687,0.0,0.0,0.0,-2.4126,-2.459,-2.5674,-2.6363,-2.6587,-2.707,-2.7475,-2.779,-2.7765,-2.8238,-2.9134,-2.9546,-3.0311,-3.1359,-3.1859,-3.2167,-3.241,-3.2629,-3.2803,-3.3076,-3.4032,-3.5037,-3.6017,-3.6458,-3.683,-3.7133,-3.7133,-3.7431,-3.7808,-3.8059,-3.8733,-3.9516,-4.0017,-4.0471,-4.0962,-4.1675,-4.1868,-4.1965,-4.2395,-4.2332,-4.2062,-4.1608,-4.1343,-4.1142,-4.1142,-4.0802,-4.0627,-4.1057,-4.0817,-4.0489,-4.0489,-4.0489,-4.0489,-4.0489,-4.0489,-4.0489,-4.0489,-4.0489,-4.0489,-4.0489,-4.0489,-4.0489,-4.0489,-4.0489,-4.0489,-4.0489,-4.0489,-4.0489,-4.0489,-4.0489,-4.0489,-4.0489,-4.0489,-4.0489,-4.0489,-4.0489,-4.0489,-4.0489,-4.0489,-4.0489]}]]